[[{"header":{"parameterUnit":"m.s-1","parameterCategory":1,"la1":30.6,"la2":28.766,"lo1":-90.7593,"lo2":-88.6598,"dy":0.0162,"dx":0.0183,"nx":116,"ny":114,"refTime":"2023-08-22T06:00:00:Z","depth":0,"parameterNumber":2,"parameterNumberName":"U-component_of_WINDS"},"data":[0.0,0.0,0.0,0.0,0.0,0.0,0.0,0.0,0.0,0.0,0.0,0.0,0.0,0.0,0.0,0.0,0.0,0.0,0.0,0.0,0.0,0.0,0.0,0.0,0.0,0.0,0.0,0.0,0.0,0.0,0.0,0.0,0.0,0.0,0.0,0.0,0.0,0.0,0.0,0.0,0.0,0.0,0.0,0.0,0.0,0.0,0.0,0.0,0.0,0.0,0.0,0.0,0.0,0.0,0.0,0.0,0.0,0.0,0.0,0.0,0.0,0.0,0.0,0.0,0.0,0.0,0.0,0.0,0.0,0.0,0.0,0.0,0.0,0.0,0.0,0.0,0.0,0.0,0.0,0.0,0.0,0.0,0.0,0.0,0.0,0.0,0.0,0.0,0.0,0.0,0.0,0.0,0.0,0.0,0.0,0.0,0.0,0.0,0.0,0.0,0.0,0.0,0.0,0.0,0.0,0.0,0.0,0.0,0.0,0.0,0.0,0.0,0.0,0.0,0.0,0.0,0.0,0.0,0.0,0.0,0.0,0.0,0.0,0.0,0.0,0.0,0.0,0.0,0.0,0.0,0.0,0.0,0.0,0.0,0.0,0.0,0.0,0.0,0.0,0.0,0.0,0.0,0.0,0.0,0.0,0.0,0.0,0.0,0.0,0.0,0.0,0.0,0.0,0.0,0.0,0.0,0.0,0.0,0.0,0.0,0.0,0.0,0.0,0.0,0.0,0.0,0.0,0.0,0.0,0.0,0.0,0.0,0.0,0.0,0.0,0.0,0.0,0.0,0.0,0.0,0.0,0.0,0.0,0.0,0.0,0.0,0.0,0.0,0.0,0.0,0.0,0.0,0.0,0.0,0.0,0.0,0.0,0.0,0.0,0.0,0.0,0.0,0.0,0.0,0.0,0.0,0.0,0.0,0.0,0.0,0.0,0.0,0.0,0.0,0.0,0.0,0.0,0.0,0.0,0.0,0.0,0.0,0.0,0.0,0.0,0.0,0.0,0.0,0.0,0.0,0.0,0.0,0.0,0.0,0.0,0.0,0.0,0.0,0.0,0.0,0.0,0.0,0.0,0.0,0.0,0.0,0.0,0.0,0.0,0.0,0.0,0.0,0.0,0.0,0.0,0.0,0.0,0.0,0.0,0.0,0.0,0.0,0.0,0.0,0.0,0.0,0.0,0.0,0.0,0.0,0.0,0.0,0.0,0.0,0.0,0.0,0.0,0.0,0.0,0.0,0.0,0.0,0.0,0.0,0.0,0.0,0.0,0.0,0.0,0.0,0.0,0.0,0.0,0.0,0.0,0.0,0.0,0.0,0.0,0.0,0.0,0.0,0.0,0.0,0.0,0.0,0.0,0.0,0.0,0.0,0.0,0.0,0.0,0.0,0.0,0.0,0.0,0.0,0.0,0.0,0.0,0.0,0.0,0.0,0.0,0.0,0.0,0.0,0.0,0.0,0.0,0.0,0.0,0.0,0.0,0.0,0.0,0.0,0.0,0.0,0.0,0.0,0.0,0.0,0.0,0.0,0.0,0.0,0.0,0.0,0.0,0.0,0.0,0.0,0.0,0.0,0.0,0.0,0.0,0.0,0.0,0.0,0.0,0.0,0.0,0.0,0.0,0.0,0.0,0.0,0.0,0.0,0.0,0.0,0.0,0.0,0.0,0.0,0.0,0.0,0.0,0.0,0.0,0.0,0.0,0.0,0.0,0.0,0.0,0.0,0.0,0.0,0.0,0.0,0.0,0.0,0.0,0.0,0.0,0.0,0.0,0.0,0.0,0.0,0.0,0.0,0.0,0.0,0.0,0.0,0.0,0.0,0.0,0.0,0.0,0.0,0.0,0.0,0.0,0.0,0.0,0.0,0.0,0.0,0.0,0.0,0.0,0.0,0.0,0.0,0.0,0.0,0.0,0.0,0.0,0.0,0.0,0.0,0.0,0.0,0.0,0.0,0.0,0.0,0.0,0.0,0.0,0.0,0.0,0.0,0.0,0.0,0.0,0.0,0.0,0.0,0.0,0.0,0.0,0.0,0.0,0.0,0.0,0.0,0.0,0.0,0.0,0.0,0.0,0.0,0.0,0.0,0.0,0.0,0.0,0.0,0.0,0.0,0.0,0.0,0.0,0.0,0.0,0.0,0.0,0.0,0.0,0.0,0.0,0.0,0.0,0.0,0.0,0.0,0.0,0.0,0.0,0.0,0.0,0.0,0.0,0.0,0.0,0.0,0.0,0.0,0.0,0.0,0.0,0.0,0.0,0.0,0.0,0.0,0.0,0.0,0.0,0.0,0.0,0.0,0.0,0.0,0.0,0.0,0.0,0.0,0.0,0.0,0.0,0.0,0.0,0.0,0.0,0.0,0.0,0.0,0.0,0.0,0.0,0.0,0.0,0.0,0.0,0.0,0.0,0.0,0.0,0.0,0.0,0.0,0.0,0.0,0.0,0.0,0.0,0.0,0.0,0.0,0.0,0.0,0.0,0.0,0.0,0.0,0.0,0.0,0.0,0.0,0.0,0.0,0.0,0.0,0.0,0.0,0.0,0.0,0.0,0.0,0.0,0.0,0.0,0.0,0.0,0.0,0.0,0.0,0.0,0.0,0.0,0.0,0.0,0.0,0.0,0.0,0.0,0.0,0.0,0.0,0.0,0.0,0.0,0.0,0.0,0.0,0.0,0.0,0.0,0.0,0.0,0.0,0.0,0.0,0.0,0.0,0.0,0.0,0.0,0.0,0.0,0.0,0.0,0.0,0.0,0.0,0.0,0.0,0.0,0.0,0.0,0.0,0.0,0.0,0.0,0.0,0.0,0.0,0.0,0.0,0.0,0.0,0.0,0.0,0.0,0.0,0.0,0.0,0.0,0.0,0.0,0.0,0.0,0.0,0.0,0.0,0.0,0.0,0.0,0.0,0.0,0.0,0.0,0.0,0.0,0.0,0.0,0.0,0.0,0.0,0.0,0.0,0.0,0.0,0.0,0.0,0.0,0.0,0.0,0.0,0.0,0.0,0.0,0.0,0.0,0.0,0.0,0.0,0.0,0.0,0.0,0.0,0.0,0.0,0.0,0.0,0.0,0.0,0.0,0.0,0.0,0.0,0.0,0.0,0.0,0.0,0.0,0.0,0.0,0.0,0.0,0.0,0.0,0.0,0.0,0.0,0.0,0.0,0.0,0.0,0.0,0.0,0.0,0.0,0.0,0.0,0.0,0.0,0.0,0.0,0.0,0.0,0.0,0.0,0.0,0.0,0.0,0.0,0.0,0.0,0.0,0.0,0.0,0.0,0.0,0.0,0.0,0.0,0.0,0.0,0.0,0.0,0.0,0.0,0.0,0.0,0.0,0.0,0.0,0.0,0.0,0.0,0.0,0.0,0.0,0.0,0.0,0.0,0.0,0.0,0.0,0.0,0.0,0.0,0.0,0.0,0.0,0.0,0.0,0.0,0.0,0.0,0.0,0.0,0.0,0.0,0.0,0.0,0.0,0.0,0.0,0.0,0.0,0.0,0.0,0.0,0.0,0.0,0.0,0.0,0.0,0.0,0.0,0.0,0.0,0.0,0.0,0.0,0.0,0.0,0.0,0.0,0.0,0.0,0.0,0.0,0.0,0.0,0.0,0.0,0.0,0.0,0.0,0.0,0.0,0.0,0.0,0.0,0.0,0.0,0.0,0.0,0.0,0.0,0.0,0.0,0.0,0.0,0.0,0.0,0.0,0.0,0.0,0.0,0.0,0.0,0.0,0.0,0.0,0.0,0.0,0.0,0.0,0.0,0.0,0.0,0.0,0.0,0.0,0.0,0.0,0.0,0.0,0.0,0.0,0.0,0.0,0.0,0.0,0.0,0.0,0.0,0.0,0.0,0.0,0.0,0.0,0.0,0.0,0.0,0.0,0.0,0.0,0.0,0.0,0.0,0.0,0.0,0.0,0.0,0.0,0.0,0.0,0.0,0.0,0.0,0.0,0.0,0.0,0.0,0.0,0.0,0.0,0.0,0.0,0.0,0.0,0.0,0.0,0.0,0.0,0.0,0.0,0.0,0.0,0.0,0.0,0.0,0.0,0.0,0.0,0.0,0.0,0.0,0.0,0.0,0.0,0.0,0.0,0.0,0.0,0.0,0.0,0.0,0.0,0.0,0.0,0.0,0.0,0.0,0.0,0.0,0.0,0.0,0.0,0.0,0.0,0.0,0.0,0.0,0.0,0.0,0.0,0.0,0.0,0.0,0.0,0.0,0.0,0.0,0.0,0.0,0.0,0.0,0.0,0.0,0.0,0.0,0.0,0.0,0.0,0.0,0.0,0.0,0.0,0.0,0.0,0.0,0.0,0.0,0.0,0.0,0.0,0.0,0.0,0.0,0.0,0.0,0.0,0.0,0.0,0.0,0.0,0.0,0.0,0.0,0.0,0.0,0.0,0.0,0.0,0.0,0.0,0.0,0.0,0.0,0.0,0.0,0.0,0.0,0.0,0.0,0.0,0.0,0.0,0.0,0.0,0.0,0.0,0.0,0.0,0.0,0.0,0.0,0.0,0.0,0.0,0.0,0.0,0.0,0.0,0.0,0.0,0.0,0.0,0.0,0.0,0.0,0.0,0.0,0.0,0.0,0.0,0.0,0.0,0.0,0.0,0.0,0.0,0.0,0.0,0.0,0.0,0.0,0.0,0.0,0.0,0.0,0.0,0.0,0.0,0.0,0.0,0.0,0.0,0.0,0.0,0.0,0.0,0.0,0.0,0.0,0.0,0.0,0.0,0.0,0.0,0.0,0.0,0.0,0.0,0.0,0.0,0.0,0.0,0.0,0.0,0.0,0.0,0.0,0.0,0.0,0.0,0.0,0.0,0.0,0.0,0.0,0.0,0.0,0.0,0.0,0.0,0.0,0.0,0.0,0.0,0.0,0.0,0.0,0.0,0.0,0.0,0.0,0.0,0.0,0.0,0.0,0.0,0.0,0.0,0.0,0.0,0.0,0.0,0.0,0.0,0.0,0.0,0.0,0.0,0.0,0.0,0.0,0.0,0.0,0.0,0.0,0.0,0.0,0.0,0.0,0.0,0.0,0.0,0.0,0.0,0.0,0.0,0.0,0.0,0.0,0.0,0.0,0.0,0.0,0.0,0.0,0.0,0.0,0.0,0.0,0.0,0.0,0.0,0.0,0.0,0.0,0.0,0.0,0.0,0.0,0.0,0.0,0.0,0.0,0.0,0.0,0.0,0.0,0.0,0.0,0.0,0.0,0.0,0.0,0.0,0.0,0.0,0.0,0.0,0.0,0.0,0.0,0.0,0.0,0.0,0.0,0.0,0.0,0.0,0.0,0.0,0.0,0.0,0.0,0.0,0.0,0.0,0.0,0.0,0.0,0.0,0.0,0.0,0.0,0.0,0.0,0.0,0.0,0.0,0.0,0.0,0.0,0.0,0.0,0.0,0.0,0.0,0.0,0.0,0.0,0.0,0.0,0.0,0.0,0.0,0.0,0.0,0.0,0.0,0.0,0.0,0.0,0.0,0.0,0.0,0.0,0.0,0.0,0.0,0.0,0.0,0.0,0.0,0.0,0.0,0.0,0.0,0.0,0.0,0.0,0.0,0.0,0.0,0.0,0.0,0.0,0.0,0.0,0.0,0.0,0.0,0.0,0.0,0.0,0.0,0.0,0.0,0.0,0.0,0.0,0.0,0.0,0.0,0.0,0.0,0.0,0.0,0.0,0.0,0.0,0.0,0.0,0.0,0.0,0.0,0.0,0.0,0.0,0.0,0.0,0.0,0.0,0.0,0.0,0.0,0.0,0.0,0.0,0.0,0.0,0.0,0.0,0.0,0.0,0.0,0.0,0.0,0.0,0.0,0.0,0.0,0.0,0.0,0.0,0.0,0.0,0.0,0.0,0.0,0.0,0.0,0.0,0.0,0.0,0.0,0.0,0.0,0.0,0.0,0.0,0.0,0.0,0.0,0.0,0.0,0.0,0.0,0.0,0.0,0.0,0.0,0.0,0.0,0.0,0.0,0.0,0.0,0.0,0.0,0.0,0.0,0.0,0.0,0.0,0.0,0.0,0.0,0.0,0.0,0.0,0.0,0.0,0.0,0.0,0.0,0.0,0.0,0.0,0.0,0.0,-5.0342,0.0,0.0,0.0,0.0,0.0,0.0,0.0,0.0,0.0,0.0,0.0,0.0,0.0,0.0,0.0,0.0,0.0,0.0,0.0,0.0,0.0,0.0,0.0,0.0,0.0,0.0,0.0,0.0,0.0,0.0,0.0,0.0,0.0,0.0,0.0,0.0,0.0,0.0,0.0,-4.7589,-4.8263,-4.9543,-4.9898,-4.9272,-4.7834,0.0,0.0,0.0,0.0,0.0,0.0,0.0,0.0,0.0,0.0,0.0,0.0,0.0,0.0,0.0,0.0,0.0,0.0,0.0,0.0,0.0,0.0,0.0,0.0,0.0,0.0,0.0,0.0,0.0,0.0,0.0,0.0,0.0,0.0,0.0,0.0,0.0,0.0,0.0,0.0,0.0,0.0,0.0,0.0,0.0,0.0,0.0,0.0,0.0,0.0,0.0,0.0,0.0,0.0,0.0,0.0,0.0,0.0,0.0,0.0,0.0,0.0,0.0,0.0,0.0,0.0,0.0,0.0,0.0,0.0,0.0,-5.0302,0.0,0.0,0.0,0.0,0.0,0.0,0.0,0.0,0.0,0.0,0.0,0.0,0.0,0.0,0.0,0.0,0.0,0.0,0.0,0.0,0.0,0.0,0.0,0.0,-4.1722,-4.25,-4.3015,-4.329,0.0,0.0,0.0,0.0,0.0,0.0,0.0,-4.5306,-4.6244,-4.734,-4.8068,-4.9258,-5.0896,-5.164,-5.1285,-4.9932,-4.8663,0.0,0.0,0.0,0.0,0.0,0.0,0.0,0.0,0.0,0.0,0.0,0.0,0.0,0.0,0.0,0.0,0.0,0.0,0.0,0.0,0.0,0.0,0.0,0.0,0.0,0.0,0.0,0.0,0.0,0.0,0.0,0.0,0.0,0.0,0.0,0.0,0.0,0.0,0.0,0.0,0.0,0.0,0.0,0.0,0.0,0.0,0.0,0.0,0.0,0.0,0.0,0.0,0.0,0.0,0.0,0.0,0.0,0.0,0.0,0.0,0.0,0.0,0.0,-5.5786,-5.5844,-5.6331,-5.6069,-5.6013,-5.5938,-5.228,-5.0927,-5.1262,0.0,0.0,0.0,0.0,0.0,0.0,0.0,0.0,0.0,0.0,0.0,0.0,0.0,0.0,0.0,0.0,0.0,0.0,0.0,0.0,0.0,0.0,-4.1324,-4.1878,-4.3065,-4.3245,-4.329,0.0,0.0,0.0,0.0,0.0,0.0,-4.3488,-4.3615,-4.4577,-4.6384,-4.9925,-5.2488,-5.4008,-5.4769,-5.4668,-5.3704,-5.0355,-4.8798,-4.8578,0.0,0.0,0.0,0.0,0.0,0.0,0.0,0.0,0.0,0.0,0.0,0.0,0.0,0.0,0.0,0.0,0.0,0.0,0.0,0.0,0.0,0.0,0.0,0.0,0.0,0.0,0.0,0.0,0.0,0.0,0.0,0.0,0.0,0.0,0.0,0.0,0.0,0.0,0.0,0.0,0.0,-4.5314,-4.4635,0.0,0.0,0.0,0.0,0.0,0.0,0.0,0.0,0.0,0.0,0.0,0.0,0.0,-5.5751,-5.6663,-5.8859,-5.9713,-5.9248,-6.0188,-6.0333,-5.9707,-5.8307,-5.805,-5.8602,-5.6669,0.0,-5.3596,-5.0677,0.0,0.0,0.0,0.0,0.0,0.0,0.0,0.0,0.0,0.0,0.0,0.0,0.0,0.0,0.0,0.0,0.0,0.0,0.0,0.0,0.0,-4.1265,-4.2201,-4.2746,-4.4825,-4.5484,-4.3947,-4.4945,0.0,0.0,0.0,-4.329,-4.329,-4.329,-4.4841,-4.8059,-5.2607,-5.5378,-5.6461,-5.7222,-5.7391,-5.6985,-5.4921,-5.2604,-5.0185,-4.9221,0.0,0.0,0.0,0.0,0.0,0.0,0.0,0.0,0.0,0.0,0.0,0.0,0.0,0.0,0.0,0.0,0.0,0.0,0.0,0.0,0.0,0.0,0.0,0.0,0.0,0.0,0.0,0.0,0.0,0.0,0.0,0.0,0.0,0.0,0.0,0.0,0.0,0.0,0.0,-4.5278,-4.5938,-4.4232,-4.5535,-4.5902,0.0,0.0,0.0,0.0,0.0,0.0,0.0,0.0,0.0,-5.3977,-5.697,-5.8718,-5.9069,-6.1043,-6.2095,-6.2224,-6.2261,-6.2346,-6.2438,-6.1245,-6.0639,-6.0493,-5.9336,-5.7895,-5.6133,-5.3085,-5.0815,-4.9086,0.0,0.0,0.0,0.0,-4.566,-4.5313,0.0,0.0,0.0,0.0,0.0,0.0,0.0,0.0,0.0,0.0,0.0,0.0,-4.0113,-4.1773,-4.3174,-4.3863,-4.6426,-4.7204,-4.5214,-4.5843,0.0,0.0,-4.309,-4.309,-4.309,-4.3957,-4.6352,-5.0332,-5.4928,-5.7827,-5.9066,-5.9996,-6.0334,-6.0148,-5.9573,-5.7053,-5.3112,-5.2165,-5.0405,-4.8139,0.0,0.0,0.0,0.0,0.0,0.0,0.0,0.0,0.0,0.0,0.0,0.0,0.0,0.0,0.0,0.0,0.0,0.0,0.0,0.0,0.0,0.0,0.0,0.0,0.0,0.0,0.0,0.0,0.0,0.0,0.0,0.0,0.0,0.0,0.0,0.0,0.0,-4.625,-4.7131,-4.4709,-4.7113,-4.7865,0.0,0.0,0.0,0.0,0.0,0.0,-5.2215,-5.462,-5.64,-5.7409,-6.0181,-6.1759,-6.1961,-6.3356,-6.4383,-6.5007,-6.4145,-6.409,-6.4677,-6.3613,-6.2677,-6.1851,-6.1062,-5.9795,-5.8075,-5.509,-5.2584,-5.0453,-4.9071,-4.7682,-4.6499,-4.7117,-4.6948,-4.6487,0.0,0.0,0.0,0.0,0.0,0.0,0.0,0.0,0.0,0.0,0.0,-4.0127,-4.2051,-4.3419,-4.5229,-4.7773,-4.7593,-4.7294,-4.716,-4.4844,-4.3195,-4.2485,-4.2455,-4.2455,-4.2455,-4.5734,-4.9148,-5.2539,-5.6342,-5.9571,-6.2195,-6.3649,-6.3954,-6.3294,-6.3243,-6.1518,-5.8389,-5.4871,-5.2892,-5.1825,-4.8223,0.0,0.0,0.0,0.0,0.0,0.0,0.0,0.0,0.0,0.0,0.0,0.0,0.0,0.0,0.0,0.0,0.0,0.0,0.0,0.0,0.0,0.0,0.0,0.0,0.0,0.0,0.0,0.0,0.0,0.0,0.0,0.0,0.0,0.0,0.0,0.0,0.0,0.0,-4.7204,-5.1132,0.0,0.0,0.0,0.0,-5.0545,-5.2711,-5.4748,-5.6418,-5.8804,-6.0823,-6.2377,-6.4145,-6.543,-6.6182,-6.7026,-6.7467,-6.7504,-6.6696,-6.6329,-6.6329,-6.4751,-6.3558,-6.267,-6.1887,-6.0639,-5.8872,-5.5688,-5.3395,-5.1742,-5.0072,-4.8934,-4.8179,-4.8216,-4.8198,-4.8179,0.0,0.0,0.0,0.0,0.0,0.0,0.0,0.0,-3.8631,-3.9334,-4.0157,-4.128,-4.2851,-4.5334,-4.7593,-4.9389,-5.0496,-5.0541,-4.9239,-4.7115,-4.5394,-4.4302,-4.3084,-4.2995,-4.4227,-4.7431,-5.0346,-5.2901,-5.8001,-6.1225,-6.269,-6.4454,-6.5425,-6.5611,-6.5138,-6.4055,-6.2364,-5.8626,-5.553,-5.2858,-5.005,-4.775,0.0,0.0,0.0,0.0,0.0,0.0,0.0,0.0,0.0,0.0,0.0,0.0,0.0,0.0,0.0,0.0,0.0,0.0,0.0,0.0,0.0,0.0,0.0,0.0,0.0,0.0,0.0,0.0,0.0,0.0,0.0,0.0,0.0,0.0,0.0,0.0,0.0,-5.1057,-5.394,0.0,-5.2472,-5.2766,-5.3555,-5.4583,-5.6436,-5.8657,-6.1355,-6.2805,-6.453,-6.6678,-6.732,-6.776,-6.8036,-6.7816,-6.743,-6.6898,-6.5576,-6.4659,-6.409,-6.2989,-6.1759,-6.0469,-6.0199,-5.9446,-5.8345,-5.7189,-5.5464,-5.3427,-5.2325,-5.0765,-4.9187,-4.9719,-4.9572,-4.9132,0.0,0.0,0.0,0.0,0.0,0.0,0.0,0.0,-3.8063,-3.896,-4.0232,-4.1908,-4.4137,-4.692,-4.9508,-5.1723,-5.2486,-5.2202,-5.0629,-4.8087,-4.5933,-4.4377,-4.3324,-4.3733,-4.5918,-4.8824,-5.1528,-5.3998,-5.9041,-6.206,-6.3166,-6.516,-6.6339,-6.6795,-6.6288,-6.5662,-6.4783,-6.2059,-5.8473,-5.4431,-5.2164,-5.005,-4.8003,0.0,0.0,0.0,0.0,0.0,0.0,0.0,0.0,0.0,0.0,0.0,0.0,0.0,0.0,0.0,0.0,0.0,0.0,0.0,0.0,0.0,0.0,0.0,0.0,0.0,0.0,0.0,0.0,0.0,0.0,0.0,0.0,0.0,0.0,0.0,-5.4124,-5.4381,-5.7281,-5.8419,-5.6235,-5.6767,-5.7685,-5.8749,-6.0603,-6.2622,-6.4787,-6.5925,-6.7118,-6.8458,-6.8495,-6.8366,-6.8091,-6.7559,-6.6751,-6.5668,-6.431,-6.3227,-6.2383,-6.1557,-6.0474,-5.9184,-5.9184,-5.8749,-5.7997,-5.7997,-5.673,-5.4748,-5.4216,-5.2692,-5.0875,-5.1408,-5.1261,-5.0729,0.0,0.0,0.0,0.0,0.0,0.0,0.0,-3.654,-3.6956,-3.8257,-3.9619,-4.1968,-4.5876,-4.8147,-5.0991,-5.488,-5.3369,-5.1932,-5.1289,-4.7489,-4.4407,-4.2515,-4.309,-4.4706,-4.7309,-4.9942,-5.2802,-5.5953,-5.9315,-6.1908,-6.3803,-6.5753,-6.6711,-6.6812,-6.677,-6.6348,-6.5628,-6.4935,-6.167,-5.6782,-5.4515,-5.2672,-5.0963,0.0,0.0,0.0,0.0,0.0,0.0,0.0,0.0,0.0,0.0,0.0,0.0,0.0,0.0,0.0,0.0,0.0,0.0,0.0,0.0,0.0,0.0,0.0,0.0,0.0,0.0,0.0,0.0,0.0,0.0,0.0,0.0,0.0,-4.9405,-5.4524,-5.7772,-5.7152,-6.1245,-6.2897,-5.9716,-6.1551,-6.2927,-6.2909,-6.5209,-6.6604,-6.6586,-6.8054,-6.855,-6.7779,-6.7687,-6.7283,-6.6531,-6.6457,-6.5632,-6.4035,-6.3191,-6.2346,-6.1502,-6.0731,-5.9924,-5.9148,-5.9148,-5.8731,-5.7997,-5.796,-5.7024,-5.5614,-5.5614,-5.462,-5.3185,-5.3185,-5.3167,-5.2949,0.0,0.0,0.0,0.0,0.0,0.0,0.0,-3.7162,-3.712,-3.8901,-4.0711,-4.315,-4.6651,-4.9643,-5.2606,-5.5643,-5.3623,-5.2127,-5.1947,-4.7309,-4.4122,-4.3105,-4.4646,-4.6516,-4.8686,-5.1304,-5.3564,-5.5413,-5.8708,-6.1089,-6.2527,-6.3564,-6.5036,-6.677,-6.5838,-6.5524,-6.5679,-6.5476,-6.3632,-6.0554,-5.7222,-5.4685,-5.2553,0.0,0.0,0.0,0.0,0.0,0.0,0.0,0.0,0.0,0.0,0.0,0.0,0.0,0.0,0.0,0.0,0.0,0.0,0.0,0.0,0.0,0.0,0.0,0.0,0.0,0.0,0.0,0.0,0.0,0.0,0.0,0.0,-5.131,-5.3695,-5.6308,-5.923,-6.2565,-6.4163,-6.4842,-6.453,-6.5613,-6.6109,-6.554,-6.7742,-6.8862,-6.8274,-6.866,-6.9082,-6.9431,-6.7742,-6.699,-6.7357,-6.5613,-6.4218,-6.3154,-6.2328,-6.1208,-5.9869,-5.9648,-5.9098,-5.8327,-5.8327,-5.8198,-5.7941,-5.7373,-5.6528,-5.5614,-5.5614,-5.462,-5.3185,-5.3185,-5.2839,-5.2179,0.0,0.0,0.0,0.0,0.0,0.0,0.0,-3.7945,-3.7785,-3.8831,-4.0988,-4.3564,-4.6561,-4.9329,-5.1917,-5.4296,-5.2336,-5.0855,-5.0571,-4.6905,-4.4811,-4.4949,-4.6636,-4.8476,-5.0451,-5.2815,-5.467,-5.5987,-5.8745,-6.0618,-6.1608,-6.2555,-6.4091,-6.5985,-6.5215,-6.537,-6.6153,-6.6153,-6.5053,-6.3091,-6.0605,-5.8084,-5.5446,-5.2147,-5.0625,-4.9982,-4.7851,-4.7631,-4.8088,-4.6143,0.0,0.0,0.0,0.0,0.0,0.0,0.0,0.0,0.0,0.0,0.0,0.0,0.0,0.0,0.0,0.0,0.0,0.0,0.0,0.0,0.0,0.0,0.0,0.0,-5.0935,-5.4226,-5.8131,-5.9707,-6.1797,-6.5388,-6.6109,-6.6623,-6.743,-6.7614,-6.7632,-6.7522,-6.8807,-6.9247,-6.844,-6.8715,-6.8807,-6.8605,-6.7228,-6.6237,-6.565,-6.4255,-6.2787,-6.1276,-6.0823,-5.9942,-5.8712,-5.8712,-5.8437,0.0,-5.7997,-5.7997,-5.7941,-5.7134,-5.6326,0.0,0.0,0.0,0.0,0.0,-5.2399,-5.183,0.0,0.0,0.0,0.0,0.0,0.0,0.0,-3.8806,-3.8677,-3.8656,-4.0755,-4.3264,-4.5813,-4.7863,-4.9883,-5.1798,-5.0182,-4.879,-4.8222,-4.6516,-4.6157,-4.7578,-4.897,-5.0648,-5.2605,-5.4545,-5.6164,-5.7445,-5.9272,-6.0532,-6.1243,-6.2439,-6.3748,-6.5126,-6.4975,-6.5603,-6.6812,-6.6812,-6.6,-6.4664,-6.3937,-6.1789,-5.8643,-5.5192,-5.3771,-5.3247,-5.0304,-4.9373,-4.9272,-4.7597,0.0,0.0,0.0,0.0,0.0,0.0,0.0,0.0,0.0,0.0,0.0,0.0,0.0,0.0,0.0,0.0,0.0,0.0,0.0,0.0,0.0,0.0,0.0,0.0,-5.2892,-5.6062,-6.1947,-6.3395,-6.4549,-6.6425,-6.7265,-6.7981,-6.8697,-6.8201,-6.8091,-6.8715,-6.8935,-6.8641,-6.7742,0.0,0.0,0.0,0.0,-6.5319,-6.3092,-6.278,-6.1533,-5.9313,-5.9239,-5.8786,-5.7997,-5.7997,-5.7997,-5.7997,-5.7997,-5.7997,-5.7941,-5.7134,-5.6271,-5.5372,-5.4583,-5.383,-5.3115,-5.2399,-5.2068,-5.1775,0.0,0.0,0.0,0.0,0.0,0.0,0.0,-3.9501,-3.9062,-4.0096,-4.1046,-4.2372,-4.4466,-4.6486,-4.8476,-5.0405,-4.882,-4.7638,-4.7504,-4.713,-4.7743,-4.9553,-5.1439,-5.3375,-5.5301,-5.6773,-5.8209,-5.9505,-6.0392,-6.1421,-6.265,-6.2892,-6.423,-6.638,-6.5365,-6.5603,-6.6812,-6.6812,-6.6288,-6.5408,-6.4681,-6.2229,-5.8812,-5.69,-5.5429,-5.4059,-5.1657,-5.1589,-5.2215,-4.9492,-4.9373,-4.9999,-4.7919,-4.6853,0.0,0.0,0.0,0.0,0.0,0.0,0.0,0.0,0.0,0.0,0.0,0.0,0.0,0.0,0.0,0.0,0.0,0.0,0.0,-5.2503,-5.5294,-5.8348,-6.2127,-6.3258,-6.4678,-6.7177,-6.7595,-6.7742,-6.7907,-6.8385,-6.8458,-6.7962,-6.9119,-6.9229,-6.776,-6.8458,0.0,-6.7485,-6.6219,-6.5319,-6.4824,-6.2842,-6.1263,-6.0162,0.0,0.0,-5.7997,-5.7997,-5.7997,-5.7997,-5.7997,-5.7997,-5.7941,-5.7134,-5.5941,-5.4546,-5.3757,-5.3332,-5.3167,-5.3041,-5.2564,-5.1848,0.0,0.0,0.0,0.0,0.0,0.0,0.0,-4.1255,-4.1071,-4.1317,-4.1758,-4.2415,-4.3381,-4.4584,-4.5666,-4.6653,-4.6187,-4.6097,-4.677,-4.7743,-4.9314,-5.1618,-5.2995,-5.4574,-5.6496,-5.7882,-5.9248,-6.0516,-6.0861,-6.1696,-6.3004,-6.2291,-6.3386,-6.5794,-6.5171,-6.5603,-6.6812,-6.6812,-6.617,-6.5121,-6.4749,-6.2821,-5.9996,-5.849,-5.6765,-5.4955,-5.345,-5.3162,-5.3162,-5.0879,-5.0608,-5.0896,-4.9052,-4.7953,-4.7208,0.0,0.0,0.0,0.0,0.0,0.0,0.0,0.0,0.0,0.0,0.0,0.0,0.0,0.0,-4.501,0.0,0.0,-5.1336,-5.5091,-5.7256,-5.9553,-6.2728,-6.3477,-6.4547,-6.6776,-6.7043,-6.7394,-6.8229,-6.8293,-6.8293,-6.8293,-6.866,-6.8531,-6.7724,-6.7705,-6.7338,-6.6512,-6.5338,-6.4108,-6.286,-6.1612,-6.0382,-5.9189,-5.8786,-5.84,-5.7997,-5.7997,-5.7997,-5.7997,-5.7997,-5.7997,-5.7905,-5.6693,-5.5244,-5.3775,-5.3371,-5.3185,-5.3093,-5.2307,-5.1738,-5.1224,0.0,0.0,0.0,0.0,0.0,0.0,0.0,-4.2934,-4.3047,-4.2347,-4.2396,-4.2494,-4.2494,-4.2766,-4.2916,-4.2916,-4.3913,-4.5125,-4.6606,-4.8551,-5.0825,-5.3458,-5.4574,-5.5981,-5.7729,-5.9135,-6.0454,-6.1664,-6.1722,-6.2325,-6.3371,-6.252,-6.3275,-6.526,-6.526,-6.5855,-6.6812,-6.6812,-6.6119,-6.5002,-6.4715,-6.3362,-6.1332,-5.9658,-5.7814,-5.6021,-5.5124,-5.4143,-5.3078,-5.1843,-5.1336,-5.0982,-4.9813,-4.8934,-4.8156,-4.7276,-4.6177,0.0,0.0,0.0,0.0,0.0,0.0,0.0,0.0,0.0,-4.3555,-4.497,-4.594,-4.7327,-4.9847,-5.1166,-5.3196,-5.7239,-5.8643,-6.014,-6.2852,-6.3238,-6.3781,-6.5256,-6.574,-6.6493,-6.8018,-6.7588,-6.7625,-6.8605,-6.8054,-6.7687,-6.7687,-6.6935,-6.62,-6.5558,-6.4604,-6.3062,-6.0896,-6.0566,-5.9667,-5.8235,-5.7935,-5.7862,-5.7997,-5.7862,-5.7792,-5.7774,-5.7609,-5.7624,-5.7648,-5.6014,-5.4517,-5.32,-5.3054,-5.2915,-5.2663,-5.1637,-5.1169,-5.082,0.0,0.0,0.0,0.0,0.0,0.0,0.0,0.0,-4.3276,-4.3169,-4.2373,-4.1833,-4.1833,-4.1674,-4.1594,-4.1594,-4.3793,-4.6007,-4.7938,-4.9898,-5.2187,-5.485,-5.7274,-5.9183,-6.0528,-6.1886,-6.3177,-6.4441,-6.4453,-6.4535,-6.4688,-6.5707,-6.6337,-6.6584,-6.6584,-6.6669,-6.6812,-6.6812,-6.6711,-6.6457,-6.5138,-6.3666,-6.2026,-5.9844,-5.844,-5.7459,-5.6089,-5.4228,-5.2418,-5.2249,-5.1758,-5.1183,-5.0999,-5.0456,-4.9576,-4.8206,0.0,-4.347,-4.254,-4.1348,-4.062,-4.1762,-4.2168,-4.2963,0.0,0.0,-4.6532,-4.7378,-4.8646,-4.9898,-5.0913,-5.2807,-5.5023,-5.7492,-5.9066,-6.0355,-6.1418,-6.1554,-6.1702,-6.2023,-6.3289,-6.4568,-6.5511,-6.5544,-6.6129,-6.7734,-6.7742,-6.7687,-6.7687,-6.6935,-6.6457,-6.6366,-6.4879,-6.3594,-6.2548,-6.1117,-5.996,-5.9056,-5.7697,-5.7376,-5.7973,-5.7309,-5.7015,-5.6978,-5.6273,-5.6346,-5.6822,-5.5207,-5.4036,-5.3206,-5.2495,-5.1856,-5.1469,-5.2543,-5.2491,-5.1738,0.0,0.0,0.0,0.0,0.0,0.0,0.0,0.0,0.0,-4.4064,-4.3201,-4.28,-4.3234,-4.2275,-4.1454,-4.1021,-4.3487,-4.611,-4.8596,-5.1924,-5.5078,-5.7823,-5.938,-6.0783,-6.2032,-6.3026,-6.4108,-6.5392,-6.5044,-6.526,-6.5985,-6.5794,-6.6089,-6.6812,-6.6812,-6.6812,-6.6812,-6.6812,-6.6559,-6.6068,-6.5019,-6.3717,-6.2144,-5.9877,-5.7746,-5.5716,-5.3788,-5.2198,0.0,-5.0033,-4.9543,-4.9342,-4.9796,-4.9424,-4.8612,-4.7581,-4.6075,0.0,-4.2743,-4.2516,-4.2753,0.0,-4.4265,-4.5889,-4.7158,-4.7767,-4.8409,-4.9593,-5.0659,-5.1742,-5.2959,-5.4313,-5.5818,0.0,-5.9133,-6.0216,-6.0554,-6.0605,-6.0129,-5.89,-5.9357,-6.0856,-6.3592,-6.3873,-6.4537,-6.6184,-6.6292,-6.6292,-6.6292,-6.554,-6.5099,-6.5099,-6.3484,-6.2254,-6.141,-6.0272,-5.9515,-5.9184,-5.7633,-5.7319,-5.8024,-5.6769,-5.6186,-5.6169,-5.5847,-5.5373,-5.4777,-5.4087,-5.3111,-5.2008,-5.1644,-5.1343,-5.111,-5.1251,-5.1083,-5.0662,0.0,0.0,0.0,0.0,0.0,0.0,0.0,0.0,0.0,0.0,-4.4143,-4.3805,-4.4277,-4.305,-4.1943,-4.1393,-4.3365,-4.5843,-4.8624,-5.2543,-5.6109,-5.9178,-6.0889,-6.2317,-6.3381,-6.4674,-6.5658,-6.6305,-6.5915,-6.5982,-6.6466,-6.5755,-6.5681,-6.622,-6.6423,-6.6508,-6.6491,-6.6288,-6.6,-6.5578,-6.4444,-6.3091,-6.1467,-5.8812,-5.6072,-5.345,-5.1809,-5.0202,-4.8714,-4.7665,-4.7175,-4.7124,-4.7868,-4.7733,-4.7208,-4.665,-4.5669,-4.4451,-4.2997,0.0,0.0,-4.4587,-4.6435,-4.8294,-4.87,-4.939,-5.0287,-5.1589,-5.2266,-5.3027,-5.4346,-5.504,-5.5886,-5.7357,-5.866,-5.9488,-5.9488,-5.9488,-5.8744,-5.6748,-5.6325,-5.7431,-6.0647,-6.1342,-6.2332,-6.4157,-6.4303,-6.4394,-6.4612,-6.3848,-6.3411,-6.3411,-6.202,-6.0893,-6.0067,-5.9285,-5.8794,-5.8558,-5.702,-5.6671,-5.7397,-5.6018,-5.5524,-5.566,-5.5036,-5.4236,-5.3369,-5.2945,-5.1988,-5.0796,-5.0796,-5.0689,-5.0447,-4.9878,-4.9767,-4.9809,0.0,0.0,0.0,0.0,0.0,0.0,0.0,0.0,0.0,0.0,0.0,0.0,0.0,-4.3537,-4.3038,-4.3022,-4.3642,-4.5202,-4.7941,-5.0801,-5.4026,-5.7616,-6.1664,-6.4155,-6.4909,-6.7584,-6.8562,-6.7827,-6.7801,-6.7091,-6.573,-6.6432,-6.5993,-6.4698,-6.5408,-6.5713,-6.5679,-6.4969,-6.507,-6.5493,-6.3328,-6.1535,-5.9776,-5.6122,-5.3315,-5.1269,-5.1202,-4.89,-4.5838,-4.5788,-4.528,-4.4835,-4.5568,-4.5788,0.0,-4.5737,-4.4147,-4.254,-4.3172,0.0,-4.4119,-4.7027,-4.8376,-4.934,-5.0762,-5.1674,-5.2435,-5.3264,-5.345,-5.3704,-5.4448,-5.4617,-5.5108,-5.6596,-5.7459,-5.7949,-5.7949,-5.7949,-5.7408,-5.5919,-5.5108,-5.5025,0.0,-5.7367,-5.9234,-6.1632,-6.1818,-6.2138,-6.2852,-6.2129,-6.169,-6.169,-6.0879,-6.0051,-5.9241,-5.8509,-5.7747,-5.6939,-5.5396,-5.5059,-5.5741,-5.4969,-5.5012,-5.5578,-5.3352,-5.2776,-5.3281,-5.1776,-5.0724,-5.0016,-5.0016,-4.9652,-4.9046,-4.9029,-4.9424,-4.9897,0.0,0.0,0.0,0.0,0.0,0.0,0.0,0.0,0.0,0.0,0.0,0.0,0.0,0.0,0.0,0.0,-4.4298,-4.5995,-4.8429,-5.231,-5.5754,-5.8462,-6.1829,-6.3994,-6.4715,-6.5665,-6.622,-6.6423,-6.595,-6.5459,-6.4986,-6.5222,-6.5087,-6.4613,-6.485,-6.5239,-6.5628,-6.4901,-6.4749,-6.4783,-6.255,-6.0757,-5.8981,-5.5277,-5.2147,-4.9492,0.0,-4.5686,-4.4001,-4.3047,-4.2557,-4.2472,-4.32,-4.3436,-4.3538,-4.4045,-4.4012,-4.4107,-4.5314,0.0,-4.8325,-5.0321,-5.142,-5.2249,-5.323,-5.3264,-5.3027,-5.2756,-5.1928,-5.1166,-5.093,-5.1691,-5.252,-5.301,-5.5784,-5.7729,-5.7239,-5.7577,-5.7154,-5.5192,-5.4752,0.0,0.0,0.0,0.0,-5.9932,-6.0116,-6.0423,-6.1171,-6.0959,-6.0587,-6.0104,-5.9282,-5.8485,-5.7682,-5.6892,-5.6644,-5.6903,-5.5872,-5.4983,-5.4218,-5.3962,-5.3703,-5.3407,-5.2628,-5.1873,-5.1184,-5.0656,-4.9979,-4.9346,-4.9346,-4.8906,-4.8291,-4.8291,-4.7788,-4.7231,0.0,0.0,0.0,0.0,0.0,0.0,0.0,0.0,0.0,0.0,0.0,0.0,0.0,0.0,0.0,0.0,0.0,-4.6012,-4.7944,-5.1345,-5.4296,-5.6528,-5.9252,-6.1078,-6.1806,-6.2059,-6.2431,-6.2888,-6.2702,-6.2465,-6.2212,-6.2753,-6.2702,-6.2229,-6.2753,-6.326,-6.3649,-6.2922,-6.2448,-6.2009,-5.9793,-5.7679,-5.548,-5.2317,-4.9407,0.0,-4.4248,-4.2878,-4.2083,-4.1119,-4.0798,-4.0933,-4.166,-4.2269,-4.2794,-4.324,-4.435,-4.5833,-4.7834,-4.9593,-5.1302,-5.3078,-5.3721,-5.4008,-5.4482,-5.3805,-5.2858,-5.208,-5.0727,-4.9475,-4.8748,-4.9187,-4.9813,-5.0338,-5.2841,-5.4921,-5.5547,-5.5784,-5.5666,-5.5074,-5.4752,0.0,0.0,0.0,0.0,-5.7503,-5.7866,-5.8323,-5.9057,-5.9092,-5.8916,-5.8442,-5.766,-5.6983,-5.6491,-5.5693,-5.5414,-5.5685,-5.5193,-5.4473,-5.3501,-5.3501,-5.3061,-5.2283,-5.2029,-5.1217,-5.0067,-4.9813,-4.9424,-4.9001,-4.9001,-4.8562,-4.7889,-4.7889,-4.6989,-4.5811,0.0,0.0,0.0,0.0,0.0,0.0,0.0,0.0,0.0,0.0,0.0,0.0,0.0,0.0,0.0,0.0,0.0,0.0,-4.6633,-4.8088,-4.9847,-5.1978,-5.4262,-5.5818,-5.6562,-5.7289,-5.7679,-5.7712,-5.8406,-5.8372,-5.7695,-5.9099,-5.9015,-5.7729,-5.9133,-5.9776,-5.9776,-5.9049,-5.8304,-5.7408,-5.5243,-5.2604,-4.9746,-4.7513,-4.5314,-4.3206,-4.1745,-4.073,-4.0096,-4.0096,-4.0146,-4.035,-4.1085,-4.2337,-4.3527,-4.3595,-4.528,-4.7699,-5.0608,-5.1978,-5.3112,-5.5327,-5.526,-5.4634,-5.46,-5.3348,-5.1978,-5.12,-4.9813,-4.8494,0.0,0.0,-4.7208,-4.8663,-4.912,-5.0304,-5.3213,-5.3061,-5.3433,0.0,0.0,0.0,0.0,0.0,0.0,-5.4651,0.0,-5.6055,-5.6816,-5.6867,-5.6816,-5.6748,-5.6072,-5.5647,-5.5598,-5.4888,-5.4194,-5.3501,-5.3501,-5.3501,-5.3501,-5.3467,-5.301,-5.2198,-5.1471,-5.0727,-4.9982,-4.9289,-4.9001,-4.9001,-4.9001,-4.8545,-4.7821,-4.7821,-4.6921,-4.5652,0.0,0.0,0.0,0.0,0.0,0.0,0.0,0.0,0.0,0.0,0.0,0.0,0.0,0.0,0.0,0.0,0.0,0.0,-4.5923,-4.6853,-4.7851,-4.8954,-5.1166,-5.2706,-5.3433,-5.4228,-5.4888,-5.5429,-5.5074,-5.482,-5.4634,-5.5006,-5.4989,-5.4634,-5.5006,-5.5497,-5.5936,-5.5226,-5.4448,-5.3585,-5.1911,-5.0135,-4.8223,-4.5991,-4.4418,-4.3206,-4.1745,-4.073,-4.0096,0.0,0.0,0.0,0.0,-4.391,-4.5348,-4.6418,-4.8765,-5.1385,-5.323,-5.5057,-5.6731,-5.7881,-5.6799,-5.5294,-5.4718,-5.2553,-5.0287,-4.9018,-4.6638,-4.4621,0.0,0.0,0.0,-4.7208,-5.0625,0.0,-5.4972,-5.6393,0.0,-5.734,0.0,-5.7526,-5.6613,-5.6359,0.0,0.0,-5.5598,-5.6275,-5.7543,-5.7611,-5.712,-5.6038,-5.5818,-5.5192,-5.4076,-5.3873,-5.3687,-5.3501,-5.3501,-5.3501,-5.3484,-5.2892,-5.2198,-5.1454,-5.0693,-4.9965,-4.9272,-4.9086,-4.9001,-4.9001,-4.9001,-4.8206,-4.7073,-4.7073,-4.6143,-4.4874,0.0,0.0,0.0,0.0,0.0,0.0,0.0,0.0,0.0,0.0,0.0,0.0,0.0,0.0,0.0,0.0,0.0,0.0,0.0,-4.5585,-4.5855,-4.5911,-4.7094,-4.7834,-4.7902,-4.8342,-4.912,-5.0217,-4.9796,-4.9915,-5.0557,-5.0557,-5.0557,-5.0574,-5.0913,-5.1285,-5.164,-5.1234,-5.0422,0.0,0.0,-4.6583,-4.4812,-4.3572,-4.2625,-4.1847,-4.1001,-4.0646,0.0,0.0,0.0,-4.3978,-4.5032,-4.665,-4.8426,-4.9932,0.0,-5.4245,-5.6038,-5.7662,-5.8879,-5.8998,-5.7357,-5.5344,-5.3907,-5.1285,-4.8629,-4.6819,-4.457,0.0,0.0,0.0,0.0,0.0,0.0,0.0,-5.4837,-5.6292,-5.7526,0.0,-5.8964,0.0,-5.7865,-5.7476,-5.7103,0.0,-5.6376,-5.641,-5.6917,-5.6934,-5.641,-5.526,-5.4905,-5.4346,-5.3518,-5.3501,-5.3501,-5.3501,-5.3501,-5.3501,-5.3467,-5.2672,-5.1911,-5.1166,0.0,-4.9678,-4.9001,-4.9001,-4.9001,-4.9001,-4.9001,-4.8105,-4.6786,-4.6786,-4.5855,-4.4615,0.0,0.0,0.0,0.0,0.0,0.0,0.0,0.0,0.0,0.0,0.0,0.0,0.0,0.0,0.0,0.0,0.0,0.0,0.0,0.0,-4.413,-4.3426,-4.3291,-4.2963,-4.2303,-4.2286,-4.2973,-4.4293,-4.4293,-4.4953,-4.6194,-4.6194,-4.6194,-4.6227,-4.687,-4.7175,-4.7175,-4.7175,-4.6321,-4.4884,-4.4271,-4.2743,-4.0879,0.0,-4.0406,-3.9927,-3.9927,0.0,0.0,0.0,-4.4778,-4.6278,-4.7821,-4.9917,-5.2097,-5.3518,-5.5057,-5.6714,-5.8643,-5.9691,-6.008,-5.9336,-5.7425,-5.5091,-5.2706,-4.9813,-4.6989,-4.4767,0.0,-4.1796,-4.117,-4.1221,-4.2117,-4.4513,0.0,-4.8984,-5.4025,-5.4989,-5.641,-5.9708,-5.9641,-5.9268,-5.9167,-5.8473,-5.8,-5.7898,-5.7222,-5.6528,-5.5902,-5.5869,-5.5463,-5.4617,-5.3873,-5.3501,-5.3501,-5.3501,-5.3501,-5.3501,-5.3501,-5.345,-5.3315,-5.252,-5.1758,-5.1014,0.0,0.0,-4.9001,-4.9001,-4.9001,-4.9001,-4.9001,-4.8105,-4.6786,-4.6786,-4.5855,-4.4615,0.0,0.0,0.0,0.0,0.0,0.0,0.0,0.0,0.0,0.0,-4.4062,-4.4181,0.0,0.0,0.0,0.0,0.0,0.0,0.0,0.0,0.0,-4.3392,-4.2828,-4.2422,-4.2286,-4.2286,-4.2422,-4.2692,-4.2692,-4.2811,-4.3064,-4.3064,-4.3064,-4.3081,-4.32,-4.3267,-4.3267,-4.3267,-4.2427,-4.1055,-4.0951,-4.026,-3.9214,-3.8609,0.0,0.0,0.0,0.0,0.0,0.0,-4.6802,-4.7872,-4.9951,-5.2588,-5.5108,-5.597,-5.7695,-5.9421,-5.981,-6.0486,-6.0909,-6.0114,-5.7797,-5.4921,-5.203,-4.8646,0.0,0.0,-4.1534,-4.0451,-4.0316,-4.1271,0.0,-4.594,0.0,0.0,0.0,0.0,-5.871,0.0,0.0,0.0,0.0,0.0,0.0,0.0,0.0,-5.6748,-5.663,-5.6613,-5.5987,-5.4634,-5.3873,-5.3501,-5.3501,-5.3501,-5.3501,-5.3501,-5.3501,-5.3162,-5.2486,-5.1742,-5.0997,-5.0253,-4.9509,0.0,-4.9001,-4.9001,-4.9001,-4.9001,-4.9001,-4.8105,-4.6786,-4.6786,-4.5855,-4.4615,0.0,0.0,0.0,0.0,0.0,0.0,0.0,-4.2244,-4.2663,-4.3881,-4.4688,-4.4874,-4.4113,-4.3995,-4.413,0.0,0.0,0.0,0.0,0.0,0.0,0.0,0.0,0.0,-4.1728,-4.1728,-4.1728,-4.1728,0.0,-4.1728,-4.1711,-4.1322,-4.1162,-4.1162,-4.1162,-4.1162,-4.1162,-4.1162,-4.0761,-4.0093,-4.0093,-3.9876,-3.9489,0.0,0.0,0.0,0.0,0.0,0.0,0.0,-4.6312,-4.848,-5.1911,-5.4245,-5.6021,-5.7509,-5.8981,-6.0283,-6.1078,-6.1856,-6.2076,-6.0486,-5.7881,-5.4718,-5.093,0.0,0.0,0.0,-4.0603,-4.0096,-4.0096,0.0,0.0,0.0,0.0,0.0,0.0,0.0,0.0,0.0,0.0,0.0,0.0,0.0,0.0,0.0,0.0,-5.7036,-5.6275,-5.5513,-5.4769,-5.4042,-5.3687,-5.3501,-5.3501,-5.3501,-5.3501,-5.3501,-5.3501,-5.3078,-5.2283,-5.1555,-5.0811,-5.005,-4.9323,0.0,-4.9001,-4.9001,-4.9001,-4.9001,-4.9001,-4.8342,-4.7327,-4.6938,-4.6109,-4.5111,0.0,0.0,0.0,0.0,0.0,0.0,0.0,-4.3291,-4.3721,-4.4664,-4.5314,-4.545,-4.4902,-4.413,-4.3842,0.0,0.0,0.0,0.0,0.0,0.0,0.0,0.0,0.0,0.0,0.0,0.0,0.0,-4.0967,0.0,0.0,0.0,0.0,0.0,0.0,-3.9995,-3.9833,-3.9833,-3.9636,0.0,0.0,0.0,0.0,0.0,0.0,0.0,0.0,0.0,0.0,0.0,-4.4833,-4.7618,-5.1657,-5.4211,-5.5986,-5.7611,-5.9032,-6.0402,-6.1789,-6.2702,-6.2753,-6.0639,-5.7763,-5.4346,-4.9999,-4.6583,0.0,0.0,-4.0096,-4.0096,-4.0096,0.0,-4.1508,0.0,0.0,0.0,0.0,0.0,0.0,0.0,0.0,0.0,0.0,0.0,0.0,0.0,0.0,0.0,-5.5732,-5.4313,-5.3501,-5.3501,-5.3501,-5.3501,-5.3501,-5.3501,-5.3501,-5.3501,-5.3501,-5.301,-5.2046,-5.1471,-5.0727,-4.9813,-4.9255,0.0,0.0,-4.9001,-4.9001,-4.9001,-4.9001,-4.8562,-4.7821,-4.7259,-4.6464,-4.5618,0.0,0.0,0.0,0.0,0.0,0.0,0.0,-4.3602,-4.4355,-4.5278,-4.5477,-4.5549,-4.5574,-4.4925,-4.4215,0.0,0.0,0.0,0.0,0.0,0.0,0.0,0.0,0.0,0.0,0.0,0.0,0.0,0.0,0.0,0.0,0.0,0.0,0.0,0.0,0.0,0.0,-3.9016,0.0,0.0,0.0,0.0,0.0,0.0,0.0,0.0,0.0,0.0,0.0,0.0,0.0,-4.4237,-4.6735,-5.1285,-5.5632,-5.5141,0.0,0.0,-6.1163,-6.1941,-6.2093,-6.0503,-5.7374,-5.3687,-4.9881,0.0,0.0,-4.057,-4.0096,-4.0096,-4.0096,-4.0163,-4.0882,0.0,0.0,-4.5404,0.0,0.0,0.0,0.0,0.0,0.0,0.0,0.0,0.0,0.0,0.0,0.0,-5.5683,-5.4313,-5.3501,-5.3501,-5.3501,-5.3501,-5.3501,-5.3501,-5.3501,-5.3501,-5.3501,-5.2739,-5.1319,-5.1219,-5.0439,-4.9103,-4.9035,0.0,0.0,-4.9001,-4.9001,-4.9001,-4.9001,-4.8562,-4.7872,-4.7804,-4.6921,-4.5703,0.0,0.0,0.0,0.0,0.0,0.0,-4.3463,-4.3716,-4.443,-4.5859,-4.5673,-4.5821,-4.6807,-4.5529,-4.4479,-4.4147,0.0,0.0,0.0,0.0,0.0,0.0,0.0,0.0,0.0,0.0,0.0,-4.0747,0.0,0.0,0.0,0.0,0.0,0.0,0.0,0.0,0.0,0.0,0.0,0.0,0.0,0.0,0.0,0.0,0.0,0.0,0.0,0.0,0.0,0.0,0.0,0.0,-4.311,-4.5967,0.0,0.0,-5.4905,-5.734,-5.9894,-6.1146,-6.1467,-6.0368,-5.6985,-5.296,-4.9187,0.0,-4.2625,-3.9914,-3.9368,-3.9516,-4.002,-3.9688,-3.9826,-4.1202,-4.1407,0.0,0.0,0.0,0.0,0.0,0.0,0.0,0.0,0.0,0.0,0.0,0.0,0.0,-5.5023,-5.4059,-5.3501,-5.3501,-5.3501,-5.3501,-5.3501,-5.3501,-5.3501,-5.3501,-5.3501,-5.2706,-5.1185,-5.1185,-5.0405,-4.9001,-4.9001,0.0,0.0,-4.9001,-4.9001,-4.9001,-4.9001,-4.8832,-4.8528,-4.8041,-4.7259,-4.6295,0.0,0.0,0.0,0.0,0.0,-4.3631,-4.401,-4.408,-4.4604,-4.6117,-4.5916,-4.599,-4.694,-4.5723,-4.4786,-4.4615,-4.321,0.0,0.0,0.0,0.0,0.0,0.0,0.0,0.0,0.0,-4.183,-4.1525,-4.2794,-4.2868,0.0,0.0,0.0,0.0,0.0,0.0,0.0,0.0,0.0,0.0,0.0,0.0,0.0,0.0,0.0,0.0,0.0,0.0,0.0,0.0,0.0,0.0,0.0,0.0,0.0,0.0,-5.1679,-5.4498,-5.7069,-5.9017,-6.0114,-5.9319,-5.5742,-5.1564,0.0,0.0,-4.1626,-3.91,-3.858,-3.8761,-3.9305,-3.8951,-3.8761,-3.9332,-3.961,-4.0798,0.0,0.0,0.0,0.0,0.0,0.0,0.0,0.0,0.0,0.0,0.0,0.0,0.0,-5.3788,-5.3501,-5.3501,-5.3501,-5.3501,-5.3501,-5.3501,-5.3382,-5.3145,-5.3145,-5.235,-5.0879,-5.0879,-5.0202,-4.9001,0.0,0.0,0.0,-4.9001,-4.9001,-4.9001,-4.9001,-4.9001,-4.8951,-4.8426,-4.7631,-4.6718,0.0,0.0,0.0,0.0,0.0,0.0,-4.4563,-4.4691,-4.504,-4.5972,-4.6167,-4.6003,-4.5493,-4.5459,-4.5258,-4.4654,-4.321,0.0,0.0,0.0,0.0,0.0,0.0,0.0,0.0,0.0,-4.1576,-4.2286,-4.3047,-4.3375,-4.3375,-4.3375,0.0,0.0,0.0,0.0,0.0,0.0,0.0,0.0,0.0,0.0,0.0,0.0,0.0,0.0,0.0,0.0,0.0,0.0,0.0,0.0,0.0,0.0,0.0,0.0,-4.7699,-5.2336,-5.2374,-5.5101,-5.7746,-5.7019,-5.3372,-4.9391,0.0,-4.3193,-3.9532,-3.811,-3.7806,-3.7806,-3.7822,-3.7822,-3.7806,-3.7822,-3.8442,0.0,0.0,0.0,0.0,0.0,0.0,0.0,0.0,0.0,0.0,0.0,0.0,0.0,0.0,-5.3501,-5.3501,-5.3501,-5.3501,-5.3501,-5.3501,-5.3501,-5.3112,-5.2317,-5.2317,-5.1539,-5.0101,-5.0101,-4.9695,0.0,0.0,0.0,0.0,-4.9001,-4.9001,-4.9001,-4.9001,-4.9001,-4.9001,-4.9001,-4.8054,-4.6786,0.0,0.0,0.0,0.0,0.0,0.0,0.0,-4.3883,-4.4179,-4.5021,-4.4803,-4.4954,-4.5978,-4.5246,-4.4861,-4.5303,-4.3944,0.0,0.0,0.0,0.0,0.0,0.0,0.0,0.0,0.0,-4.2303,-4.3064,-4.435,-4.4976,-4.4976,-4.4976,-4.4164,-4.2682,0.0,0.0,0.0,0.0,0.0,0.0,0.0,0.0,0.0,0.0,0.0,0.0,0.0,0.0,0.0,0.0,0.0,0.0,0.0,0.0,0.0,-3.8601,-4.1912,0.0,-4.7923,-4.9337,-5.0434,-5.1136,-4.8674,-4.5629,-4.3949,-4.1662,-3.9334,-3.7367,-3.6964,-3.716,-3.7706,-3.7368,-3.7301,-3.8328,-3.8672,0.0,0.0,0.0,0.0,0.0,0.0,0.0,0.0,0.0,0.0,0.0,0.0,0.0,0.0,-5.3501,-5.3501,-5.3501,-5.3501,-5.3247,-5.2689,-5.2689,-5.23,-5.1555,-5.1555,-5.1048,-5.0084,-5.0084,0.0,0.0,0.0,0.0,0.0,-4.8047,-4.7671,-4.7155,-4.7803,-4.8047,-4.8062,-4.8211,-4.7631,-4.6718,0.0,0.0,0.0,0.0,0.0,0.0,0.0,-4.3515,-4.368,-4.4176,-4.4181,-4.4367,-4.502,-4.4822,-4.469,-4.484,-4.4231,0.0,0.0,0.0,0.0,0.0,0.0,0.0,-4.0493,-4.1677,-4.2946,-4.4282,-4.5805,-4.6549,-4.6549,-4.6819,-4.5838,-4.3859,-4.3859,0.0,0.0,0.0,0.0,0.0,0.0,0.0,-3.6088,0.0,0.0,0.0,0.0,0.0,0.0,0.0,0.0,0.0,0.0,0.0,0.0,0.0,-3.7824,-4.0322,0.0,-4.5337,-4.6754,-4.7367,-4.5635,0.0,0.0,-4.0278,-3.8417,-3.6566,-3.6196,-3.6352,-3.6829,-3.6523,-3.6491,-3.7405,-3.7774,0.0,0.0,0.0,0.0,0.0,0.0,0.0,0.0,0.0,0.0,0.0,0.0,0.0,0.0,-5.2904,-5.2714,-5.2329,-5.279,-5.2807,-5.23,-5.2029,-5.1522,-5.0794,-5.0794,-5.0405,-4.9678,-4.9329,0.0,0.0,0.0,0.0,0.0,-4.7054,-4.6747,-4.6244,-4.685,-4.6925,-4.6714,-4.6829,-4.6256,-4.5327,0.0,0.0,0.0,0.0,0.0,0.0,0.0,-4.3515,-4.3515,-4.3515,-4.4158,-4.4179,-4.303,-4.4173,-4.4596,-4.3512,0.0,0.0,0.0,0.0,0.0,0.0,0.0,0.0,-4.1271,-4.2049,-4.3538,-4.5788,-4.7246,-4.8024,-4.8142,-4.8849,-4.7614,-4.4835,-4.4835,-4.3494,0.0,0.0,0.0,0.0,-3.7888,-3.724,0.0,0.0,0.0,0.0,0.0,0.0,0.0,0.0,0.0,0.0,0.0,0.0,0.0,0.0,0.0,0.0,0.0,-4.2602,0.0,0.0,0.0,0.0,-4.0935,-3.8956,0.0,-3.5759,-3.5504,-3.5519,-3.5564,-3.5534,-3.5534,-3.5624,-3.6191,0.0,0.0,0.0,0.0,0.0,0.0,0.0,0.0,0.0,0.0,0.0,0.0,0.0,0.0,-5.1796,-5.1361,-5.0371,-5.1429,-5.2,-5.2,-5.1292,-5.0534,-4.9824,-4.9824,-4.947,-4.875,-4.7901,0.0,0.0,0.0,0.0,0.0,-4.6103,-4.6083,-4.5996,-4.6019,-4.5639,-4.5083,-4.504,-4.4209,-4.3071,0.0,0.0,0.0,0.0,0.0,0.0,0.0,0.0,0.0,0.0,-4.3644,-4.356,-4.2959,-4.3218,-4.3418,0.0,0.0,0.0,0.0,0.0,0.0,0.0,0.0,0.0,-4.2033,-4.3379,-4.4857,-4.6532,-4.802,-4.9323,-5.0424,-5.0608,-4.9424,-4.7124,-4.7124,-4.5228,0.0,0.0,0.0,0.0,-3.8012,-3.736,0.0,0.0,0.0,0.0,-3.6252,-3.6582,0.0,0.0,0.0,0.0,0.0,0.0,0.0,0.0,-3.5863,-3.6304,-3.6491,0.0,-3.8134,-3.8519,-3.8302,-3.7918,0.0,-3.7113,-3.6477,-3.5669,0.0,-3.5669,-3.6163,-3.5848,-3.5833,-3.6806,-3.7109,0.0,0.0,0.0,0.0,0.0,0.0,0.0,0.0,0.0,0.0,0.0,0.0,0.0,0.0,-5.0741,-5.0408,-4.9657,-4.9374,-4.9219,-4.9219,-4.8556,-4.7842,-4.7127,-4.7127,-4.7046,-4.685,-4.6643,0.0,0.0,0.0,0.0,-4.5116,-4.5116,-4.4684,-4.399,-4.4251,-4.4267,-4.4109,-4.3749,-4.3359,-4.3007,0.0,0.0,0.0,0.0,0.0,0.0,0.0,0.0,0.0,0.0,0.0,0.0,0.0,0.0,0.0,0.0,0.0,0.0,0.0,0.0,0.0,0.0,0.0,-4.2455,-4.2811,-4.3961,-4.5512,-4.731,-4.8781,-5.0101,-5.1217,-5.1555,-5.0541,-4.8359,-4.6989,-4.4816,0.0,0.0,0.0,-3.9028,-3.8196,0.0,0.0,0.0,0.0,0.0,-3.5908,-3.6237,0.0,-3.6881,-3.7404,-3.7823,0.0,0.0,0.0,0.0,-3.5998,-3.5953,-3.5609,-3.6148,-3.6836,-3.6896,-3.7135,-3.7285,-3.6971,0.0,0.0,0.0,0.0,0.0,0.0,0.0,0.0,0.0,0.0,0.0,0.0,0.0,0.0,0.0,0.0,0.0,0.0,0.0,0.0,0.0,0.0,0.0,0.0,-4.9355,-4.8812,-4.8017,-4.6998,-4.6928,-4.7842,-4.7153,-4.6593,-4.6208,-4.6208,-4.6208,-4.6173,-4.5762,-4.5388,0.0,0.0,0.0,-4.3258,-4.3564,-4.3356,-4.2929,-4.31,-4.2975,-4.2652,-4.2065,-4.1685,-4.1358,0.0,0.0,0.0,0.0,0.0,0.0,0.0,0.0,0.0,0.0,0.0,0.0,0.0,0.0,0.0,0.0,0.0,0.0,0.0,0.0,0.0,0.0,-4.298,-4.2997,-4.373,-4.4418,-4.5838,-4.8058,-4.9543,-5.071,-5.1589,-5.2317,-5.1352,-4.8883,-4.5992,-4.3754,0.0,0.0,-4.0349,-3.8421,-3.8192,0.0,0.0,0.0,0.0,0.0,0.0,0.0,0.0,-3.6342,-3.6746,-3.724,-3.715,0.0,0.0,0.0,0.0,0.0,-3.5504,-3.6911,-3.8182,-3.733,-3.7614,-3.7958,-3.7389,0.0,0.0,0.0,0.0,0.0,0.0,0.0,0.0,0.0,0.0,0.0,0.0,0.0,0.0,0.0,0.0,0.0,0.0,0.0,0.0,0.0,0.0,0.0,0.0,-4.7793,-4.6961,-4.6007,-4.49,-4.5074,-4.6686,-4.6083,-4.5762,-4.5762,-4.5762,-4.5698,-4.5588,-4.4812,-4.4046,0.0,0.0,0.0,-4.1429,-4.2021,-4.2246,-4.2246,-4.2141,-4.1767,-4.1145,-4.0487,-3.9903,-3.9388,0.0,0.0,0.0,0.0,0.0,0.0,0.0,0.0,0.0,0.0,0.0,0.0,0.0,0.0,0.0,0.0,0.0,0.0,0.0,0.0,0.0,-4.4429,-4.4327,-4.4587,-4.5331,-4.5466,-4.6616,-4.8832,-5.0321,-5.1775,-5.3162,-5.389,-5.2367,-4.8886,-4.6441,-4.4186,-4.2157,-4.0657,-3.9501,-3.8541,-3.7292,0.0,0.0,0.0,0.0,0.0,0.0,0.0,0.0,-3.5654,-3.6088,-3.6537,-3.5968,0.0,0.0,0.0,0.0,0.0,-3.5504,-3.6911,-3.7973,-3.6237,-3.6297,-3.6746,-3.6656,0.0,0.0,0.0,0.0,0.0,0.0,0.0,0.0,0.0,0.0,0.0,0.0,0.0,0.0,0.0,0.0,0.0,0.0,0.0,0.0,0.0,0.0,0.0,0.0,-4.6049,-4.5335,-4.4646,-4.4421,-4.4193,-4.3922,-4.3817,-4.3756,-4.3756,-4.3756,-4.3469,-4.2978,-4.2824,-4.2401,-4.1769,0.0,-4.1512,-4.1384,-4.1527,-4.1572,-4.1512,-4.092,-4.0636,-4.0472,-3.9813,-3.9514,-3.9388,0.0,0.0,0.0,0.0,0.0,0.0,0.0,0.0,0.0,0.0,0.0,0.0,0.0,0.0,0.0,0.0,0.0,0.0,0.0,0.0,-4.4147,-4.4581,-4.4976,-4.5348,-4.5703,-4.6498,-4.7784,-4.9593,-5.1522,-5.2824,-5.3501,-5.2993,-5.1158,-4.8222,-4.6328,-4.3988,-4.1374,-4.0203,-3.9462,-3.8952,0.0,0.0,0.0,0.0,0.0,0.0,0.0,0.0,0.0,0.0,-3.5953,-3.6432,-3.6133,0.0,0.0,0.0,0.0,0.0,-3.5504,-3.6417,-3.715,-3.6252,-3.6776,-3.733,-3.6641,-3.5983,0.0,0.0,0.0,0.0,0.0,0.0,0.0,0.0,0.0,0.0,0.0,0.0,0.0,0.0,0.0,0.0,0.0,0.0,0.0,0.0,0.0,0.0,0.0,0.0,-4.4631,-4.4332,-4.3932,-4.3604,-4.329,-4.2985,-4.2806,-4.2806,-4.2447,-4.2117,-4.1871,-4.1871,-4.1474,-4.0846,0.0,-4.0651,-4.0352,-4.0711,-4.0846,-4.0816,-4.0516,-4.0397,-4.0322,-3.9664,-3.9388,-3.9388,0.0,0.0,0.0,0.0,0.0,0.0,0.0,0.0,0.0,0.0,0.0,0.0,0.0,0.0,0.0,0.0,0.0,0.0,0.0,-4.2895,-4.3775,-4.4564,-4.5314,-4.5788,-4.5957,-4.7242,-4.8629,-5.0084,-5.2181,-5.3399,-5.3721,-5.2135,-5.0059,-4.7605,-4.5898,-4.3374,-4.0411,-3.9699,-3.9219,-3.882,0.0,0.0,0.0,0.0,0.0,0.0,0.0,0.0,0.0,0.0,0.0,0.0,0.0,0.0,0.0,-3.6252,-3.5893,-3.5504,-3.5504,-3.6088,-3.6626,-3.6327,0.0,-3.7808,-3.7285,-3.6656,0.0,0.0,0.0,0.0,0.0,0.0,0.0,0.0,0.0,0.0,0.0,0.0,0.0,0.0,0.0,0.0,0.0,0.0,0.0,0.0,0.0,0.0,0.0,0.0,-4.4092,-4.4092,-4.3449,-4.3105,-4.3105,-4.2312,-4.2096,-4.2396,-4.1737,-4.1332,-4.1145,-4.1145,-4.0786,-4.0172,-4.0172,-3.9888,-3.9454,-3.9963,-4.0172,-4.0172,-4.0172,-4.0172,-4.0113,-3.9604,-3.9514,-3.9634,0.0,0.0,0.0,0.0,0.0,0.0,0.0,0.0,0.0,0.0,0.0,0.0,0.0,0.0,0.0,0.0,0.0,0.0,0.0,-4.2625,-4.3775,-4.4564,-4.5314,-4.6024,-4.6701,-4.7513,-4.8629,-5.0084,-5.164,-5.3112,-5.4482,-5.2759,-5.0431,-4.7589,-4.5129,-4.2439,-3.9712,-3.8864,-3.8132,-3.7554,-3.7449,0.0,0.0,0.0,0.0,0.0,0.0,0.0,0.0,0.0,0.0,0.0,0.0,0.0,-3.5579,-3.5579,-3.5549,-3.5504,-3.5504,-3.6402,-3.706,-3.5878,-3.6103,-3.7075,-3.8811,-3.8676,0.0,-3.9798,0.0,0.0,0.0,0.0,0.0,0.0,0.0,0.0,0.0,0.0,0.0,0.0,0.0,0.0,0.0,0.0,0.0,0.0,0.0,0.0,0.0,0.0,0.0,-4.3364,-4.2776,-4.247,-4.247,-4.1175,-4.1145,-4.2396,-4.1737,-4.1055,-4.0472,-4.0472,-4.0113,-3.9448,-3.9448,-3.9433,-3.9388,-3.9433,-3.9448,-3.9448,-3.9448,-3.9448,-3.9484,-3.9439,-3.9798,-4.0247,0.0,0.0,0.0,0.0,0.0,0.0,0.0,0.0,0.0,0.0,0.0,0.0,0.0,0.0,0.0,0.0,0.0,0.0,0.0,-4.2151,-4.3064,-4.3826,-4.5043,-4.5838,-4.6109,-4.775,-4.8803,-4.921,-5.0074,-5.1254,-5.2609,-5.0644,-4.8357,-4.5877,-4.4058,-4.1837,-3.9455,-3.8697,-3.8497,-3.8616,-3.8197,-3.7644,0.0,0.0,0.0,0.0,0.0,0.0,0.0,0.0,-3.5504,-3.5504,-3.5504,-3.5504,-3.5504,-3.5504,-3.5504,-3.5504,-3.5504,-3.6163,-3.6716,-3.6237,-3.6297,0.0,0.0,-3.8571,-3.8661,-3.9604,-4.0771,0.0,0.0,0.0,0.0,0.0,0.0,0.0,0.0,0.0,0.0,0.0,0.0,0.0,0.0,0.0,0.0,0.0,0.0,0.0,0.0,0.0,0.0,-4.2731,-4.2087,-4.1796,-4.1796,-4.0846,-4.0651,-4.113,-4.0472,-4.0023,-3.9783,-3.9783,-3.9649,-3.9388,-3.9388,-3.9388,-3.9388,-3.9388,-3.9388,-3.9388,-3.9388,-3.9388,-3.9433,-3.9873,-4.0187,-4.0427,0.0,0.0,0.0,0.0,0.0,0.0,0.0,0.0,0.0,0.0,0.0,0.0,0.0,0.0,0.0,0.0,0.0,0.0,-4.0815,-4.1542,-4.2286,-4.3031,-4.4299,-4.5081,-4.5287,-4.6764,-4.7807,-4.8347,-4.8848,-4.9598,-5.0474,-4.8471,-4.6717,-4.5157,-4.3424,-4.1678,-3.9993,-3.932,-3.917,-3.9379,-3.8901,-3.8317,0.0,0.0,0.0,0.0,0.0,0.0,0.0,0.0,-3.5504,-3.5504,-3.5504,-3.5504,-3.5504,-3.5504,-3.5504,-3.5504,-3.5504,-3.5833,-3.6096,-3.58,0.0,0.0,-3.8506,-3.9124,-3.9649,-4.0741,-4.1713,0.0,0.0,0.0,0.0,0.0,0.0,0.0,0.0,0.0,0.0,0.0,0.0,0.0,0.0,0.0,0.0,0.0,0.0,0.0,0.0,0.0,0.0,0.0,-4.1414,-4.107,-4.107,-4.0427,-4.0083,-4.0083,-3.9409,-3.9215,-3.9388,-3.9388,-3.9388,-3.9388,-3.9388,-3.9388,-3.9388,-3.9388,-3.9388,-3.9388,-3.9388,-3.9544,-3.9783,-4.0232,-4.0666,-4.1055,0.0,0.0,0.0,0.0,0.0,0.0,0.0,0.0,0.0,0.0,0.0,0.0,0.0,0.0,0.0,0.0,0.0,0.0,-4.0096,-4.0781,-4.1525,-4.2252,-4.3014,-4.3714,-4.4372,-4.4391,-4.5415,-4.7589,-4.8104,-4.8347,-4.8311,-4.6655,-4.5865,-4.5764,-4.3455,-4.2036,-4.1324,-4.0666,-4.0023,-3.9388,-3.9388,-3.9005,-3.8317,0.0,0.0,0.0,0.0,0.0,0.0,0.0,-3.5504,-3.5504,-3.5504,-3.5504,-3.5504,-3.5504,-3.5504,-3.5504,-3.5504,-3.5472,-3.5261,0.0,0.0,0.0,-3.9334,-4.0698,-4.1938,-4.3873,0.0,0.0,0.0,0.0,0.0,0.0,0.0,0.0,0.0,0.0,0.0,0.0,0.0,0.0,0.0,0.0,0.0,0.0,0.0,0.0,0.0,0.0,0.0,0.0,-4.0726,-4.0382,-4.0382,-3.9753,-3.9388,-3.9394,-3.8721,-3.8751,-3.9388,-3.9373,-3.9373,-3.9388,-3.9388,-3.9388,-3.9388,-3.9388,-3.9388,-3.9388,-3.9388,-3.9813,-4.0382,-4.0397,-4.1235,-4.2306,0.0,0.0,0.0,0.0,0.0,0.0,0.0,0.0,0.0,0.0,0.0,0.0,0.0,0.0,0.0,0.0,0.0,0.0,-4.0096,-4.0781,-4.1305,-4.1525,-4.2743,-4.3227,-4.2858,-4.2606,-4.3513,-4.5649,-4.4666,-4.4879,-4.6217,-4.5217,-4.431,-4.3417,-4.3157,-4.1908,-4.0023,-4.0292,-4.0023,-3.9388,-3.9388,-3.9005,-3.8362,0.0,0.0,0.0,0.0,0.0,0.0,0.0,0.0,0.0,-3.5504,-3.5504,-3.5504,-3.5504,-3.5504,-3.5359,-3.4658,-3.4797,0.0,-3.3853,0.0,0.0,0.0,-3.9107,0.0,0.0,0.0,0.0,0.0,0.0,0.0,0.0,0.0,0.0,0.0,0.0,0.0,0.0,0.0,0.0,0.0,0.0,0.0,0.0,0.0,0.0,0.0,0.0,0.0,0.0,-4.0053,-3.9709,-3.9709,-3.9514,-3.917,-3.8691,-3.8497,-3.8751,-3.9373,-3.8916,-3.896,-3.9388,-3.9388,-3.9388,-3.9388,-3.9388,-3.9388,-3.9388,-3.9388,-3.9508,-3.9768,-4.0232,-4.0935,-4.1677,0.0,0.0,0.0,0.0,0.0,0.0,0.0,0.0,0.0,0.0,0.0,0.0,0.0,0.0,0.0,0.0,0.0,0.0,0.0,-4.0536,-4.0882,-4.1187,-4.1722,-4.1737,-4.119,-4.0938,-4.1408,-4.2668,-4.2236,-4.262,-4.3733,-4.3868,-4.3509,-4.2776,-4.3434,-4.2551,-4.0576,-4.0442,-4.0023,-3.9388,-3.9388,-3.917,-3.8796,0.0,0.0,0.0,0.0,0.0,0.0,0.0,0.0,0.0,-3.5504,-3.5504,-3.5504,-3.5504,-3.5213,-3.4872,-3.4658,-3.4349,0.0,-3.379,-3.4383,-3.5332,-3.6793,0.0,0.0,0.0,0.0,0.0,0.0,0.0,0.0,0.0,0.0,0.0,0.0,0.0,0.0,0.0,0.0,0.0,0.0,0.0,0.0,0.0,0.0,0.0,0.0,0.0,0.0,0.0,-3.8826,-3.8616,-3.8616,-3.8616,-3.8407,-3.8003,-3.7749,-3.7973,-3.8601,-3.8197,-3.8227,-3.8631,-3.8901,-3.9005,-3.9035,-3.9305,-3.9388,-3.9337,-3.8943,-3.8944,-3.9172,-3.9162,-3.9533,-4.0124,0.0,0.0,0.0,0.0,0.0,0.0,0.0,0.0,0.0,0.0,0.0,0.0,0.0,0.0,0.0,0.0,0.0,0.0,0.0,0.0,-4.0417,-4.1068,-4.0387,-3.9935,-3.988,-3.9627,-3.9448,-3.9388,-4.0546,-4.1175,-4.1324,-4.2566,-4.3125,-4.314,-4.3913,-4.3434,-4.2051,-4.0816,-3.9903,-3.9209,-3.9209,-3.9209,-3.9209,-3.9209,0.0,0.0,0.0,0.0,0.0,0.0,0.0,0.0,-3.5504,-3.5504,-3.5504,-3.5504,-3.4791,-3.4177,-3.5019,0.0,0.0,-3.3847,-3.4353,0.0,0.0,0.0,0.0,0.0,0.0,0.0,0.0,0.0,0.0,0.0,0.0,0.0,0.0,0.0,0.0,0.0,0.0,0.0,0.0,0.0,0.0,0.0,0.0,0.0,0.0,0.0,0.0,-3.7434,-3.7336,-3.7302,-3.7404,-3.7336,-3.7306,-3.7315,-3.6746,-3.6712,-3.7088,-3.7251,-3.736,-3.7434,-3.7963,-3.8182,-3.8242,-3.8805,-3.9052,-3.8942,-3.8003,-3.8021,-3.8445,-3.747,-3.7522,-3.809,0.0,0.0,0.0,0.0,0.0,0.0,0.0,0.0,0.0,0.0,0.0,0.0,0.0,0.0,0.0,0.0,0.0,0.0,0.0,0.0,-4.018,-4.0333,-4.0467,-4.0991,-4.2019,-4.0813,-3.9933,-3.9388,-3.9155,-3.9574,-4.0621,-4.1429,-4.1803,-4.1848,-4.3015,-4.2198,-4.0038,-3.9753,-3.8931,-3.7838,-3.7838,-3.7838,-3.7838,-3.7838,-3.736,0.0,0.0,0.0,0.0,0.0,0.0,0.0,-3.5504,-3.5504,-3.5504,-3.5504,-3.4791,-3.3891,-3.3359,-3.27,0.0,0.0,-3.3984,0.0,0.0,0.0,0.0,0.0,0.0,0.0,0.0,0.0,0.0,0.0,0.0,0.0,0.0,0.0,0.0,0.0,0.0,0.0,0.0,0.0,0.0,0.0,0.0,0.0,0.0,0.0,0.0,-3.7404,-3.6687,-3.6652,-3.737,-3.6652,-3.6417,0.0,-3.6552,-3.587,-3.4767,-3.61,-3.6941,-3.7385,-3.6764,-3.6524,-3.6496,-3.6324,-3.624,-3.6282,-3.6462,-3.6649,-3.6721,-3.6484,-3.6846,-3.7356,0.0,0.0,0.0,0.0,0.0,0.0,0.0,0.0,0.0,0.0,0.0,0.0,0.0,0.0,0.0,0.0,0.0,0.0,0.0,0.0,-4.005,-3.9973,-4.0508,-4.0745,-4.0629,-3.9841,-3.8975,-3.8018,-3.7659,-3.8153,-3.9469,-4.0771,-4.1205,-4.0965,-4.2282,-4.1579,-3.9394,-3.9065,-3.8332,-3.7404,-3.7404,-3.7404,-3.7449,-3.7764,-3.73,-3.6492,-3.6492,0.0,0.0,0.0,0.0,0.0,0.0,0.0,-3.4758,-3.4758,-3.3788,-3.2629,-3.2593,0.0,0.0,-3.234,0.0,0.0,0.0,0.0,0.0,0.0,0.0,0.0,0.0,0.0,0.0,0.0,0.0,0.0,0.0,0.0,0.0,0.0,0.0,0.0,0.0,0.0,0.0,0.0,0.0,0.0,0.0,-3.5483,-3.5429,-3.5125,-3.464,-3.4605,-3.5111,-3.464,-3.4448,-3.4614,-3.4614,-3.4186,-3.3359,-3.4235,-3.4822,-3.5091,-3.4918,-3.4866,-3.4872,-3.4952,-3.5169,-3.5383,-3.515,-3.5074,-3.5021,-3.4805,-3.4733,-3.48,0.0,0.0,0.0,0.0,0.0,0.0,0.0,0.0,0.0,0.0,0.0,0.0,0.0,0.0,0.0,0.0,0.0,0.0,0.0,0.0,0.0,-3.9807,-4.026,-3.9918,-3.8592,-3.8452,-3.7823,-3.6656,-3.6656,-3.724,-3.8422,-4.0083,-4.0696,-4.0442,-4.1452,-4.0876,-3.9185,-3.8392,-3.7689,-3.7075,-3.7075,-3.7075,-3.7135,-3.7689,-3.724,-3.6312,-3.6312,-3.5968,-3.5504,-3.5504,0.0,0.0,0.0,0.0,-3.3993,-3.3993,-3.2664,-3.1352,-3.2141,0.0,-3.067,-3.2646,0.0,0.0,0.0,0.0,0.0,0.0,0.0,0.0,0.0,0.0,0.0,0.0,0.0,0.0,0.0,0.0,0.0,0.0,0.0,0.0,0.0,0.0,0.0,0.0,0.0,0.0,-3.3349,-3.3394,-3.319,-3.2621,-3.2464,-3.2464,-3.2593,-3.2464,-3.2464,-3.2593,-3.2464,-3.2357,-3.2357,-3.2177,-3.2285,-3.2621,-3.3023,-3.3193,-3.3212,-3.3694,-3.4178,-3.4473,-3.3701,-3.338,-3.3325,-3.2958,-3.2541,-3.2277,0.0,0.0,0.0,0.0,0.0,0.0,0.0,0.0,0.0,0.0,0.0,0.0,0.0,0.0,0.0,0.0,0.0,0.0,0.0,0.0,0.0,-3.9793,-3.9235,-3.9023,-3.926,-3.8691,-3.8018,-3.7285,-3.7285,-3.7659,-3.8392,-3.8661,-3.9364,-4.0382,-3.9993,-3.9334,-3.8452,-3.7255,-3.6357,-3.5759,-3.5759,-3.5759,-3.5774,-3.5848,-3.5789,-3.5639,-3.5639,-3.5579,-3.5504,-3.5504,-3.5504,0.0,0.0,0.0,-3.3993,-3.3993,-3.2664,-3.1217,0.0,0.0,-3.2089,0.0,0.0,0.0,0.0,0.0,0.0,0.0,0.0,0.0,0.0,0.0,0.0,0.0,0.0,0.0,0.0,0.0,0.0,0.0,0.0,0.0,0.0,0.0,0.0,0.0,0.0,0.0,-3.2201,-3.2536,-3.2676,-3.2593,-3.1815,-3.1779,-3.2593,-3.1779,-3.1815,-3.2593,-3.1779,-3.1389,-3.1352,-3.0533,-3.1057,-3.2571,-3.1823,-3.1508,-3.1487,-3.1255,-3.1183,-3.1285,-3.1582,-3.1731,-3.1703,-3.1669,-3.1863,-3.2227,0.0,0.0,0.0,0.0,0.0,0.0,0.0,0.0,0.0,0.0,0.0,0.0,0.0,0.0,0.0,-4.0096,0.0,0.0,0.0,0.0,0.0,-3.9218,-3.8466,-3.7958,-3.7798,-3.7479,-3.7,-3.6342,-3.6342,-3.6851,-3.7853,-3.8212,-3.9305,-4.092,-4.0262,-3.9589,-3.8871,-3.7569,-3.6641,-3.6028,-3.5654,-3.5504,-3.5504,-3.5504,-3.5504,-3.5504,-3.5504,-3.5504,-3.5504,-3.5504,-3.5504,-3.5504,-3.5504,0.0,0.0,0.0,-3.1658,0.0,-2.9918,-3.038,-3.106,0.0,0.0,0.0,0.0,0.0,0.0,0.0,0.0,0.0,0.0,0.0,0.0,0.0,0.0,0.0,0.0,0.0,0.0,0.0,0.0,0.0,0.0,0.0,0.0,0.0,0.0,-3.0522,-3.0727,-3.0952,-3.102,-3.102,-3.0633,-3.0595,-3.1033,-3.0633,-3.0633,-3.1033,-3.0595,-3.0419,-3.0381,-3.0011,-3.0254,-3.1033,-3.0595,-3.0419,-3.0406,-3.0225,-3.0331,-3.0633,-3.0871,-3.0959,-3.0997,-3.1286,-3.1549,-3.1788,0.0,0.0,0.0,0.0,0.0,0.0,0.0,0.0,0.0,0.0,0.0,0.0,0.0,0.0,0.0,0.0,-4.0096,0.0,0.0,0.0,0.0,-3.8544,-3.7608,-3.6801,-3.6271,-3.6237,-3.5998,-3.5504,-3.5504,-3.6252,-3.7674,-3.8167,-3.9454,-4.1392,-4.0876,-4.0098,-3.9095,-3.8078,-3.73,-3.6656,-3.5833,-3.5504,-3.5504,-3.5504,-3.5504,-3.5504,-3.5504,-3.5504,0.0,0.0,0.0,0.0,0.0,0.0,0.0,0.0,0.0,0.0,0.0,0.0,0.0,0.0,0.0,0.0,0.0,0.0,0.0,0.0,0.0,0.0,0.0,0.0,0.0,0.0,0.0,0.0,0.0,0.0,0.0,0.0,0.0,0.0,0.0,0.0,0.0,0.0,0.0,-2.9792,-2.9792,-2.9792,-2.9792,-2.9792,-2.9792,-2.9792,-2.9792,-2.9792,-2.9792,-2.9792,-2.9792,-2.9792,-2.9792,-2.9792,-2.9792,-2.9792,-2.9792,-2.9792,-2.9792,-2.9792,-3.003,-3.0407,-3.0407,-3.0407,-3.0457,-3.0846,-3.116,-3.1449,0.0,0.0,0.0,0.0,0.0,0.0,0.0,0.0,0.0,0.0,0.0,0.0,-4.0096,-4.0096,-4.0096,-4.0096,-4.0096,-4.0096,-4.0096,-3.8695,0.0,-3.7841,-3.6429,0.0,-3.5549,-3.5549,-3.5534,-3.5504,-3.5504,-3.6477,-3.8347,-3.8377,-3.9454,-4.1422,-4.1339,-4.0262,-3.8437,-3.8362,-3.7958,-3.7255,-3.6013,-3.5504,-3.5504,-3.5504,-3.5504,-3.5504,-3.5504,0.0,0.0,0.0,0.0,0.0,0.0,0.0,0.0,0.0,0.0,0.0,0.0,0.0,0.0,0.0,0.0,0.0,0.0,0.0,0.0,0.0,0.0,0.0,0.0,0.0,0.0,0.0,0.0,0.0,0.0,0.0,0.0,0.0,0.0,0.0,0.0,0.0,0.0,0.0,0.0,-2.9792,-2.9792,-2.9792,-2.9792,-2.9792,-2.9792,-2.9792,-2.9792,-2.9792,-2.9792,-2.9792,-2.9792,-2.9792,-2.9792,-2.9792,-2.9792,-2.9792,-2.9792,-2.9792,-2.9792,-2.9792,-2.9817,-2.9829,-2.9829,-2.9829,-2.9842,-2.9867,-3.052,-3.1386,0.0,0.0,0.0,0.0,0.0,0.0,0.0,0.0,0.0,0.0,0.0,0.0,0.0,-4.0096,-4.0096,-4.0096,-4.0096,-3.9876,-3.9368,-3.8374,0.0,-3.7054,-3.6053,-3.5504,-3.5504,-3.5504,-3.5504,-3.5504,-3.5504,-3.6073,-3.718,-3.7584,-3.7928,-3.8317,-3.9993,-4.0113,-3.899,-3.8123,-3.7404,0.0,-3.5863,-3.5504,-3.5504,-3.5504,0.0,0.0,0.0,0.0,0.0,0.0,0.0,0.0,0.0,0.0,0.0,0.0,0.0,0.0,0.0,0.0,0.0,0.0,0.0,0.0,0.0,0.0,0.0,0.0,0.0,0.0,0.0,0.0,0.0,0.0,0.0,0.0,0.0,0.0,0.0,0.0,0.0,0.0,0.0,0.0,0.0,0.0,0.0,0.0,-2.9792,-2.9792,-2.9792,-2.9792,-2.9792,-2.9792,-2.9792,-2.9792,-2.9792,-2.9792,-2.9792,-2.9792,-2.9792,-2.9792,-2.9792,-2.9792,-2.9792,-2.9792,-2.9792,-2.9792,-2.9792,-2.9792,-2.9792,-2.9792,-2.9792,-2.9792,-3.0256,-3.0896,0.0,0.0,0.0,0.0,0.0,0.0,0.0,0.0,0.0,-4.0096,0.0,0.0,0.0,0.0,-4.0096,-4.0096,-3.9833,-3.9463,-3.8935,-3.7962,-3.716,-3.66,-3.5894,-3.5504,-3.5504,-3.5504,-3.5504,-3.5504,-3.5504,-3.5833,-3.6492,-3.6911,-3.6985,-3.6866,-3.8616,-3.9155,-3.8706,0.0,0.0,-3.703,0.0,0.0,-3.6133,0.0,0.0,0.0,0.0,0.0,0.0,0.0,0.0,0.0,0.0,0.0,0.0,0.0,0.0,0.0,-2.7934,0.0,0.0,0.0,0.0,0.0,0.0,0.0,0.0,0.0,0.0,0.0,0.0,0.0,0.0,0.0,0.0,0.0,0.0,0.0,0.0,0.0,0.0,0.0,0.0,0.0,0.0,0.0,0.0,0.0,-2.9792,-2.9792,-2.9792,-2.9792,-2.9792,-2.9792,-2.9792,-2.9792,-2.9792,-2.9792,-2.9792,-2.9792,-2.9792,-2.9792,-2.9792,-2.9792,-2.9792,-2.9792,-2.9792,-2.9792,-2.9792,-2.9792,-2.9792,-2.9792,-2.9792,-2.9792,-3.0143,-3.0645,0.0,0.0,0.0,0.0,0.0,0.0,0.0,0.0,-4.0096,-4.0096,0.0,0.0,0.0,0.0,0.0,-4.007,-3.9332,-3.887,-3.8827,-3.7438,-3.6584,-3.6584,0.0,0.0,-3.5504,-3.5504,-3.5504,-3.5504,-3.5504,-3.5833,-3.6462,-3.6462,-3.6776,-3.7345,-3.7375,-3.7375,-3.7434,0.0,-3.8945,-3.8167,0.0,-3.6252,-3.7315,0.0,0.0,0.0,-3.6638,-3.6462,0.0,-3.5681,0.0,0.0,0.0,0.0,0.0,0.0,0.0,0.0,0.0,0.0,0.0,0.0,0.0,0.0,0.0,0.0,0.0,0.0,0.0,0.0,0.0,0.0,0.0,0.0,0.0,0.0,0.0,0.0,0.0,0.0,0.0,0.0,0.0,0.0,0.0,0.0,0.0,-2.9792,-2.9792,-2.9792,-2.9792,-2.9792,-2.9792,-2.9792,-2.9792,-2.9792,-2.9792,-2.9792,-2.9792,-2.9792,-2.9792,-2.9792,-2.9792,-2.9792,-2.9792,-2.9792,-2.9753,-2.9792,-2.9792,-2.9792,-2.9792,-2.9792,-2.9753,-2.9753,-3.0052,-3.0538,0.0,0.0,0.0,0.0,0.0,0.0,-4.0096,-4.0096,-4.0096,0.0,0.0,0.0,-4.0096,-4.0027,-3.9773,-3.9269,-3.897,-3.8376,-3.7308,-3.6843,-3.6353,-3.5831,-3.5619,-3.5504,-3.5504,-3.5504,-3.5504,-3.5504,-3.5504,-3.5594,-3.5774,-3.5774,-3.5863,-3.6058,-3.6522,-3.6477,-3.6088,-3.6941,0.0,-3.6926,-3.5908,-3.5998,0.0,0.0,0.0,0.0,0.0,-3.5137,-3.563,0.0,-3.5033,-3.5511,0.0,0.0,0.0,0.0,0.0,0.0,-2.8097,0.0,0.0,0.0,0.0,0.0,0.0,0.0,0.0,0.0,0.0,0.0,0.0,0.0,0.0,0.0,0.0,0.0,0.0,0.0,0.0,0.0,0.0,0.0,0.0,0.0,0.0,0.0,-2.9792,-2.9792,-2.9792,-2.9792,-2.9792,-2.9792,-2.9792,-2.9792,-2.9792,-2.9792,-2.9792,-2.9792,-2.9792,-2.9792,-2.9792,-2.9792,-2.9792,-2.9792,-2.9792,-2.9326,-2.8636,-2.9456,-2.9792,-2.9792,-2.9792,-2.9287,-2.8557,-2.8557,-2.8163,-2.7656,0.0,0.0,0.0,0.0,0.0,-4.0057,-4.0096,-4.0034,-4.004,0.0,0.0,0.0,-4.0132,-3.9972,-3.9576,-3.8918,-3.8517,-3.7917,-3.708,-3.6459,-3.5943,-3.5537,-3.5504,-3.5504,-3.5504,-3.5504,-3.5504,-3.5504,-3.5504,-3.5504,-3.5504,-3.5504,-3.5504,-3.5519,0.0,0.0,0.0,0.0,0.0,0.0,-3.5318,0.0,0.0,-3.5117,-3.5112,0.0,0.0,0.0,-3.5993,-3.4063,-3.3944,0.0,0.0,0.0,0.0,0.0,0.0,0.0,0.0,0.0,0.0,0.0,0.0,0.0,-2.8185,-2.8109,0.0,0.0,0.0,0.0,0.0,0.0,0.0,0.0,0.0,0.0,0.0,0.0,0.0,0.0,0.0,0.0,0.0,0.0,0.0,-2.9792,-2.9792,-2.9792,-2.9792,-2.9792,-2.9792,-2.9792,-2.9792,-2.9792,-2.9792,-2.9792,-2.9792,-2.9792,-2.9792,-2.9792,-2.9792,-2.9792,-2.9534,-2.9106,-2.9106,-2.8438,-2.7493,-2.8171,-2.8422,-2.8422,-2.8422,-2.8039,-2.7441,-2.7441,-2.7046,-2.6547,0.0,0.0,-3.9969,-3.9969,-3.986,-3.9776,-3.9848,-3.9796,-3.9787,0.0,-4.0481,-4.0712,-4.0143,-3.9898,-3.9497,-3.8828,-3.8044,-3.7557,-3.748,-3.6241,-3.5504,-3.5504,-3.5504,-3.5504,-3.5504,-3.5504,-3.5504,-3.5504,-3.5504,-3.5424,-3.5359,-3.5439,-3.5392,-3.518,0.0,0.0,0.0,0.0,0.0,-3.5948,-3.4545,-3.4767,0.0,0.0,-3.4395,-3.5432,-3.3879,-3.4854,-3.6423,-3.3656,-3.2367,0.0,0.0,0.0,0.0,0.0,-2.8624,0.0,0.0,0.0,0.0,0.0,0.0,0.0,-2.8001,-2.7828,-2.7543,0.0,0.0,0.0,0.0,0.0,0.0,0.0,0.0,0.0,0.0,0.0,0.0,0.0,0.0,0.0,0.0,-2.9702,-2.9624,-2.9624,-2.9495,-2.9417,-2.9417,-2.9546,-2.9624,-2.9624,-2.974,-2.9792,-2.9792,-2.9663,-2.9624,-2.9624,-2.9495,-2.9417,-2.9417,-2.9417,-2.8858,-2.7924,-2.7924,-2.7319,-2.6307,-2.6307,-2.6389,-2.6524,-2.6524,-2.6431,-2.6307,-2.6307,-2.6224,-2.6207,0.0,0.0,-3.9139,-3.9139,-3.9072,-3.884,-3.8319,-3.8689,-3.884,-3.8303,-3.8849,-3.9424,-3.9826,-3.974,-3.9382,-3.8697,-3.7903,-3.7221,-3.6758,-3.5947,-3.5504,-3.5504,-3.5504,-3.5504,-3.5504,-3.5504,-3.5504,-3.5504,-3.5504,-3.51,-3.4312,-3.5133,-3.4673,-3.322,-3.4806,0.0,0.0,0.0,0.0,-3.3389,-3.3831,0.0,-3.5008,-3.3401,-3.2999,-3.3118,-3.2067,-3.2459,-3.3529,0.0,-3.2508,-3.1391,0.0,0.0,0.0,0.0,0.0,0.0,0.0,0.0,0.0,0.0,0.0,0.0,-2.7438,-2.6162,-2.502,0.0,0.0,0.0,0.0,0.0,0.0,0.0,0.0,0.0,0.0,0.0,0.0,0.0,0.0,0.0,0.0,-2.8976,-2.8426,-2.8426,-2.7626,-2.7139,-2.7139,-2.7947,-2.8426,-2.8426,-2.9326,-2.9792,-2.9792,-2.8897,-2.8426,-2.8426,-2.7545,-2.7139,-2.7139,-2.7139,-2.7017,-2.6801,-2.6801,-2.6171,-2.5126,-2.5126,-2.5672,-2.6524,-2.6524,-2.5922,-2.5126,-2.5126,-2.4553,-2.3777,0.0,-3.8624,-3.8358,-3.8358,-3.8278,-3.8098,-3.7831,-3.8013,-3.8208,-3.8294,-3.8821,-3.933,-3.9707,-3.9606,-3.9093,-3.8108,-3.7929,-3.7494,-3.6552,-3.6178,-3.5848,-3.5519,-3.5504,-3.5504,-3.5504,-3.5504,-3.5504,-3.5504,-3.4986,-3.4495,-3.3993,-3.4041,-3.3547,-3.2629,-3.3616,0.0,0.0,0.0,-3.3031,-3.2593,-3.2593,0.0,-3.2985,-3.1693,-3.1513,-3.1792,-3.0833,-3.0809,-3.136,-3.2529,-3.2018,0.0,0.0,-3.0636,-3.0093,0.0,-2.9566,-2.9729,0.0,0.0,0.0,-2.9792,0.0,0.0,0.0,-2.585,-2.4575,0.0,0.0,0.0,0.0,0.0,0.0,0.0,0.0,0.0,0.0,0.0,0.0,0.0,0.0,0.0,0.0,-2.728,-2.7042,-2.7267,-2.6801,-2.6524,-2.6524,-2.7005,-2.7279,-2.7279,-2.7879,-2.8131,-2.8131,-2.7585,-2.7279,-2.7279,-2.676,-2.6524,-2.6524,-2.6524,-2.6182,-2.563,-2.563,-2.501,-2.3963,-2.3963,-2.4307,-2.4808,-2.4808,-2.4467,-2.3963,-2.3963,-2.3594,-2.3091,-3.7719,0.0,-3.7573,-3.7573,-3.7467,-3.7374,-3.7375,-3.7359,-3.7653,-3.8432,-3.9021,-3.9505,-3.9819,-3.9708,-3.9275,-3.8437,-3.8257,-3.7928,-3.7285,-3.6656,-3.6118,-3.5714,-3.5579,-3.5504,-3.5504,-3.5504,-3.5407,-3.5213,-3.4394,-3.3808,-3.3449,-3.289,-3.2429,-3.2083,-3.2429,0.0,0.0,0.0,0.0,-3.2136,0.0,-3.1044,-3.1106,-3.0139,-3.0279,-3.0833,-3.0075,-2.9792,-3.0009,-3.1292,0.0,-3.0382,-2.993,-3.0093,0.0,0.0,0.0,0.0,0.0,0.0,0.0,0.0,0.0,-2.714,0.0,0.0,0.0,-2.4458,0.0,0.0,0.0,0.0,0.0,0.0,0.0,0.0,0.0,0.0,0.0,0.0,0.0,0.0,0.0,-2.5612,-2.5691,-2.6149,-2.5975,-2.585,-2.585,-2.6058,-2.6182,-2.6182,-2.6389,-2.6524,-2.6524,-2.6265,-2.6182,-2.6182,-2.5933,-2.585,-2.585,-2.585,-2.5347,-2.4457,-2.4457,-2.3963,-2.3091,-2.3091,-2.3091,-2.3091,-2.3091,-2.3091,-2.3091,-2.3091,-2.3091,-2.3091,-3.7531,-3.7219,0.0,-3.6737,-3.6667,-3.6436,-3.5838,-3.6273,-3.6857,-3.7481,-3.8136,-3.8983,0.0,0.0,0.0,0.0,0.0,0.0,-3.9858,0.0,-3.5848,-3.6357,-3.5818,-3.5504,-3.5504,-3.5504,-3.5067,-3.4177,-3.4061,-3.3136,-3.1536,-3.2249,-3.1719,-3.0177,-3.1865,0.0,0.0,0.0,-3.1158,0.0,-3.02,-3.0457,0.0,-3.0139,-2.9869,-2.9934,-2.983,-2.9792,-2.9843,0.0,-2.9996,-2.988,0.0,-2.9829,0.0,0.0,0.0,0.0,0.0,0.0,0.0,0.0,-2.8164,0.0,0.0,0.0,-2.2869,-2.3203,0.0,0.0,0.0,0.0,0.0,0.0,0.0,0.0,0.0,0.0,0.0,0.0,0.0,0.0,0.0,0.0,-2.4543,-2.4967,-2.4049,-2.3474,-2.3474,-2.4414,-2.4999,-2.4999,-2.5964,-2.6524,-2.6524,-2.5504,-2.4999,-2.4999,-2.3973,-2.3474,-2.3474,-2.3474,-2.343,-2.3299,-2.3299,-2.3222,-2.3091,-2.3091,-2.3091,-2.3091,-2.3091,-2.3091,-2.3091,-2.3091,-2.3091,-2.3091,-3.6352,-3.618,0.0,0.0,-3.5926,-3.5818,-3.5549,-3.6686,-3.7539,-3.7419,-3.8661,0.0,0.0,0.0,0.0,0.0,0.0,-3.9574,0.0,0.0,0.0,0.0,0.0,0.0,-3.6073,-3.5145,-3.4428,-3.3993,-3.2925,-3.196,-3.1217,-3.1057,-3.057,-2.983,-3.0608,0.0,-3.0157,0.0,-3.0279,0.0,0.0,0.0,0.0,-2.9934,-2.9792,-2.9792,-2.9792,-2.9792,-2.9792,0.0,-2.9792,0.0,0.0,0.0,0.0,0.0,0.0,0.0,0.0,0.0,0.0,0.0,0.0,0.0,0.0,0.0,-2.2886,0.0,0.0,0.0,0.0,0.0,0.0,0.0,0.0,0.0,0.0,0.0,0.0,0.0,0.0,0.0,0.0,0.0,0.0,0.0,0.0,-2.2984,-2.274,-2.3421,-2.38,-2.38,-2.4264,-2.452,-2.452,-2.4049,-2.38,-2.38,-2.3343,-2.3091,-2.3091,-2.3091,-2.3091,-2.3091,-2.3091,-2.3091,-2.3091,-2.3091,-2.3091,-2.3091,-2.3091,-2.3091,-2.3091,-2.3091,-2.3091,-2.3091,-3.5504,0.0,0.0,0.0,0.0,-3.5564,-3.5744,-3.6971,-3.7823,-3.7689,0.0,0.0,-4.1294,-4.1572,0.0,0.0,-4.1788,-4.0846,0.0,0.0,-3.7898,0.0,0.0,0.0,0.0,0.0,-3.3619,-3.3241,-3.1852,-3.1161,-3.103,-3.0177,-2.988,-3.0018,0.0,-2.988,-3.0005,0.0,0.0,-3.0005,-2.9854,-2.9792,-2.9792,-2.9792,-2.9792,-2.9792,-2.9792,-2.9792,-2.9792,-2.9792,-2.9792,0.0,-2.9792,0.0,0.0,0.0,0.0,0.0,-2.9792,0.0,0.0,0.0,0.0,0.0,0.0,0.0,0.0,0.0,0.0,0.0,0.0,0.0,0.0,0.0,0.0,0.0,0.0,0.0,0.0,0.0,0.0,0.0,0.0,0.0,0.0,-2.208,-2.2627,-2.2789,-2.2529,-2.276,-2.2974,-2.3091,-2.3091,-2.3091,-2.3091,-2.3091,-2.3091,-2.3091,-2.3091,-2.3091,-2.3091,-2.3091,-2.3091,-2.3091,-2.3091,-2.3091,-2.3091,-2.3091,-2.3091,-2.3091,-2.3091,-2.3091,-2.3091,-2.3091,-2.3091,-2.3091,-3.5504,-3.5504,0.0,0.0,0.0,-3.5729,-3.6357,-3.6507,-3.6985,0.0,0.0,0.0,0.0,0.0,0.0,0.0,0.0,-4.1662,-4.2231,0.0,-3.7395,0.0,0.0,-3.4932,0.0,0.0,0.0,-3.1278,-3.1217,-3.1006,-3.061,-3.0043,-3.008,-3.057,-3.003,-3.0093,-3.0557,-3.0018,-3.0093,-3.0545,-3.0005,-2.9792,-2.9792,0.0,-2.9792,-2.9792,-2.9792,0.0,0.0,-2.9792,-2.9792,0.0,0.0,0.0,0.0,0.0,0.0,0.0,0.0,0.0,0.0,-2.8386,0.0,0.0,0.0,0.0,-2.3091,0.0,0.0,0.0,0.0,0.0,0.0,0.0,0.0,0.0,0.0,0.0,0.0,0.0,0.0,0.0,0.0,0.0,0.0,-2.249,-2.2519,-2.2519,-2.251,-2.2519,-2.2715,-2.3081,-2.3091,-2.3091,-2.3091,-2.3091,-2.3091,-2.3091,-2.3091,-2.3091,-2.3091,-2.3091,-2.3091,-2.3091,-2.3091,-2.3091,-2.3091,-2.3091,-2.3091,-2.3091,-2.3091,-2.3091,-2.3091,-2.3091,-2.3091,-2.3091,0.0,0.0,0.0,0.0,0.0,-3.5729,-3.6387,-3.7584,0.0,0.0,0.0,0.0,0.0,-4.5499,-4.5903,0.0,0.0,-4.3868,-4.1986,-4.0621,0.0,0.0,0.0,-3.5892,0.0,0.0,0.0,0.0,0.0,-3.0571,-3.0068,-2.988,-2.9892,-3.0068,0.0,-2.9892,0.0,0.0,0.0,0.0,0.0,-2.9792,-2.9792,0.0,0.0,-2.9792,-2.9792,-2.9792,0.0,-2.9792,-2.9792,-2.9792,-2.9792,-2.9792,-2.9792,-2.9792,-2.9792,0.0,0.0,0.0,-2.8227,-2.6397,0.0,0.0,0.0,0.0,0.0,0.0,0.0,0.0,0.0,0.0,0.0,0.0,0.0,0.0,0.0,0.0,0.0,0.0,0.0,0.0,0.0,0.0,0.0,-2.1648,-2.1934,-2.1973,-2.1639,-2.2207,-2.2578,-2.2715,-2.2955,-2.3091,-2.3091,-2.3091,-2.3091,-2.3091,-2.3091,-2.3091,-2.3091,-2.3091,-2.3091,-2.3091,-2.3091,-2.3091,-2.3091,-2.3091,-2.3091,-2.3091,-2.3091,-2.3091,-2.3091,-2.3091,-2.3091,-2.3091,-3.5504,0.0,0.0,0.0,0.0,0.0,0.0,0.0,0.0,0.0,-4.309,0.0,-4.6396,0.0,-4.6763,0.0,-4.5871,-4.4281,-4.1142,-4.0519,0.0,-3.6307,-3.6306,0.0,0.0,0.0,0.0,0.0,0.0,-3.062,-3.008,-2.988,-2.9892,-3.008,0.0,-2.9792,-2.9792,0.0,-2.9792,0.0,0.0,-2.9792,0.0,0.0,-2.9792,-2.9792,0.0,-2.9792,-2.9792,-2.9792,-2.9792,-2.9792,-2.9792,-2.9792,-2.9792,-2.9792,-2.9792,-2.9534,-2.8426,-2.8096,0.0,-2.5368,-2.4787,0.0,-2.3343,0.0,0.0,0.0,0.0,0.0,0.0,0.0,0.0,0.0,0.0,0.0,0.0,-2.251,0.0,0.0,0.0,0.0,0.0,0.0,-2.1865,-2.1239,-2.1494,-2.1533,0.0,0.0,-2.2353,-2.251,-2.2877,-2.3091,-2.3091,-2.3091,-2.3091,-2.3091,-2.3091,-2.3091,-2.3091,-2.3091,-2.3091,-2.3091,-2.3091,-2.3091,-2.3091,-2.3091,-2.3091,-2.3091,-2.3091,-2.3091,-2.3091,-2.3091,-2.3091,-2.3091,0.0,0.0,0.0,0.0,-3.6073,0.0,0.0,0.0,-4.1517,0.0,-4.4001,-4.5198,-4.5302,-4.5883,-4.5753,-4.4509,-4.4405,0.0,-3.9933,-3.9722,0.0,0.0,-3.5142,-3.4224,-3.1502,0.0,0.0,0.0,0.0,0.0,-3.0608,-3.0043,-3.0068,-3.0557,-3.003,0.0,-2.9754,-2.9779,-2.9792,-2.9792,-2.9792,-2.9792,-2.9792,-2.9792,-2.9792,-2.9792,-2.9792,-2.9792,-2.9792,-2.9792,-2.9792,-2.9792,-2.9792,-2.9753,-2.9702,-2.9702,-2.9663,-2.9404,-2.8267,-2.7924,-2.7429,-2.5241,0.0,0.0,0.0,0.0,-2.3091,0.0,0.0,0.0,0.0,0.0,0.0,0.0,0.0,0.0,0.0,0.0,0.0,0.0,0.0,0.0,0.0,-2.251,-2.2139,-2.1288,-2.121,0.0,0.0,0.0,-2.209,-2.2471,-2.2867,-2.3091,-2.3091,-2.3091,-2.3091,-2.3091,-2.3091,-2.3091,-2.3091,-2.3091,-2.3091,-2.3091,-2.3091,-2.3091,-2.3091,-2.3091,-2.3047,-2.3003,-2.3003,-2.296,-2.2916,-2.3003,-2.296,-2.2906,-3.5504,-3.5893,-3.6237,0.0,-3.6372,-3.6866,0.0,0.0,0.0,0.0,-4.2895,-4.3807,-4.5284,-4.5581,-4.534,-4.4559,-4.4456,0.0,0.0,0.0,0.0,-3.4806,-3.5206,-3.4388,-3.2051,-3.2704,0.0,-3.0984,0.0,0.0,-3.0608,-3.0043,-2.9867,-2.9993,0.0,0.0,-2.9176,-2.9616,-2.9792,-2.9792,-2.9792,-2.9792,0.0,0.0,-2.9792,-2.9792,-2.9792,-2.9792,-2.9792,-2.9792,-2.9792,-2.9792,-2.9792,-2.9236,-2.8557,-2.8557,-2.7988,-2.7087,-2.5953,-2.5661,-2.5326,-2.3877,-2.3551,-2.3474,0.0,0.0,0.0,0.0,0.0,0.0,0.0,0.0,0.0,0.0,0.0,0.0,0.0,0.0,0.0,-2.2935,0.0,0.0,0.0,-2.2412,-2.1953,-2.1738,-2.1416,0.0,0.0,0.0,0.0,-2.2051,-2.2711,-2.3091,-2.3091,-2.3091,-2.3091,-2.3091,-2.3091,-2.3091,-2.3091,-2.3091,-2.3091,-2.3091,-2.3091,-2.3091,-2.3091,-2.3091,-2.258,-2.1756,-2.1756,-2.1212,-2.0539,-2.1436,-2.1168,-2.0404,-3.5255,0.0,0.0,-3.5671,0.0,0.0,-3.8245,0.0,0.0,-4.1438,-4.2524,0.0,-4.4206,-4.4775,-4.4456,-4.3024,-4.2895,0.0,0.0,0.0,0.0,-3.5152,-3.5107,-3.4204,-3.2252,-3.278,0.0,-3.0696,0.0,0.0,-3.0244,-2.9942,-2.9792,0.0,0.0,-2.9616,0.0,-2.9654,-2.9792,-2.9792,-2.9792,0.0,0.0,-2.9792,-2.9495,-2.9067,-2.9067,-2.9365,-2.9702,-2.9236,-2.9067,-2.8976,-2.8502,-2.7919,-2.74,-2.74,-2.6964,-2.6265,-2.5126,-2.4787,-2.4542,-2.3387,-2.3091,-2.3091,-2.3091,-2.3091,-2.3091,0.0,0.0,0.0,0.0,0.0,0.0,0.0,0.0,0.0,0.0,0.0,0.0,0.0,0.0,0.0,0.0,0.0,-2.168,0.0,0.0,0.0,0.0,0.0,0.0,-2.1894,-2.2705,-2.3091,-2.3091,-2.3091,-2.3091,-2.3091,-2.3091,-2.3091,-2.3091,-2.3091,-2.3091,-2.3091,-2.3091,-2.2818,-2.2306,-2.2306,-2.1623,-2.0522,-2.0522,-1.9761,-1.8818,-1.9497,-1.9625,-1.9497,0.0,0.0,0.0,0.0,0.0,0.0,0.0,-3.8727,0.0,-4.0491,0.0,-4.3018,-4.234,-4.3184,-4.2858,-4.0623,0.0,-3.9505,-3.7346,-3.7111,-3.6584,-3.5433,-3.4868,-3.3834,-3.2139,-3.2528,0.0,0.0,0.0,0.0,-2.9892,-2.9829,0.0,0.0,0.0,0.0,0.0,-2.9679,-2.9679,0.0,-2.9599,-2.9573,-2.9585,-2.9417,-2.874,-2.7896,-2.7896,-2.853,-2.9209,-2.8227,-2.7896,-2.7723,-2.6801,-2.64,-2.6265,-2.6265,-2.6182,-2.585,-2.484,-2.4585,-2.4339,-2.3343,-2.3091,-2.3091,-2.3091,-2.3091,-2.3091,-2.3091,-2.3091,-2.3091,0.0,0.0,0.0,0.0,0.0,0.0,0.0,0.0,0.0,0.0,0.0,0.0,0.0,0.0,0.0,0.0,0.0,0.0,0.0,0.0,0.0,-2.1904,-2.2705,-2.312,-2.3179,0.0,-2.2891,-2.2949,-2.2715,-2.2633,-2.2633,-2.2633,-2.2633,-2.2633,-2.2633,-2.2041,-2.1069,-2.1069,-2.035,-1.9268,-1.9085,-1.8357,-1.7451,-1.7451,-1.8133,-1.9039,0.0,0.0,0.0,0.0,0.0,-3.6064,-3.7197,-3.7736,-3.8463,-3.966,-4.0153,-4.0197,-3.9621,-3.9749,-3.9496,-3.8586,-3.8474,0.0,0.0,0.0,0.0,-3.4868,-3.4336,-3.3257,-3.1574,-3.121,-3.0859,0.0,0.0,0.0,-3.0457,0.0,0.0,0.0,0.0,0.0,-2.9051,-2.9051,0.0,-2.9,-2.8585,-2.8386,-2.8307,-2.7412,-2.6935,-2.676,-2.676,-2.6894,-2.7058,-2.6842,-2.676,-2.676,-2.6565,-2.5839,-2.5083,-2.5083,-2.4425,-2.3637,-2.3464,-2.3387,-2.3343,-2.3135,-2.3091,-2.3091,-2.3091,-2.3091,-2.3091,-2.3091,-2.3091,-2.3091,-2.3091,0.0,0.0,0.0,0.0,0.0,0.0,0.0,0.0,0.0,0.0,0.0,0.0,0.0,0.0,0.0,0.0,0.0,0.0,0.0,0.0,0.0,-2.2705,0.0,0.0,0.0,-2.1797,-2.2199,-2.0787,-2.0133,-2.0133,-2.0133,-2.0133,-2.0133,-2.0133,-1.9997,-1.9807,-1.9807,-1.9085,-1.7917,-1.6842,-1.6339,-1.6109,-1.6109,-1.6292,-1.6473,0.0,0.0,0.0,0.0,0.0,0.0,0.0,-3.6942,0.0,-3.7873,-3.799,-3.7913,-3.7649,-3.8078,-3.8191,-3.7626,-3.7312,-3.6923,-3.637,-3.5818,-3.5152,-3.4324,-3.4035,0.0,-3.1424,-3.1148,-3.0746,-3.0193,0.0,0.0,-3.0181,0.0,0.0,0.0,0.0,-2.8464,0.0,0.0,0.0,-2.7293,-2.7283,-2.7279,-2.7197,-2.6678,-2.6141,-2.563,-2.563,-2.5221,-2.4808,-2.5431,-2.563,-2.5504,-2.4935,-2.4349,-2.392,-2.392,-2.3507,-2.3091,-2.3091,-2.3091,-2.3091,-2.3091,-2.3091,-2.3091,-2.3091,-2.3091,-2.3091,-2.3091,-2.3091,-2.3091,-2.3091,-2.3091,0.0,0.0,0.0,0.0,0.0,0.0,0.0,0.0,0.0,0.0,0.0,0.0,0.0,0.0,0.0,0.0,0.0,0.0,0.0,0.0,0.0,0.0,0.0,0.0,0.0,-2.068,-1.9899,-1.9497,-1.9497,-1.9497,-1.9497,-1.9497,-1.9497,-1.9131,-1.8503,-1.7848,-1.7257,-1.6669,-1.6062,-1.5784,-1.5784,-1.5784,-1.5784,-1.5784,0.0,-3.3625,0.0,0.0,-3.4499,0.0,-3.5495,-3.6383,-3.6935,-3.6782,-3.6757,-3.6719,-3.6593,-3.7312,-3.7613,-3.7061,-3.6508,-3.6006,-3.552,-3.4868,-3.4349,-3.3922,-3.3671,-3.2867,-3.1424,-3.116,-3.057,0.0,0.0,0.0,0.0,0.0,0.0,0.0,0.0,0.0,0.0,0.0,-2.5773,-2.5766,-2.6024,-2.6141,-2.6099,-2.585,-2.5221,-2.4414,-2.4414,-2.3877,-2.3266,-2.4125,-2.4414,-2.4296,-2.3387,-2.3091,-2.3091,-2.3091,-2.3091,-2.3091,-2.3091,-2.3091,-2.3091,-2.3091,-2.3091,-2.3091,-2.3091,-2.3091,-2.3091,-2.3091,-2.3091,-2.3091,-2.3091,-2.3091,0.0,0.0,0.0,0.0,0.0,0.0,0.0,0.0,0.0,0.0,0.0,0.0,0.0,0.0,0.0,0.0,0.0,0.0,0.0,0.0,0.0,-1.953,-1.965,0.0,-1.9171,-1.9244,-1.8888,-1.8718,-1.8718,-1.8718,-1.8718,-1.8718,-1.8718,-1.8172,-1.7225,-1.6204,-1.5784,-1.5784,-1.5784,-1.5784,-1.5784,-1.5784,-1.5784,-1.5784,0.0,0.0,0.0,0.0,0.0,0.0,-3.5483,-3.6056,-3.6832,-3.7726,-3.7852,-3.7663,-3.7161,-3.7199,-3.7036,-3.6531,-3.5943,-3.5558,-3.5495,-3.4562,-3.396,-3.3897,-3.2918,-3.2064,-3.1399,-3.0444,-2.9628,0.0,0.0,0.0,0.0,0.0,0.0,0.0,0.0,0.0,0.0,-2.5622,-2.5732,-2.5594,-2.5143,-2.4957,-2.484,-2.38,-2.3343,-2.3266,-2.3266,-2.3178,-2.3135,-2.3222,-2.3266,-2.3266,-2.3135,-2.3091,-2.3091,-2.3091,-2.3091,-2.3091,-2.3091,-2.3091,-2.3091,-2.3091,-2.3091,-2.3091,-2.3091,-2.3091,-2.3091,-2.3091,-2.3091,-2.3091,-2.3091,-2.3091,-2.2721,0.0,0.0,0.0,0.0,0.0,0.0,0.0,0.0,0.0,0.0,0.0,0.0,0.0,0.0,0.0,0.0,0.0,0.0,-1.8553,0.0,-1.9691,-2.006,-1.8613,-1.8061,-1.8396,-1.6883,-1.615,-1.615,-1.615,-1.615,-1.615,-1.615,-1.6055,-1.5967,-1.5825,-1.5784,-1.5784,-1.5784,-1.5784,-1.5784,-1.5784,-1.5784,-1.5784,0.0,0.0,0.0,0.0,0.0,0.0,0.0,-3.6267,-3.6568,-3.696,-3.7023,-3.6935,-3.6757,-3.6732,-3.6471,-3.5918,-3.532,-3.4868,-3.4575,-3.3834,-3.3257,-3.2905,-3.2453,-3.1813,-3.0947,-3.0507,-2.9557,0.0,0.0,0.0,0.0,0.0,0.0,0.0,0.0,-2.4465,-2.4492,-2.4001,-2.3805,-2.3753,-2.3748,-2.38,-2.3714,-2.3256,-2.3091,-2.3091,-2.3091,-2.3091,-2.3091,-2.3091,-2.3091,-2.3091,-2.3091,-2.3091,-2.3091,-2.3091,-2.3091,-2.3091,-2.3091,-2.3091,-2.3091,-2.3091,-2.3091,-2.3091,-2.3091,-2.3091,-2.3091,-2.3091,-2.2536,-2.2031,-2.2006,-2.1409,-2.0764,0.0,0.0,0.0,0.0,0.0,0.0,0.0,0.0,0.0,0.0,0.0,0.0,0.0,0.0,0.0,0.0,0.0,0.0,-1.7553,0.0,-1.7355,-1.7534,-1.6859,-1.663,-1.6797,-1.6116,-1.5784,-1.5784,-1.5784,-1.5784,-1.5784,-1.5784,-1.5784,-1.5784,-1.5784,-1.5784,-1.5784,-1.5784,-1.5784,-1.5804,-1.6032,-1.6092,-1.6119,-3.4781,0.0,-3.4675,0.0,-3.5466,-3.5466,-3.6292,-3.6405,-3.6405,-3.6405,-3.6405,-3.6405,-3.6405,-3.6267,-3.5968,-3.5533,-3.4856,-3.4311,-3.3922,-3.3382,-3.2817,-3.224,-3.1759,0.0,-3.0115,-2.9649,-2.861,-2.6921,-2.7397,0.0,0.0,0.0,0.0,0.0,-2.3511,-2.3371,-2.3638,-2.2829,-2.2588,-2.2682,-2.2974,-2.3091,-2.3091,-2.3091,-2.3091,-2.3091,-2.3091,-2.3091,-2.3091,-2.3091,-2.3091,-2.3091,-2.3091,-2.3091,-2.3091,-2.3091,-2.3091,-2.3091,-2.3091,-2.3091,-2.3091,-2.3091,-2.3091,-2.3091,-2.3091,-2.3091,-2.3003,-2.2633,-2.1889,-2.1212,-2.0818,-2.0087,-1.936,-1.9047,0.0,0.0,0.0,0.0,0.0,0.0,0.0,-1.5571,-1.5691,0.0,0.0,0.0,0.0,0.0,0.0,0.0,0.0,0.0,0.0,0.0,0.0,-1.5784,-1.5784,-1.5784,-1.5784,-1.5784,-1.5784,-1.5784,-1.5831,-1.5959,-1.5959,-1.5959,-1.5959,-1.5959,-1.5905,-1.5784,-1.5784,-1.5879,-1.5985,-1.6192,-1.6326,-1.6426,-3.527,-3.5483,-3.5658,-3.6304,-3.6392,-3.6392,-3.6405,-3.6405,-3.6405,-3.6405,-3.6405,-3.6405,-3.6405,-3.5881,-3.5508,-3.5495,-3.455,-3.3909,-3.3897,-3.3382,-3.2817,0.0,0.0,-2.9565,-2.8921,-2.7351,-2.6237,-2.563,0.0,0.0,-2.4212,0.0,-2.3023,-2.2542,-2.25,-2.251,-2.251,-2.2519,-2.2711,-2.3091,-2.3091,-2.3091,-2.3091,-2.3091,-2.3091,-2.3091,-2.3091,-2.3091,-2.3091,-2.3091,-2.3091,-2.3091,-2.3091,-2.3091,-2.3091,-2.3091,-2.3091,-2.3091,-2.3091,-2.3091,-2.3091,-2.3091,-2.3091,-2.3091,-2.3091,-2.3091,-2.2765,-2.1569,-2.1293,-2.0935,-1.9716,-1.9497,-1.9093,-1.7917,0.0,0.0,0.0,0.0,0.0,0.0,-1.5778,-1.5712,-1.5431,0.0,0.0,0.0,0.0,0.0,0.0,0.0,0.0,-1.5444,-1.5678,0.0,-1.5784,-1.5784,-1.5784,-1.5784,-1.5784,-1.5784,-1.5784,-1.5784,-1.5985,-1.6266,-1.6266,-1.6266,-1.6266,-1.6266,-1.6092,-1.5784,-1.5784,-1.6012,-1.6266,-1.6321,-1.6453,-1.67,-3.5881,-3.6094,-3.6157,-3.638,-3.6405,-3.6405,-3.6405,-3.6405,-3.6405,-3.6405,-3.6405,-3.6267,-3.5843,-3.5608,-3.5194,0.0,-3.3347,-3.2475,0.0,-3.1139,-3.032,-2.9753,-2.8939,-2.8251,-2.7706,-2.6885,-2.5909,-2.4639,0.0,0.0,0.0,-2.2833,-2.2648,-2.251,-2.251,-2.2676,-2.2896,-2.2896,-2.2974,-2.3091,-2.3091,-2.3091,-2.3091,-2.3091,-2.3091,-2.3091,-2.3091,-2.3091,-2.3091,-2.3091,-2.3091,-2.3091,-2.3091,-2.3091,-2.3091,-2.3091,-2.3091,-2.3091,-2.3091,-2.3091,-2.3091,-2.3091,-2.3091,-2.3091,-2.3091,-2.2448,-2.1756,-2.1382,-1.9988,-1.8726,-1.8319,-1.7576,-1.6842,-1.648,-1.6386,0.0,0.0,0.0,0.0,0.0,-1.5784,-1.5792,0.0,-1.5724,0.0,0.0,0.0,0.0,0.0,0.0,0.0,0.0,-1.5785,0.0,-1.5784,-1.5784,-1.5784,-1.5784,-1.6039,-1.6132,-1.6132,-1.6132,-1.6186,-1.6321,-1.6321,-1.6386,-1.6567,-1.6567,-1.6513,-1.6426,-1.6426,-1.6486,-1.6593,-1.6844,-1.6978,-1.7092,-3.5918,-3.6267,-3.6405,-3.6405,-3.6405,-3.6405,-3.6405,-3.6405,-3.6405,-3.6405,-3.6182,-3.5656,-3.4619,-3.4327,0.0,-3.3301,-3.1886,-3.0936,-3.0564,-2.9818,-2.9059,-2.8377,-2.7657,-2.6966,-2.6256,0.0,0.0,-2.3801,-2.3871,-2.3499,-2.2701,-2.2588,-2.2598,-2.2744,-2.2744,-2.2847,-2.3091,-2.3091,-2.3091,-2.3091,-2.3091,-2.3091,-2.3091,-2.3091,-2.3091,-2.3091,-2.3091,-2.3091,-2.3091,-2.3091,-2.3091,-2.3091,-2.3091,-2.3091,-2.3091,-2.3091,-2.3091,-2.3091,-2.3091,-2.3091,-2.3091,-2.3091,-2.3091,-2.3003,-2.2536,-2.1845,-2.1025,-2.0124,-1.8726,-1.7552,-1.7084,-1.6339,-1.5784,-1.5784,-1.5784,-1.5784,-1.5784,0.0,0.0,0.0,0.0,0.0,0.0,-1.5784,0.0,0.0,0.0,0.0,0.0,0.0,0.0,-1.5784,-1.5784,0.0,-1.5784,-1.5939,-1.5999,-1.5999,-1.6293,-1.6433,-1.6433,-1.6433,-1.65,-1.665,-1.665,-1.6707,-1.6874,-1.6874,-1.6807,-1.6707,-1.6707,-1.6774,-1.6894,-1.7132,-1.7266,-1.7387,-3.5495,-3.5994,0.0,0.0,-3.6405,0.0,-3.6405,-3.631,-3.6263,-3.6263,-3.5634,-3.4598,-3.2957,-3.2202,-3.1825,-3.1802,0.0,0.0,0.0,-2.919,-2.8665,-2.7755,-2.6686,-2.5677,-2.4733,-2.3647,-2.3091,-2.3091,-2.2744,-2.2711,-2.3091,-2.2744,-2.2721,-2.3091,-2.3091,-2.3091,-2.3091,-2.3091,-2.3091,-2.3091,-2.3091,-2.3091,-2.3091,-2.3091,-2.3091,-2.3091,-2.3091,-2.3091,-2.3091,-2.3091,-2.3091,-2.3091,-2.3091,-2.3091,-2.3091,-2.3091,-2.3091,-2.3091,-2.3091,-2.3091,-2.3091,-2.3003,-2.2916,-2.2545,-2.1436,-2.1114,-2.0404,-1.8172,-1.766,-1.7239,-1.6069,-1.5811,-1.5791,-1.5804,-1.5798,-1.5784,-1.5784,0.0,0.0,0.0,0.0,0.0,0.0,-1.5784,-1.5784,0.0,0.0,0.0,0.0,0.0,-1.5804,-1.5784,-1.5798,-1.5811,-1.5811,-1.6152,-1.6362,-1.6388,-1.6607,-1.6734,-1.6734,-1.6734,-1.6887,-1.7199,-1.7199,-1.7213,-1.7233,-1.7233,-1.7014,-1.6767,-1.6767,-1.6883,-1.7071,-1.7071,-1.7192,-1.7312,0.0,0.0,-3.6405,-3.6405,-3.6405,-3.6405,-3.6405,-3.5523,-3.4872,-3.4872,-3.356,-3.231,-3.147,-3.0116,-2.9117,-2.8712,-2.829,-2.8049,-2.8049,-2.6832,-2.5993,-2.5781,-2.4897,-2.4277,-2.4014,-2.3433,-2.3091,-2.3091,-2.2994,-2.3003,-2.3091,-2.2994,-2.3003,-2.3091,-2.3091,-2.3091,-2.3091,-2.3091,-2.3091,-2.3091,-2.3091,-2.3091,-2.3091,-2.3091,-2.3091,-2.3091,-2.3091,-2.3091,-2.3091,-2.3091,-2.3091,-2.3091,-2.3091,-2.3091,-2.3091,-2.3091,-2.3091,-2.3091,-2.3091,-2.3091,-2.2862,-2.1943,-2.1033,-2.0268,-1.9988,-1.9222,-1.8442,-1.81,-1.7061,-1.6293,-1.6462,-1.6132,-1.5905,-1.6132,-1.5979,-1.5784,-1.5784,-1.5784,0.0,0.0,-1.5784,-1.5784,-1.5784,-1.5784,-1.5784,0.0,0.0,0.0,0.0,-1.6046,-1.6059,-1.5791,-1.6052,-1.6166,-1.6166,-1.6453,-1.6714,-1.6991,-1.7058,-1.7099,-1.7099,-1.7099,-1.7132,-1.7199,-1.7199,-1.7326,-1.7534,-1.7534,-1.7435,-1.7375,-1.7375,-1.6774,-1.5812,-1.5812,-1.5205,-1.4347,-3.5119,-3.5818,-3.6405,-3.6405,-3.5918,-3.5475,-3.5475,-3.4313,-3.3383,-3.3201,-3.2093,-3.0953,-2.9886,-2.8711,-2.7671,-2.6822,-2.6706,-2.6706,-2.6706,-2.5732,-2.498,-2.4775,-2.4141,-2.3691,-2.3496,-2.3218,-2.3091,-2.3091,-2.3091,-2.3091,-2.3091,-2.3091,-2.3091,-2.3091,-2.3091,-2.3091,-2.3091,-2.3091,-2.3091,-2.3091,-2.3091,-2.3091,-2.3091,-2.3091,-2.3091,-2.3091,-2.3091,-2.3091,-2.3091,-2.3091,-2.3091,-2.3091,-2.3091,-2.3091,-2.3003,-2.2448,-2.2677,-2.3003,-2.2448,-2.2262,-2.1987,-2.08,-2.007,-1.9551,-1.901,-1.8439,-1.7945,-1.7539,-1.6773,-1.6326,-1.6647,-1.6339,-1.6086,-1.6246,-1.6019,-1.5784,-1.5784,-1.5784,0.0,-1.5784,-1.5784,-1.5784,-1.5784,-1.5784,-1.5784,-1.5784,0.0,0.0,-1.6025,-1.6186,-1.6199,-1.6039,-1.6319,-1.6473,-1.6473,-1.676,-1.7054,-1.74,-1.74,-1.74,-1.74,-1.74,-1.74,-1.74,-1.74,-1.7494,-1.7529,-1.6876,-1.6605,-1.6552,-1.5908,-1.515,-1.4449,-1.4449,-1.3965,-1.3318,-3.4756,-3.5542,-3.621,-3.6096,-3.5174,-3.4337,-3.4129,-3.2837,-3.1773,-3.1423,-3.0694,-2.9667,-2.8275,-2.7633,-2.6897,-2.5781,-2.5693,-2.5693,-2.5693,-2.5254,-2.4834,-2.4531,-2.3984,-2.3545,-2.3198,-2.313,-2.3091,-2.3091,-2.3091,-2.3091,-2.3091,-2.3091,-2.3091,-2.3091,-2.3091,-2.3091,-2.3091,-2.3091,-2.3091,-2.3091,-2.3091,-2.3091,-2.3091,-2.3091,-2.3091,-2.3091,-2.3091,-2.3091,-2.3091,-2.3091,-2.3003,-2.2818,-2.2818,-2.2677,-2.2359,-2.1346,-2.1756,-2.2315,-2.1302,-2.089,-2.0539,-1.9517,-1.9338,-1.9107,-1.8134,-1.8072,-1.7938,-1.6961,-1.6734,-1.6734,-1.682,-1.6526,-1.6286,-1.6333,-1.6052,-1.5784,-1.5784,0.0,-1.5798,-1.5892,-1.5899,-1.5912,-1.5911,-1.5959,-1.5959,-1.5959,-1.5959,-1.6072,-1.6375,-1.6429,-1.6455,-1.6455,-1.664,-1.6794,-1.684,-1.7139,-1.7387,-1.7582,-1.7582,-1.747,-1.7259,-1.7259,-1.7147,-1.6935,-1.6935,-1.6935,-1.6823,-1.5583,-1.5091,-1.4984,-1.375,-1.3156,-1.2994,-1.2994,-1.2837,-1.262,-3.465,-3.5194,-3.5431,-3.48,-3.4532,-3.3981,-3.2794,-3.1192,-3.0075,-3.0,-2.8335,-2.6983,-2.6725,-2.628,-2.5927,-2.5742,-2.5693,-2.5693,-2.5693,-2.4971,-2.4648,-2.4998,-2.3857,-2.3379,-2.3682,-2.3286,-2.3091,-2.3091,-2.3091,-2.3091,-2.3091,-2.3091,-2.3091,-2.3091,-2.3091,-2.3091,-2.3091,-2.3091,-2.3091,-2.3091,-2.3091,-2.3091,-2.3091,-2.3091,-2.3091,-2.3091,-2.3091,-2.3091,-2.3091,-2.3091,-2.2403,-2.1569,-2.1569,-2.0899,-2.0034,-1.9807,-1.9898,-2.0034,-1.9807,-1.9039,-1.8257,-1.8305,-1.7558,-1.6856,-1.692,-1.6966,-1.7025,-1.7079,-1.6881,-1.686,-1.7355,-1.68,-1.6353,-1.66,-1.6186,-1.5784,-1.5784,0.0,-1.5925,-1.6172,-1.6206,-1.6299,-1.6547,-1.6573,-1.6573,-1.6573,-1.6573,-1.6587,-1.664,-1.6931,-1.7065,-1.7065,-1.7112,-1.7253,-1.7442,-1.7488,-1.7542,-1.7582,-1.7582,-1.6935,-1.5743,-1.5743,-1.5097,-1.3965,-1.3965,-1.3965,-1.3965,-1.3696,-1.3642,-1.3588,-1.3372,-1.2566,-1.1433,-1.1433,-1.0672,-0.9588,-3.4568,-3.453,-3.4435,-3.4388,-3.3166,-3.1988,-3.1327,-2.9734,-2.8522,-2.8279,-2.7161,-2.6299,-2.6064,-2.581,-2.5693,-2.5693,-2.5693,-2.5693,-2.5693,-2.5127,-2.4756,-2.4717,-2.3926,-2.3477,-2.3437,-2.3198,-2.3091,-2.3091,-2.3091,-2.3091,-2.3091,-2.3091,-2.3091,-2.3091,-2.3091,-2.3091,-2.3091,-2.3091,-2.3091,-2.3091,-2.3091,-2.3091,-2.3091,-2.3091,-2.3091,-2.3091,-2.3091,-2.2677,-2.212,-2.212,-2.1346,-2.035,-2.035,-1.9943,-1.936,-1.8726,-1.8549,-1.8542,-1.8722,-1.7851,-1.6992,-1.7302,-1.7061,-1.6831,-1.6965,-1.7068,-1.7215,-1.7407,-1.7275,-1.7261,-1.7528,-1.6994,-1.66,-1.6901,-1.6313,0.0,0.0,-1.6072,-1.6119,-1.6259,-1.6413,-1.656,-1.6693,-1.6707,-1.6707,-1.6707,-1.6707,-1.6415,-1.5839,-1.5919,-1.5738,-1.5135,-1.5832,-1.594,-1.531,-1.5263,-1.5263,-1.5263,-1.5263,-1.4936,-1.4288,-1.4288,-1.3911,-1.3318,-1.3318,-1.3318,-1.3264,-1.2457,-1.2132,-1.2023,-1.1214,-1.0511,-0.9915,-0.9915,-0.9482,-0.8885,-3.4111,-3.3501,-3.3013,-3.336,-3.1684,-3.0182,-2.9777,-2.8485,-2.7363,-2.6924,-2.6504,-2.6113,-2.5723,-2.5693,-2.5693,-2.5693,-2.5693,-2.5693,-2.5693,-2.541,-2.5078,-2.4736,-2.4219,-2.3682,-2.311,-2.3091,-2.3091,-2.3091,-2.3091,-2.3091,-2.3091,-2.3091,-2.3091,-2.3091,-2.3091,-2.3091,-2.3091,-2.3091,-2.3091,-2.3091,-2.3091,-2.3091,-2.3047,-2.2775,-2.2677,-2.2633,-2.2359,-2.1676,-2.089,-2.089,-2.0079,-1.9085,-1.9085,-1.8912,-1.8566,-1.7656,-1.7439,-1.7501,-1.7741,-1.7037,-1.6359,-1.672,-1.7032,-1.7219,-1.7286,-1.7474,-1.7582,-1.7582,-1.7582,-1.7602,-1.7675,-1.7208,-1.6907,-1.7253,0.0,0.0,0.0,-1.6482,-1.6529,-1.6529,-1.6734,-1.6907,-1.6907,-1.6974,-1.6828,-1.6444,-1.6451,-1.5976,-1.4693,-1.4599,-1.4049,-1.2832,-1.418,-1.4395,-1.3318,-1.3318,-1.3318,-1.3318,-1.3318,-1.3102,-1.2783,-1.2783,-1.262,-1.2295,-1.2295,-1.2295,-1.2186,-1.1051,-1.0566,-1.0457,-0.9316,-0.8885,-0.8885,-0.8885,-0.8885,-0.8885,-3.2636,-3.1911,-3.0989,-3.0675,-3.0421,-2.9777,-2.812,-2.7386,-2.6914,-2.6494,-2.6055,-2.5723,-2.5693,-2.5693,-2.5693,-2.5693,-2.5693,-2.5693,-2.5693,-2.5654,-2.5625,-2.5596,-2.4777,-2.3984,-2.311,-2.3091,-2.3091,-2.3091,-2.3091,-2.3091,-2.3091,-2.3091,-2.3091,-2.3091,-2.3091,-2.3091,-2.3091,-2.3091,-2.3091,-2.3091,-2.3091,-2.3091,-2.3003,-2.1845,-2.1426,-2.1293,-2.0169,-1.9724,-1.9625,-1.9625,-1.8818,-1.7824,-1.7824,-1.7239,-1.6524,-1.6434,-1.6574,-1.6796,-1.6817,-1.6578,-1.6455,-1.7025,-1.7186,-1.7273,-1.7488,-1.7569,-1.7582,-1.7582,-1.7582,-1.7669,-1.7909,-1.7522,-1.7259,-1.7554,0.0,0.0,-1.6667,-1.6958,-1.7132,-1.7132,-1.7393,-1.7515,-1.7515,-1.7776,-1.7227,-1.5594,-1.5803,-1.5244,-1.3519,-1.3406,-1.2763,-1.1324,-1.2674,-1.3372,-1.3318,-1.3318,-1.3318,-1.3318,-1.3318,-1.2566,-1.1269,-1.1269,-1.0511,-0.921,-0.921,-0.921,-0.921,-0.9099,-0.9047,-0.9047,-0.8937,-0.8885,-0.8885,-0.8885,-0.8885,-0.8885,-3.0996,-3.0326,-2.9582,-2.9505,-2.9065,-2.8361,-2.7427,-2.6894,-2.6572,-2.6406,-2.6006,-2.5693,-2.5693,-2.5693,-2.5693,-2.5693,-2.5693,-2.5693,-2.5693,-2.5693,-2.544,-2.4894,-2.4346,-2.375,-2.311,-2.3091,-2.3091,-2.3091,-2.3091,-2.3091,-2.3091,-2.3091,-2.3091,-2.3091,-2.3091,-2.3091,-2.3091,-2.3091,-2.2677,-2.1987,-2.1987,-2.1534,-2.0818,-2.035,-2.0169,-2.0124,-1.967,-1.8993,-1.8365,-1.8365,-1.7537,-1.6562,-1.6751,-1.6615,-1.6395,-1.6764,-1.676,-1.6787,-1.7154,-1.7034,-1.6965,-1.7373,-1.7562,-1.7736,-1.7842,-1.8009,-1.8143,-1.8143,-1.8143,-1.8183,-1.8297,-1.7969,-1.7789,-1.8096,0.0,-1.7315,-1.7456,-1.7635,-1.7635,-1.7494,-1.7682,-1.7869,-1.7869,-1.7086,-1.6344,-1.5844,-1.5033,-1.3872,-1.2286,-1.1282,-1.0504,-0.9954,-1.0347,-1.0566,-1.0566,-1.0566,-1.0566,-1.0566,-1.0566,-1.0351,-0.9895,-0.9798,-0.948,-0.9066,-0.8977,-0.8885,-0.8885,-0.8885,-0.8885,-0.8885,-0.8885,-0.8991,-0.9069,-0.9069,-0.9069,-0.9069,-2.9481,-2.8746,-2.8102,-2.8346,-2.7902,-2.7314,-2.6885,-2.6572,-2.6338,-2.6201,-2.5918,-2.5693,-2.5693,-2.5693,-2.5693,-2.5693,-2.5693,-2.5693,-2.5693,-2.5693,-2.5294,-2.4453,-2.4277,-2.3857,-2.311,-2.3227,-2.3227,-2.3091,-2.3091,-2.3091,-2.3091,-2.3091,-2.3091,-2.3091,-2.2677,-2.2536,-2.2492,-2.2129,-2.1489,-2.0747,-2.0747,-2.026,-1.9451,-1.9085,-1.8948,-1.8856,-1.8488,-1.7876,-1.7283,-1.7283,-1.6737,-1.6139,-1.6346,-1.6522,-1.6697,-1.7192,-1.7141,-1.7068,-1.7475,-1.7508,-1.7482,-1.7675,-1.7956,-1.8135,-1.8135,-1.8343,-1.849,-1.849,-1.849,-1.8517,-1.8611,-1.837,-1.827,-1.8577,-1.8196,-1.7943,-1.8156,-1.8209,-1.7985,-1.7238,-1.7348,-1.7323,-1.6728,-1.5783,-1.5082,-1.4657,-1.3702,-1.251,-1.092,-0.9846,-0.9282,-0.9282,-0.9083,-0.9028,-0.9076,-0.9028,-0.8984,-0.8885,-0.9032,-0.9103,-0.9207,-0.9052,-0.9086,-0.9272,-0.9069,-0.9032,-0.9079,-0.9079,-0.9079,-0.9079,-0.9079,-0.9137,-0.9282,-0.9282,-0.9251,-0.9217,-2.8118,-2.7228,-2.6514,-2.6934,-2.7012,-2.6865,-2.6445,-2.6387,-2.623,-2.5742,-2.5693,-2.5693,-2.5693,-2.5693,-2.5693,-2.5693,-2.5693,-2.5693,-2.5693,-2.5684,-2.5294,-2.4463,-2.4834,-2.4463,-2.314,-2.3574,-2.3574,-2.3101,-2.3091,-2.3091,-2.3091,-2.3091,-2.3101,-2.3047,-2.18,-2.1293,-2.1203,-1.9988,-1.9497,-1.9497,-1.9497,-1.9497,-1.9368,-1.8149,-1.7699,-1.7512,-1.6258,-1.6025,-1.6279,-1.6279,-1.6466,-1.6707,-1.6707,-1.6914,-1.7266,-1.7502,-1.7582,-1.7589,-1.7589,-1.7816,-1.8002,-1.7995,-1.827,-1.8497,-1.8497,-1.8497,-1.8497,-1.8497,-1.8497,-1.8584,-1.8871,-1.8691,-1.8591,-1.8878,-1.8684,-1.8497,-1.8497,-1.8744,-1.8177,-1.6346,-1.6308,-1.5726,-1.3885,-1.4004,-1.3466,-1.1614,-1.1828,-1.1219,-0.9507,-0.9384,-0.9384,-0.9384,-0.9292,-0.9286,-0.9381,-0.9286,-0.9083,-0.8892,-0.9242,-0.9361,-0.9214,-0.921,-0.9296,-0.9374,-0.9279,-0.9299,-0.9381,-0.9381,-0.9381,-0.9381,-0.9381,-0.9381,-0.9384,-0.9384,-0.9344,-0.9234,-2.6415,-2.6409,-2.6328,-2.6103,-2.6367,-2.6435,-2.5996,-2.5937,-2.584,-2.5703,-2.5693,-2.5693,-2.5693,-2.5693,-2.5693,-2.5693,-2.5693,-2.5693,-2.5693,-2.5439,-2.5146,-2.4883,-2.5047,-2.4746,-2.4053,-2.3877,-2.3721,-2.3594,-2.3247,-2.3091,-2.3091,-2.2217,-2.1845,-2.18,-2.0576,-2.0034,-2.0034,-1.967,-1.9138,-1.8533,-1.8533,-1.8107,-1.7497,-1.7121,-1.698,-1.6931,-1.6587,-1.65,-1.6573,-1.6573,-1.6633,-1.674,-1.6998,-1.7266,-1.7521,-1.7555,-1.7736,-1.7856,-1.7856,-1.8222,-1.8508,-1.8095,-1.8368,-1.8791,-1.8791,-1.8958,-1.9105,-1.9105,-1.9105,-1.9132,-1.9219,-1.9165,-1.9132,-1.9219,-1.9158,-1.9105,-1.9105,-1.8224,-1.7289,-1.6498,-1.5489,-1.4688,-1.4102,-1.3117,-1.2375,-1.2039,-1.1033,-1.0208,-0.9693,-0.9595,-0.954,-0.954,-0.9395,-0.9337,-0.9381,-0.9286,-0.9241,-0.9249,-0.934,-0.9412,-0.9469,-0.9361,-0.9398,-0.9534,-0.9381,-0.934,-0.9381,-0.9381,-0.9381,-0.9381,-0.9381,-0.9445,-0.954,-0.954,-0.9513,-0.9479,-2.5693,-2.5947,-2.6045,-2.5732,-2.5908,-2.6045,-2.5732,-2.5693,-2.5693,-2.5693,-2.5693,-2.5693,-2.5693,-2.5693,-2.5693,-2.5693,-2.5693,-2.5693,-2.5693,-2.5478,-2.5332,-2.5332,-2.5332,-2.5049,-2.4424,-2.4336,-2.4209,-2.4043,-2.3725,-2.3287,-2.2669,-2.1915,-2.123,-2.0531,-1.9314,-1.8772,-1.878,-1.8404,-1.7888,-1.7423,-1.7496,-1.7225,-1.6707,-1.6707,-1.6707,-1.6707,-1.6707,-1.678,-1.6881,-1.6881,-1.6961,-1.7081,-1.7313,-1.7494,-1.7609,-1.7729,-1.7849,-1.8015,-1.8135,-1.8564,-1.8781,-1.8428,-1.8751,-1.9098,-1.9098,-1.9239,-1.9424,-1.9424,-1.9424,-1.9424,-1.9424,-1.9424,-1.9424,-1.9424,-1.9424,-1.9185,-1.8525,-1.7624,-1.6434,-1.4993,-1.3976,-1.3153,-1.2508,-1.1573,-1.1088,-1.1249,-1.0361,-0.9822,-0.9822,-0.9741,-0.9693,-0.9693,-0.9547,-0.95,-0.9554,-0.9408,-0.9351,-0.9384,-0.95,-0.9574,-0.9605,-0.9513,-0.9554,-0.9686,-0.9537,-0.9503,-0.9554,-0.9554,-0.9554,-0.9554,-0.9554,-0.9612,-0.9693,-0.9693,-0.9656,-0.9618,-2.5693,-2.5693,-2.5693,-2.5693,-2.5693,-2.5693,-2.5693,-2.5693,-2.5693,-2.5693,-2.5693,-2.5693,-2.5693,-2.5693,-2.5693,-2.5693,-2.5693,-2.5693,-2.5693,-2.5654,-2.5645,-2.5693,-2.5654,-2.5217,-2.4355,-2.4836,-2.4826,-2.4278,-2.4239,-2.3418,-2.184,-2.1748,-2.0882,-1.9309,-1.8094,-1.7596,-1.7517,-1.6684,-1.6348,-1.6422,-1.664,-1.676,-1.678,-1.678,-1.678,-1.678,-1.678,-1.6961,-1.7239,-1.7239,-1.7414,-1.7582,-1.7582,-1.7582,-1.7642,-1.7902,-1.8009,-1.8095,-1.845,-1.8738,-1.8965,-1.8965,-1.9165,-1.9424,-1.9424,-1.9424,-1.9424,-1.9424,-1.9424,-1.9424,-1.9424,-1.9307,-1.9185,-1.9185,-1.9068,-1.8467,-1.6968,-1.6668,-1.5478,-1.2573,-1.2097,-1.1438,-0.994,-0.9822,-0.9822,-0.9822,-0.9822,-0.9822,-0.9822,-0.9822,-0.9822,-0.9822,-0.9696,-0.969,-0.9819,-0.9693,-0.9557,-0.9422,-0.9693,-0.9754,-0.9629,-0.9629,-0.97,-0.9815,-0.9686,-0.97,-0.9822,-0.9822,-0.9822,-0.9822,-0.9822,-0.9822,-0.9822,-0.9822,-0.9741,-0.9646,-2.5693,-2.5693,-2.5693,-2.5693,-2.5693,-2.5693,-2.5693,-2.5693,-2.5693,-2.5693,-2.5693,-2.5693,-2.5693,-2.5693,-2.5693,-2.5693,-2.5693,-2.5693,-2.5693,-2.541,-2.5371,-2.5674,-2.54,-2.4785,-2.388,-2.4689,-2.4526,-2.3297,-2.2995,-2.2126,-2.0749,-1.975,-1.8943,-1.8343,-1.7124,-1.6608,-1.6615,-1.6392,-1.6589,-1.7012,-1.7079,-1.7239,-1.7395,-1.7395,-1.7395,-1.7395,-1.7395,-1.7435,-1.7488,-1.7488,-1.7528,-1.7582,-1.7582,-1.7582,-1.7642,-1.7902,-1.8217,-1.8457,-1.8751,-1.9045,-1.9272,-1.9272,-1.9377,-1.9424,-1.9424,-1.9424,-1.9424,-1.9424,-1.9424,-1.9424,-1.9424,-1.8344,-1.7507,-1.7507,-1.6438,-1.5494,-1.5198,-1.4059,-1.2988,-1.2273,-1.108,-1.0179,-0.9819,-0.9822,-0.9822,-0.9822,-0.9822,-0.9822,-0.9822,-0.9822,-0.9822,-0.9822,-0.9791,-0.9788,-0.9822,-0.9791,-0.9758,-0.9727,-0.9791,-0.9805,-0.9774,-0.9774,-0.9791,-0.9819,-0.9788,-0.9791,-0.9822,-0.9822,-0.9822,-0.9822,-0.9822,-0.9822,-0.9822,-0.9822,-0.9802,-0.9778,-2.5693,-2.5693,-2.5693,-2.5693,-2.5693,-2.5693,-2.5693,-2.5693,-2.5693,-2.5693,-2.5693,-2.5693,-2.5693,-2.5693,-2.5693,-2.5693,-2.5693,-2.5693,-2.5693,-2.4908,-2.453,-2.4756,-2.3935,-2.3269,-2.2767,-2.322,-2.3113,-2.2365,-2.2175,-2.1301,-1.9813,-1.9136,-1.8321,-1.7393,-1.6769,-1.648,-1.6486,-1.6683,-1.6918,-1.7213,-1.7353,-1.7442,-1.7582,-1.7582,-1.7582,-1.7582,-1.7582,-1.7582,-1.7602,-1.7756,-1.7802,-1.7829,-1.7969,-1.7916,-1.7889,-1.8282,-1.8477,-1.8584,-1.9018,-1.9252,-1.9424,-1.9424,-1.9424,-1.9424,-1.9424,-1.9424,-1.9424,-1.9424,-1.8765,-1.8286,-1.8286,-1.6915,-1.5843,-1.5843,-1.5133,-1.4307,-1.3586,-1.2753,-1.1916,-1.1137,-1.0301,-0.9822,-0.9822,-0.9822,-0.9822,-0.9822,-0.9822,-0.9822,-0.9822,-0.9822,-0.9822,-0.9822,-0.9822,-0.9822,-0.9822,-0.9822,-0.9822,-0.9822,-0.9822,-0.9822,-0.9822,-0.9822,-0.9822,-0.9822,-0.9822,-0.9822,-0.9822,-0.9822,-0.9822,-0.9822,-0.9822,-0.9822,-0.9822,-0.9822,-0.9822,-0.9822,-2.5693,-2.5693,-2.5693,-2.5693,-2.5693,-2.5693,-2.5693,-2.5693,-2.5693,-2.5693,-2.5693,-2.5693,-2.5693,-2.5693,-2.5693,-2.5693,-2.5693,-2.5586,-2.5382,-2.4304,-2.3592,-2.3384,-2.2307,-2.16,-2.1347,-2.1347,-2.1347,-2.1347,-2.1347,-2.0491,-1.8927,-1.8927,-1.8159,-1.678,-1.678,-1.678,-1.68,-1.7099,-1.7233,-1.7293,-1.7482,-1.7582,-1.7582,-1.7582,-1.7582,-1.7589,-1.7642,-1.7695,-1.7776,-1.8036,-1.8069,-1.8109,-1.841,-1.8323,-1.8169,-1.8764,-1.8751,-1.8684,-1.9219,-1.9424,-1.9424,-1.9424,-1.9424,-1.9321,-1.9069,-1.8985,-1.9017,-1.9011,-1.775,-1.6625,-1.6671,-1.5368,-1.4281,-1.4246,-1.4002,-1.3329,-1.1981,-1.1796,-1.1318,-0.994,-0.9822,-0.9822,-0.9822,-0.9822,-0.9822,-0.9822,-0.9822,-0.9822,-0.9822,-0.9822,-0.9822,-0.9822,-0.9822,-0.9822,-0.9822,-0.9822,-0.9822,-0.9822,-0.9822,-0.9822,-0.9822,-0.9822,-0.9822,-0.9822,-0.9822,-0.9822,-0.9822,-0.9822,-0.9822,-0.9822,-0.9822,-0.9822,-0.9822,-0.9822,-0.9822,-0.9822,-2.5693,-2.5693,-2.5693,-2.5693,-2.5693,-2.5693,-2.5693,-2.5693,-2.5693,-2.5693,-2.5693,-2.5693,-2.5693,-2.5693,-2.5693,-2.5693,-2.5693,-2.5226,-2.4048,-2.3791,-2.3176,-2.2005,-2.1803,-2.1143,-1.993,-1.9878,-1.9878,-1.9878,-1.9878,-1.9199,-1.783,-1.783,-1.7569,-1.7139,-1.7139,-1.7139,-1.7146,-1.7186,-1.7347,-1.7528,-1.7569,-1.7582,-1.7582,-1.7582,-1.7582,-1.7615,-1.7883,-1.815,-1.8377,-1.8417,-1.843,-1.8437,-1.8477,-1.8464,-1.8497,-1.8824,-1.8891,-1.8938,-1.9279,-1.9424,-1.9424,-1.9424,-1.9424,-1.9076,-1.7804,-1.7434,-1.7332,-1.7446,-1.6211,-1.5115,-1.5253,-1.3989,-1.2888,-1.2729,-1.1545,-1.0519,-1.02,-1.0119,-1.0061,-0.9819,-0.9822,-0.9822,-0.9822,-0.9822,-0.9822,-0.9822,-0.9822,-0.9822,-0.9822,-0.9822,-0.9822,-0.9822,-0.9822,-0.9822,-0.9822,-0.9822,-0.9822,-0.9822,-0.9822,-0.9822,-0.9822,-0.9822,-0.9822,-0.9822,-0.9822,-0.9822,-0.9822,-0.9822,-0.9822,-0.9822,-0.9822,-0.9822,-0.9822,-0.9822,-0.9822,-0.9822,-2.5693,-2.5693,-2.5693,-2.5693,-2.5693,-2.5693,-2.5693,-2.5693,-2.5693,-2.5693,-2.5693,-2.5693,-2.5693,-2.5693,-2.5693,-2.5693,-2.502,-2.4353,-2.3741,-2.2265,-2.1151,-2.0538,-1.9826,-1.9109,-1.8506,-1.8506,-1.8506,-1.8506,-1.8506,-1.8199,-1.7582,-1.7582,-1.7515,-1.744,-1.744,-1.744,-1.744,-1.744,-1.7468,-1.7582,-1.7582,-1.7582,-1.7582,-1.7582,-1.7582,-1.7622,-1.7882,-1.8237,-1.8517,-1.8677,-1.8731,-1.8764,-1.8931,-1.8865,-1.8791,-1.9085,-1.9052,-1.875,-1.821,-1.8706,-1.8952,-1.7155,-1.739,-1.7697,-1.62,-1.5149,-1.4721,-1.5743,-1.4735,-1.3656,-1.368,-1.2393,-1.1284,-1.1119,-1.0477,-0.9933,-0.9842,-0.9893,-0.9981,-1.0066,-1.0076,-1.0076,-1.0076,-0.9998,-0.9985,-1.0073,-0.9917,-0.9859,-0.9883,-0.9866,-0.9822,-0.9822,-0.9822,-0.9822,-0.9822,-0.9822,-0.9822,-0.9822,-0.9822,-0.9822,-0.9822,-0.9822,-0.9822,-0.9822,-0.9822,-0.9822,-0.9822,-0.9822,-0.9822,-0.9822,-0.9822,-0.9822,-0.9822,-0.9822,-0.9822,-0.9822]},{"header":{"parameterUnit":"m.s-1","parameterCategory":1,"la1":30.6,"la2":28.766,"lo1":-90.7593,"lo2":-88.6598,"dy":0.0162,"dx":0.0183,"nx":116,"ny":114,"refTime":"2023-08-22T06:00:00:Z","depth":0,"parameterNumber":3,"parameterNumberName":"V-component_of_WINDS"},"data":[0.0,0.0,0.0,0.0,0.0,0.0,0.0,0.0,0.0,0.0,0.0,0.0,0.0,0.0,0.0,0.0,0.0,0.0,0.0,0.0,0.0,0.0,0.0,0.0,0.0,0.0,0.0,0.0,0.0,0.0,0.0,0.0,0.0,0.0,0.0,0.0,0.0,0.0,0.0,0.0,0.0,0.0,0.0,0.0,0.0,0.0,0.0,0.0,0.0,0.0,0.0,0.0,0.0,0.0,0.0,0.0,0.0,0.0,0.0,0.0,0.0,0.0,0.0,0.0,0.0,0.0,0.0,0.0,0.0,0.0,0.0,0.0,0.0,0.0,0.0,0.0,0.0,0.0,0.0,0.0,0.0,0.0,0.0,0.0,0.0,0.0,0.0,0.0,0.0,0.0,0.0,0.0,0.0,0.0,0.0,0.0,0.0,0.0,0.0,0.0,0.0,0.0,0.0,0.0,0.0,0.0,0.0,0.0,0.0,0.0,0.0,0.0,0.0,0.0,0.0,0.0,0.0,0.0,0.0,0.0,0.0,0.0,0.0,0.0,0.0,0.0,0.0,0.0,0.0,0.0,0.0,0.0,0.0,0.0,0.0,0.0,0.0,0.0,0.0,0.0,0.0,0.0,0.0,0.0,0.0,0.0,0.0,0.0,0.0,0.0,0.0,0.0,0.0,0.0,0.0,0.0,0.0,0.0,0.0,0.0,0.0,0.0,0.0,0.0,0.0,0.0,0.0,0.0,0.0,0.0,0.0,0.0,0.0,0.0,0.0,0.0,0.0,0.0,0.0,0.0,0.0,0.0,0.0,0.0,0.0,0.0,0.0,0.0,0.0,0.0,0.0,0.0,0.0,0.0,0.0,0.0,0.0,0.0,0.0,0.0,0.0,0.0,0.0,0.0,0.0,0.0,0.0,0.0,0.0,0.0,0.0,0.0,0.0,0.0,0.0,0.0,0.0,0.0,0.0,0.0,0.0,0.0,0.0,0.0,0.0,0.0,0.0,0.0,0.0,0.0,0.0,0.0,0.0,0.0,0.0,0.0,0.0,0.0,0.0,0.0,0.0,0.0,0.0,0.0,0.0,0.0,0.0,0.0,0.0,0.0,0.0,0.0,0.0,0.0,0.0,0.0,0.0,0.0,0.0,0.0,0.0,0.0,0.0,0.0,0.0,0.0,0.0,0.0,0.0,0.0,0.0,0.0,0.0,0.0,0.0,0.0,0.0,0.0,0.0,0.0,0.0,0.0,0.0,0.0,0.0,0.0,0.0,0.0,0.0,0.0,0.0,0.0,0.0,0.0,0.0,0.0,0.0,0.0,0.0,0.0,0.0,0.0,0.0,0.0,0.0,0.0,0.0,0.0,0.0,0.0,0.0,0.0,0.0,0.0,0.0,0.0,0.0,0.0,0.0,0.0,0.0,0.0,0.0,0.0,0.0,0.0,0.0,0.0,0.0,0.0,0.0,0.0,0.0,0.0,0.0,0.0,0.0,0.0,0.0,0.0,0.0,0.0,0.0,0.0,0.0,0.0,0.0,0.0,0.0,0.0,0.0,0.0,0.0,0.0,0.0,0.0,0.0,0.0,0.0,0.0,0.0,0.0,0.0,0.0,0.0,0.0,0.0,0.0,0.0,0.0,0.0,0.0,0.0,0.0,0.0,0.0,0.0,0.0,0.0,0.0,0.0,0.0,0.0,0.0,0.0,0.0,0.0,0.0,0.0,0.0,0.0,0.0,0.0,0.0,0.0,0.0,0.0,0.0,0.0,0.0,0.0,0.0,0.0,0.0,0.0,0.0,0.0,0.0,0.0,0.0,0.0,0.0,0.0,0.0,0.0,0.0,0.0,0.0,0.0,0.0,0.0,0.0,0.0,0.0,0.0,0.0,0.0,0.0,0.0,0.0,0.0,0.0,0.0,0.0,0.0,0.0,0.0,0.0,0.0,0.0,0.0,0.0,0.0,0.0,0.0,0.0,0.0,0.0,0.0,0.0,0.0,0.0,0.0,0.0,0.0,0.0,0.0,0.0,0.0,0.0,0.0,0.0,0.0,0.0,0.0,0.0,0.0,0.0,0.0,0.0,0.0,0.0,0.0,0.0,0.0,0.0,0.0,0.0,0.0,0.0,0.0,0.0,0.0,0.0,0.0,0.0,0.0,0.0,0.0,0.0,0.0,0.0,0.0,0.0,0.0,0.0,0.0,0.0,0.0,0.0,0.0,0.0,0.0,0.0,0.0,0.0,0.0,0.0,0.0,0.0,0.0,0.0,0.0,0.0,0.0,0.0,0.0,0.0,0.0,0.0,0.0,0.0,0.0,0.0,0.0,0.0,0.0,0.0,0.0,0.0,0.0,0.0,0.0,0.0,0.0,0.0,0.0,0.0,0.0,0.0,0.0,0.0,0.0,0.0,0.0,0.0,0.0,0.0,0.0,0.0,0.0,0.0,0.0,0.0,0.0,0.0,0.0,0.0,0.0,0.0,0.0,0.0,0.0,0.0,0.0,0.0,0.0,0.0,0.0,0.0,0.0,0.0,0.0,0.0,0.0,0.0,0.0,0.0,0.0,0.0,0.0,0.0,0.0,0.0,0.0,0.0,0.0,0.0,0.0,0.0,0.0,0.0,0.0,0.0,0.0,0.0,0.0,0.0,0.0,0.0,0.0,0.0,0.0,0.0,0.0,0.0,0.0,0.0,0.0,0.0,0.0,0.0,0.0,0.0,0.0,0.0,0.0,0.0,0.0,0.0,0.0,0.0,0.0,0.0,0.0,0.0,0.0,0.0,0.0,0.0,0.0,0.0,0.0,0.0,0.0,0.0,0.0,0.0,0.0,0.0,0.0,0.0,0.0,0.0,0.0,0.0,0.0,0.0,0.0,0.0,0.0,0.0,0.0,0.0,0.0,0.0,0.0,0.0,0.0,0.0,0.0,0.0,0.0,0.0,0.0,0.0,0.0,0.0,0.0,0.0,0.0,0.0,0.0,0.0,0.0,0.0,0.0,0.0,0.0,0.0,0.0,0.0,0.0,0.0,0.0,0.0,0.0,0.0,0.0,0.0,0.0,0.0,0.0,0.0,0.0,0.0,0.0,0.0,0.0,0.0,0.0,0.0,0.0,0.0,0.0,0.0,0.0,0.0,0.0,0.0,0.0,0.0,0.0,0.0,0.0,0.0,0.0,0.0,0.0,0.0,0.0,0.0,0.0,0.0,0.0,0.0,0.0,0.0,0.0,0.0,0.0,0.0,0.0,0.0,0.0,0.0,0.0,0.0,0.0,0.0,0.0,0.0,0.0,0.0,0.0,0.0,0.0,0.0,0.0,0.0,0.0,0.0,0.0,0.0,0.0,0.0,0.0,0.0,0.0,0.0,0.0,0.0,0.0,0.0,0.0,0.0,0.0,0.0,0.0,0.0,0.0,0.0,0.0,0.0,0.0,0.0,0.0,0.0,0.0,0.0,0.0,0.0,0.0,0.0,0.0,0.0,0.0,0.0,0.0,0.0,0.0,0.0,0.0,0.0,0.0,0.0,0.0,0.0,0.0,0.0,0.0,0.0,0.0,0.0,0.0,0.0,0.0,0.0,0.0,0.0,0.0,0.0,0.0,0.0,0.0,0.0,0.0,0.0,0.0,0.0,0.0,0.0,0.0,0.0,0.0,0.0,0.0,0.0,0.0,0.0,0.0,0.0,0.0,0.0,0.0,0.0,0.0,0.0,0.0,0.0,0.0,0.0,0.0,0.0,0.0,0.0,0.0,0.0,0.0,0.0,0.0,0.0,0.0,0.0,0.0,0.0,0.0,0.0,0.0,0.0,0.0,0.0,0.0,0.0,0.0,0.0,0.0,0.0,0.0,0.0,0.0,0.0,0.0,0.0,0.0,0.0,0.0,0.0,0.0,0.0,0.0,0.0,0.0,0.0,0.0,0.0,0.0,0.0,0.0,0.0,0.0,0.0,0.0,0.0,0.0,0.0,0.0,0.0,0.0,0.0,0.0,0.0,0.0,0.0,0.0,0.0,0.0,0.0,0.0,0.0,0.0,0.0,0.0,0.0,0.0,0.0,0.0,0.0,0.0,0.0,0.0,0.0,0.0,0.0,0.0,0.0,0.0,0.0,0.0,0.0,0.0,0.0,0.0,0.0,0.0,0.0,0.0,0.0,0.0,0.0,0.0,0.0,0.0,0.0,0.0,0.0,0.0,0.0,0.0,0.0,0.0,0.0,0.0,0.0,0.0,0.0,0.0,0.0,0.0,0.0,0.0,0.0,0.0,0.0,0.0,0.0,0.0,0.0,0.0,0.0,0.0,0.0,0.0,0.0,0.0,0.0,0.0,0.0,0.0,0.0,0.0,0.0,0.0,0.0,0.0,0.0,0.0,0.0,0.0,0.0,0.0,0.0,0.0,0.0,0.0,0.0,0.0,0.0,0.0,0.0,0.0,0.0,0.0,0.0,0.0,0.0,0.0,0.0,0.0,0.0,0.0,0.0,0.0,0.0,0.0,0.0,0.0,0.0,0.0,0.0,0.0,0.0,0.0,0.0,0.0,0.0,0.0,0.0,0.0,0.0,0.0,0.0,0.0,0.0,0.0,0.0,0.0,0.0,0.0,0.0,0.0,0.0,0.0,0.0,0.0,0.0,0.0,0.0,0.0,0.0,0.0,0.0,0.0,0.0,0.0,0.0,0.0,0.0,0.0,0.0,0.0,0.0,0.0,0.0,0.0,0.0,0.0,0.0,0.0,0.0,0.0,0.0,0.0,0.0,0.0,0.0,0.0,0.0,0.0,0.0,0.0,0.0,0.0,0.0,0.0,0.0,0.0,0.0,0.0,0.0,0.0,0.0,0.0,0.0,0.0,0.0,0.0,0.0,0.0,0.0,0.0,0.0,0.0,0.0,0.0,0.0,0.0,0.0,0.0,0.0,0.0,0.0,0.0,0.0,0.0,0.0,0.0,0.0,0.0,0.0,0.0,0.0,0.0,0.0,0.0,0.0,0.0,0.0,0.0,0.0,0.0,0.0,0.0,0.0,0.0,0.0,0.0,0.0,0.0,0.0,0.0,0.0,0.0,0.0,0.0,0.0,0.0,0.0,0.0,0.0,0.0,0.0,0.0,0.0,0.0,0.0,0.0,0.0,0.0,0.0,0.0,0.0,0.0,0.0,0.0,0.0,0.0,0.0,0.0,0.0,0.0,0.0,0.0,0.0,0.0,0.0,0.0,0.0,0.0,0.0,0.0,0.0,0.0,0.0,0.0,0.0,0.0,0.0,0.0,0.0,0.0,0.0,0.0,0.0,0.0,0.0,0.0,0.0,0.0,0.0,0.0,0.0,0.0,0.0,0.0,0.0,0.0,0.0,0.0,0.0,0.0,0.0,0.0,0.0,0.0,0.0,0.0,0.0,0.0,0.0,0.0,0.0,0.0,0.0,0.0,0.0,0.0,0.0,0.0,0.0,0.0,0.0,0.0,0.0,0.0,0.0,0.0,0.0,0.0,0.0,0.0,0.0,0.0,0.0,0.0,0.0,0.0,0.0,0.0,0.0,0.0,0.0,0.0,0.0,0.0,0.0,0.0,0.0,0.0,0.0,0.0,0.0,0.0,0.0,0.0,0.0,0.0,0.0,0.0,0.0,0.0,0.0,0.0,0.0,0.0,0.0,0.0,0.0,0.0,0.0,0.0,0.0,0.0,0.0,0.0,0.0,0.0,0.0,0.0,0.0,0.0,0.0,0.0,0.0,0.0,0.0,0.0,0.0,0.0,0.0,0.0,0.0,0.0,0.0,0.0,0.0,0.0,0.0,0.0,0.0,0.0,0.0,0.0,0.0,0.0,0.0,0.0,0.0,0.0,0.0,0.0,0.0,0.0,0.0,0.0,0.0,0.0,0.0,0.0,0.0,0.0,0.0,0.0,0.0,0.0,0.0,0.0,0.0,0.0,0.0,0.0,0.0,0.0,0.0,0.0,0.0,0.0,0.0,0.0,0.0,0.0,0.0,0.0,0.0,0.0,0.0,0.0,0.0,0.0,0.0,0.0,0.0,0.0,0.0,0.0,0.0,0.0,0.0,0.0,0.0,0.0,0.0,0.0,0.0,0.0,0.0,0.0,0.0,0.0,0.0,1.0014,0.0,0.0,0.0,0.0,0.0,0.0,0.0,0.0,0.0,0.0,0.0,0.0,0.0,0.0,0.0,0.0,0.0,0.0,0.0,0.0,0.0,0.0,0.0,0.0,0.0,0.0,0.0,0.0,0.0,0.0,0.0,0.0,0.0,0.0,0.0,0.0,0.0,0.0,0.0,3.0317,2.972,2.8603,2.8809,2.8447,2.7617,0.0,0.0,0.0,0.0,0.0,0.0,0.0,0.0,0.0,0.0,0.0,0.0,0.0,0.0,0.0,0.0,0.0,0.0,0.0,0.0,0.0,0.0,0.0,0.0,0.0,0.0,0.0,0.0,0.0,0.0,0.0,0.0,0.0,0.0,0.0,0.0,0.0,0.0,0.0,0.0,0.0,0.0,0.0,0.0,0.0,0.0,0.0,0.0,0.0,0.0,0.0,0.0,0.0,0.0,0.0,0.0,0.0,0.0,0.0,0.0,0.0,0.0,0.0,0.0,0.0,0.0,0.0,0.0,0.0,0.0,0.0,1.1152,0.0,0.0,0.0,0.0,0.0,0.0,0.0,0.0,0.0,0.0,0.0,0.0,0.0,0.0,0.0,0.0,0.0,0.0,0.0,0.0,0.0,0.0,0.0,0.0,3.4931,3.5583,3.6094,3.6405,0.0,0.0,0.0,0.0,0.0,0.0,0.0,3.3601,3.223,3.0669,3.0402,2.9964,2.9385,2.9814,2.9609,2.8828,2.8096,0.0,0.0,0.0,0.0,0.0,0.0,0.0,0.0,0.0,0.0,0.0,0.0,0.0,0.0,0.0,0.0,0.0,0.0,0.0,0.0,0.0,0.0,0.0,0.0,0.0,0.0,0.0,0.0,0.0,0.0,0.0,0.0,0.0,0.0,0.0,0.0,0.0,0.0,0.0,0.0,0.0,0.0,0.0,0.0,0.0,0.0,0.0,0.0,0.0,0.0,0.0,0.0,0.0,0.0,0.0,0.0,0.0,0.0,0.0,0.0,0.0,0.0,0.0,1.6392,1.6608,1.682,1.6675,1.6658,1.6636,1.53,1.4423,1.3796,0.0,0.0,0.0,0.0,0.0,0.0,0.0,0.0,0.0,0.0,0.0,0.0,0.0,0.0,0.0,0.0,0.0,0.0,0.0,0.0,0.0,0.0,3.4675,3.514,3.6216,3.6367,3.6405,0.0,0.0,0.0,0.0,0.0,0.0,3.6168,3.5953,3.4593,3.2028,3.0819,3.0533,3.1182,3.1621,3.1562,3.1006,2.9072,2.8174,2.8047,0.0,0.0,0.0,0.0,0.0,0.0,0.0,0.0,0.0,0.0,0.0,0.0,0.0,0.0,0.0,0.0,0.0,0.0,0.0,0.0,0.0,0.0,0.0,0.0,0.0,0.0,0.0,0.0,0.0,0.0,0.0,0.0,0.0,0.0,0.0,0.0,0.0,0.0,0.0,0.0,0.0,1.6493,1.6246,0.0,0.0,0.0,0.0,0.0,0.0,0.0,0.0,0.0,0.0,0.0,0.0,0.0,1.7645,1.7934,1.8699,1.9042,1.8894,2.0651,2.1365,2.1143,2.0648,2.0556,2.0752,2.0067,0.0,1.4738,1.3638,0.0,0.0,0.0,0.0,0.0,0.0,0.0,0.0,0.0,0.0,0.0,0.0,0.0,0.0,0.0,0.0,0.0,0.0,0.0,0.0,0.0,3.4625,3.5332,3.5868,3.7613,3.8165,3.6958,3.7713,0.0,0.0,0.0,3.6405,3.6405,3.6405,3.5429,3.3417,3.2238,3.1973,3.2598,3.3037,3.3135,3.29,3.1709,3.0371,2.8975,2.8418,0.0,0.0,0.0,0.0,0.0,0.0,0.0,0.0,0.0,0.0,0.0,0.0,0.0,0.0,0.0,0.0,0.0,0.0,0.0,0.0,0.0,0.0,0.0,0.0,0.0,0.0,0.0,0.0,0.0,0.0,0.0,0.0,0.0,0.0,0.0,0.0,0.0,0.0,0.0,1.648,1.672,1.6099,1.6573,1.6707,0.0,0.0,0.0,0.0,0.0,0.0,0.0,0.0,0.0,1.9646,2.0035,2.0362,2.0483,2.1168,2.1533,2.1577,2.2354,2.2692,2.2726,2.2291,2.2071,2.2017,2.1597,2.0289,1.8306,1.642,1.5294,1.4598,0.0,0.0,0.0,0.0,1.2288,1.2301,0.0,0.0,0.0,0.0,0.0,0.0,0.0,0.0,0.0,0.0,0.0,0.0,3.3658,3.5052,3.6147,3.6724,3.8956,3.9609,3.7939,3.8467,0.0,0.0,3.6157,3.6157,3.6157,3.6397,3.597,3.4835,3.424,3.3978,3.4101,3.4639,3.4834,3.4726,3.4394,3.2939,3.0741,3.0194,2.9101,2.7793,0.0,0.0,0.0,0.0,0.0,0.0,0.0,0.0,0.0,0.0,0.0,0.0,0.0,0.0,0.0,0.0,0.0,0.0,0.0,0.0,0.0,0.0,0.0,0.0,0.0,0.0,0.0,0.0,0.0,0.0,0.0,0.0,0.0,0.0,0.0,0.0,0.0,1.6834,1.7213,1.6273,1.7148,1.7422,0.0,0.0,0.0,0.0,0.0,0.0,1.9005,1.988,2.0528,2.0895,2.1904,2.2478,2.2552,2.306,2.3434,2.3661,2.3347,2.3327,2.3541,2.3153,2.2812,2.2512,2.2225,2.1764,2.1066,1.8902,1.7531,1.6637,1.512,1.4181,1.3774,1.3957,1.3907,1.3881,0.0,0.0,0.0,0.0,0.0,0.0,0.0,0.0,0.0,0.0,0.0,3.3671,3.5207,3.6433,3.7952,4.0086,3.9936,3.9685,3.9572,3.7712,3.6245,3.5571,3.5545,3.5545,3.5545,3.6378,3.6617,3.6278,3.6852,3.6684,3.5908,3.6748,3.6924,3.6543,3.6514,3.5517,3.3711,3.168,3.0537,2.9846,2.7842,0.0,0.0,0.0,0.0,0.0,0.0,0.0,0.0,0.0,0.0,0.0,0.0,0.0,0.0,0.0,0.0,0.0,0.0,0.0,0.0,0.0,0.0,0.0,0.0,0.0,0.0,0.0,0.0,0.0,0.0,0.0,0.0,0.0,0.0,0.0,0.0,0.0,0.0,1.7239,1.8611,0.0,0.0,0.0,0.0,1.8397,1.9185,1.9927,2.0535,2.1403,2.2138,2.278,2.3347,2.3814,2.4088,2.4396,2.4556,2.4569,2.4275,2.4142,2.4142,2.3567,2.3133,2.2887,2.2525,2.2071,2.1501,2.02,1.9303,1.8705,1.8039,1.7569,1.7358,1.7371,1.7364,1.7358,0.0,0.0,0.0,0.0,0.0,0.0,0.0,0.0,3.2416,3.3006,3.3696,3.4638,3.5956,3.804,3.9936,4.1442,4.2371,4.2409,4.1408,3.9534,3.809,3.7174,3.6072,3.5997,3.7111,3.7475,3.8111,3.8966,3.8664,3.8537,3.8511,3.7966,3.7773,3.7881,3.7607,3.6982,3.6006,3.3848,3.206,3.0518,2.8896,2.7568,0.0,0.0,0.0,0.0,0.0,0.0,0.0,0.0,0.0,0.0,0.0,0.0,0.0,0.0,0.0,0.0,0.0,0.0,0.0,0.0,0.0,0.0,0.0,0.0,0.0,0.0,0.0,0.0,0.0,0.0,0.0,0.0,0.0,0.0,0.0,0.0,0.0,1.8646,1.9633,0.0,1.9098,1.9205,1.9492,1.9867,2.0541,2.1349,2.2331,2.2859,2.3487,2.4269,2.4502,2.4663,2.4763,2.4683,2.4543,2.4349,2.3868,2.3534,2.3327,2.2926,2.2478,2.2083,2.1911,2.1637,2.1236,2.0815,2.0187,1.9446,1.9045,1.8477,1.7903,1.8096,1.8043,1.7883,0.0,0.0,0.0,0.0,0.0,0.0,0.0,0.0,3.1938,3.2692,3.3759,3.5165,3.7036,3.9371,4.1543,4.3401,4.4041,4.3802,4.2577,4.035,3.8542,3.7236,3.6273,3.6697,3.853,3.9361,4.0258,4.1247,4.0578,4.0206,4.0145,3.8766,3.8301,3.8564,3.8271,3.791,3.7402,3.583,3.376,3.1426,3.0117,2.8896,2.7715,0.0,0.0,0.0,0.0,0.0,0.0,0.0,0.0,0.0,0.0,0.0,0.0,0.0,0.0,0.0,0.0,0.0,0.0,0.0,0.0,0.0,0.0,0.0,0.0,0.0,0.0,0.0,0.0,0.0,0.0,0.0,0.0,0.0,0.0,0.0,1.97,1.9793,2.0848,2.1263,2.0468,2.0661,2.0995,2.1383,2.2058,2.2792,2.3581,2.3995,2.4429,2.4917,2.493,2.4883,2.4783,2.4589,2.4295,2.3901,2.3407,2.3013,2.2706,2.2405,2.2011,2.1614,2.1614,2.1383,2.1109,2.1109,2.0648,1.9927,1.9733,1.9178,1.8517,1.8711,1.8657,1.8464,0.0,0.0,0.0,0.0,0.0,0.0,0.0,3.0593,3.1009,3.2102,3.3244,3.5215,3.858,4.04,4.2692,4.605,4.4782,4.3576,4.3037,3.9848,3.7262,3.5596,3.6157,3.7513,3.9697,4.1907,4.3045,4.3031,4.27,4.1954,4.0745,3.9411,3.871,3.8574,3.8647,3.8402,3.7891,3.749,3.5605,3.2783,3.1475,3.041,2.9424,0.0,0.0,0.0,0.0,0.0,0.0,0.0,0.0,0.0,0.0,0.0,0.0,0.0,0.0,0.0,0.0,0.0,0.0,0.0,0.0,0.0,0.0,0.0,0.0,0.0,0.0,0.0,0.0,0.0,0.0,0.0,0.0,0.0,1.8718,1.9913,2.1099,2.0802,2.2291,2.2893,2.1809,2.2479,2.2981,2.2975,2.3734,2.4242,2.4235,2.477,2.495,2.4669,2.4636,2.4489,2.4215,2.4189,2.3888,2.3307,2.2999,2.2692,2.2385,2.2104,2.181,2.1601,2.1601,2.1376,2.1109,2.1096,2.0755,2.0173,2.0173,1.988,1.9424,1.9424,1.9417,1.9272,0.0,0.0,0.0,0.0,0.0,0.0,0.0,3.0362,3.1148,3.2641,3.4161,3.6207,3.9145,4.1656,4.4141,4.669,4.4995,4.374,4.3589,3.9697,3.7023,3.6169,3.7462,3.9032,4.0852,4.3049,4.4548,4.5375,4.515,4.418,4.2573,4.2573,4.1134,3.8647,3.9952,3.9565,3.792,3.7803,3.6738,3.4961,3.3037,3.1572,3.0342,0.0,0.0,0.0,0.0,0.0,0.0,0.0,0.0,0.0,0.0,0.0,0.0,0.0,0.0,0.0,0.0,0.0,0.0,0.0,0.0,0.0,0.0,0.0,0.0,0.0,0.0,0.0,0.0,0.0,0.0,0.0,0.0,2.5164,2.2104,2.2678,2.3257,2.3004,2.3354,2.3601,2.3487,2.3881,2.4062,2.3855,2.4656,2.5064,2.485,2.499,2.5144,2.5271,2.4656,2.4382,2.4516,2.3881,2.3374,2.2986,2.2686,2.2278,2.179,2.171,2.151,2.1229,2.1229,2.1182,2.1089,2.0882,2.0575,2.0173,2.0173,1.988,1.9424,1.9424,1.9232,1.8991,0.0,0.0,0.0,0.0,0.0,0.0,0.0,2.998,3.0803,3.2511,3.4317,3.6473,3.9069,4.1392,4.3564,4.556,4.3915,4.2672,4.2434,3.9358,3.76,3.78,3.9132,4.0676,4.2333,4.4317,4.5874,4.6979,4.6311,4.5575,4.4761,4.4312,4.2522,3.9746,4.085,4.0157,3.8193,3.8193,3.7559,3.6426,3.499,3.3535,3.2012,3.0107,2.9228,2.8857,2.7627,2.75,2.7764,2.6641,0.0,0.0,0.0,0.0,0.0,0.0,0.0,0.0,0.0,0.0,0.0,0.0,0.0,0.0,0.0,0.0,0.0,0.0,0.0,0.0,0.0,0.0,0.0,0.0,2.7799,2.7928,2.5882,2.5344,2.4889,2.4042,2.4062,2.4249,2.4543,2.4609,2.4616,2.4576,2.5044,2.5204,2.491,2.501,2.5044,2.497,2.4469,2.4108,2.3895,2.3387,2.2853,2.2378,2.2138,2.1817,2.137,2.137,2.1269,0.0,2.1109,2.1109,2.1089,2.0795,2.0501,0.0,0.0,0.0,0.0,0.0,1.9072,1.8865,0.0,0.0,0.0,0.0,0.0,0.0,0.0,2.9442,3.0218,3.1866,3.4047,3.6223,3.8442,4.0162,4.1764,4.3463,4.2108,4.094,4.0463,3.9032,3.873,3.9923,4.1091,4.2311,4.3654,4.5567,4.6919,4.767,4.6621,4.6238,4.6465,4.4846,4.2999,4.0992,4.1195,4.03,3.8574,3.8574,3.8105,3.7334,3.6914,3.5674,3.3857,3.1865,3.1045,3.0742,2.9043,2.8506,2.8447,2.748,0.0,0.0,0.0,0.0,0.0,0.0,0.0,0.0,0.0,0.0,0.0,0.0,0.0,0.0,0.0,0.0,0.0,0.0,0.0,0.0,0.0,0.0,0.0,0.0,3.0537,3.0757,2.9547,2.8225,2.6572,2.4505,2.4482,2.4743,2.5003,2.4823,2.4783,2.501,2.509,2.4983,2.4656,0.0,0.0,0.0,0.0,2.3774,2.3042,2.2928,2.2472,2.1661,2.1635,2.1396,2.1109,2.1109,2.1109,2.1109,2.1109,2.1109,2.1089,2.0795,2.0481,2.0154,1.9867,1.9593,1.9332,1.9072,1.8951,1.8844,0.0,0.0,0.0,0.0,0.0,0.0,0.0,2.8436,3.0041,3.1256,3.3387,3.5554,3.7312,3.9007,4.0676,4.2389,4.0965,3.9973,3.986,3.9546,4.0061,4.1672,4.3162,4.361,4.2915,4.6489,4.7665,4.6386,4.655,4.597,4.4584,4.4242,4.2312,3.9198,4.0647,4.03,3.8574,3.8574,3.8271,3.7764,3.7344,3.5928,3.3955,3.2851,3.2002,3.1211,2.9824,2.9785,3.0146,2.8574,2.8506,2.8867,2.7666,2.7051,0.0,0.0,0.0,0.0,0.0,0.0,0.0,0.0,0.0,0.0,0.0,0.0,0.0,0.0,0.0,0.0,0.0,0.0,0.0,3.0312,3.1924,3.2676,3.1912,3.1885,3.0074,2.5116,2.4603,2.4656,2.4716,2.489,2.4917,2.4736,2.5157,2.5197,2.4663,2.4917,0.0,2.4563,2.4102,2.3774,2.3594,2.2873,2.2298,2.1897,0.0,0.0,2.1109,2.1109,2.1109,2.1109,2.1109,2.1109,2.1089,2.0795,2.0361,1.9853,1.9566,1.9477,1.9417,1.9305,1.9132,1.8871,0.0,0.0,0.0,0.0,0.0,0.0,0.0,2.7762,2.9026,3.0157,3.2333,3.4117,3.4973,3.6834,3.8404,3.9233,3.8755,3.868,3.9245,4.0061,4.1379,4.3313,4.4468,4.4489,4.3253,4.5733,4.6081,4.4271,4.5966,4.5862,4.4116,4.505,4.3462,4.0023,4.0921,4.03,3.8574,3.8574,3.8203,3.7598,3.7383,3.6269,3.4639,3.3769,3.2773,3.1728,3.0859,3.0693,3.0693,2.9375,2.9219,2.9385,2.832,2.7685,2.7256,0.0,0.0,0.0,0.0,0.0,0.0,0.0,0.0,0.0,0.0,0.0,0.0,0.0,0.0,2.5986,0.0,0.0,2.9639,3.1807,3.3057,3.3522,3.2916,3.3044,3.1395,2.6641,2.6071,2.5702,2.4918,2.4857,2.4857,2.4857,2.499,2.4943,2.4649,2.4643,2.4509,2.4209,2.3781,2.3333,2.2879,2.2425,2.1977,2.1543,2.1396,2.1256,2.1109,2.1109,2.1109,2.1109,2.1109,2.1109,2.1076,2.0635,2.0107,1.9573,1.9426,1.9424,1.939,1.9038,1.8831,1.8644,0.0,0.0,0.0,0.0,0.0,0.0,0.0,2.7155,2.7955,2.8901,3.1229,3.2754,3.2754,3.4708,3.6091,3.6091,3.6847,3.7864,3.9107,4.0739,4.2647,4.4857,4.5288,4.4829,4.3502,4.446,4.4124,4.2381,4.4638,4.4971,4.3553,4.4698,4.3589,4.0779,4.0779,3.9962,3.8574,3.8574,3.8174,3.7529,3.7363,3.6582,3.541,3.4443,3.3379,3.2344,3.1826,3.126,3.0644,2.9932,2.9639,2.9509,2.876,2.8252,2.7803,2.7295,2.666,0.0,0.0,0.0,0.0,0.0,0.0,0.0,0.0,0.0,2.5146,2.5898,2.6523,2.7324,2.8779,2.9541,3.0713,3.3047,3.3857,3.4112,3.3683,3.3624,3.2323,2.8798,2.8075,2.7288,2.56,2.5186,2.5032,2.497,2.477,2.4636,2.4636,2.4362,2.4095,2.3861,2.3514,2.2953,2.2164,2.2044,2.1717,2.1196,2.1445,2.1418,2.1109,2.1418,2.1607,2.1601,2.1539,2.133,2.0982,2.0388,2.0045,1.9891,1.9836,1.9982,2.015,1.905,1.8624,1.8497,0.0,0.0,0.0,0.0,0.0,0.0,0.0,0.0,2.7636,2.7767,3.0364,3.2172,3.2172,3.3822,3.4901,3.4901,3.6747,3.8605,4.0224,4.1869,4.379,4.6024,4.5558,4.4396,4.2579,4.3635,4.3319,4.145,4.1756,4.1809,4.1608,4.0167,3.9271,3.8928,3.8928,3.8783,3.8574,3.8574,3.8516,3.8369,3.7607,3.6758,3.581,3.4551,3.374,3.3174,3.2383,3.1309,3.0264,3.0166,2.9883,2.9551,2.9518,2.9131,2.8623,2.7832,0.0,2.5098,2.456,2.3812,2.3393,2.4111,2.4346,2.4805,0.0,0.0,2.6865,2.7353,2.8086,2.8809,2.9394,3.0488,3.1768,3.3193,3.4101,3.4758,3.5103,3.5181,3.4202,3.1687,3.0272,2.8663,2.6801,2.6565,2.6049,2.4737,2.4656,2.4636,2.4636,2.4362,2.4189,2.4155,2.3614,2.3146,2.2766,2.2245,2.1824,2.1568,2.2727,2.2529,2.1172,2.2647,2.3325,2.3311,2.3022,2.2053,2.0681,2.0094,2.0607,2.1699,2.1476,2.2145,2.2983,2.0301,1.9105,1.8831,0.0,0.0,0.0,0.0,0.0,0.0,0.0,0.0,0.0,2.6476,2.8256,2.9553,2.9783,3.1784,3.2974,3.2702,3.4591,3.6595,3.8396,3.9843,4.1504,4.3573,4.3639,4.2759,4.0961,4.1618,4.1137,3.9292,4.0644,4.0779,3.9746,4.0023,3.9612,3.8574,3.8574,3.8574,3.8574,3.8574,3.8428,3.8144,3.7539,3.6787,3.5879,3.457,3.334,3.2168,3.1055,3.0137,0.0,2.8887,2.8603,2.856,2.875,2.8535,2.8066,2.7471,2.6602,0.0,2.4678,2.4485,2.4621,0.0,2.5557,2.6494,2.7226,2.7578,2.7949,2.8633,2.9248,2.9873,3.0576,3.1357,3.2226,0.0,3.4141,3.4766,3.4961,3.499,3.4367,3.2649,3.1894,3.0094,2.6585,2.6213,2.5666,2.4253,2.4128,2.4128,2.4128,2.3855,2.3694,2.3694,2.3106,2.2659,2.2352,2.1937,2.1735,2.1614,2.2993,2.3304,2.2856,2.4317,2.5016,2.5008,2.4865,2.4149,2.3111,2.2889,2.2887,2.302,2.2926,2.3263,2.363,2.2218,2.1618,2.1309,0.0,0.0,0.0,0.0,0.0,0.0,0.0,0.0,0.0,0.0,2.6985,2.8041,2.8823,3.0355,3.1249,3.0909,3.2382,3.4155,3.6144,3.7565,3.9288,4.134,4.175,4.1345,4.0281,4.0315,3.9646,3.8281,3.99,3.994,3.8471,3.9901,3.9758,3.8232,3.835,3.8398,3.8389,3.8271,3.8105,3.7861,3.7207,3.6426,3.5488,3.3955,3.2373,3.0859,2.9912,2.8984,2.8125,2.7519,2.7236,2.7207,2.7637,2.7559,2.7256,2.6934,2.6367,2.5664,2.4824,0.0,0.0,2.5742,2.6877,2.7953,2.8188,2.8516,2.9033,2.9785,3.0176,3.0615,3.1377,3.1777,3.2266,3.3115,3.3867,3.4346,3.4346,3.4346,3.3916,3.2764,3.2519,3.0939,2.7002,2.6831,2.6458,2.5191,2.5087,2.5122,2.5207,2.4909,2.4739,2.4739,2.4274,2.3833,2.3585,2.3278,2.3086,2.2993,2.4277,2.4788,2.4586,2.6047,2.6409,2.6029,2.6251,2.5797,2.4887,2.4688,2.4519,2.4433,2.4433,2.4654,2.5015,2.48,2.4139,2.3094,0.0,0.0,0.0,0.0,0.0,0.0,0.0,0.0,0.0,0.0,0.0,0.0,0.0,3.0273,3.0066,3.0055,3.0701,3.1946,3.396,3.5902,3.8005,4.0437,4.0525,4.0773,4.1153,4.0308,3.9684,3.916,3.9244,3.8833,3.7949,3.8451,3.8197,3.7353,3.7764,3.7939,3.792,3.751,3.7568,3.7812,3.6562,3.5527,3.4512,3.2402,3.0781,2.9675,2.9636,2.8232,2.6465,2.6435,2.6143,2.582,2.6309,2.6435,0.0,2.6406,2.5488,2.456,2.4988,0.0,2.5536,2.7219,2.793,2.8486,2.9381,2.9834,3.0273,3.0752,3.0859,3.1006,3.1435,3.1533,3.1816,3.2676,3.3174,3.3457,3.3457,3.3457,3.3144,3.2285,3.1816,3.0816,0.0,2.9467,2.9452,2.8331,2.8254,2.84,2.8809,2.856,2.8439,2.8439,2.8146,2.7843,2.7546,2.7128,2.6775,2.6475,2.7695,2.7452,2.5993,2.7632,2.7503,2.6064,2.6892,2.6385,2.4845,2.4144,2.4671,2.6036,2.6036,2.6888,2.8174,2.8165,2.6072,2.3135,0.0,0.0,0.0,0.0,0.0,0.0,0.0,0.0,0.0,0.0,0.0,0.0,0.0,0.0,0.0,0.0,2.9112,3.0228,3.1752,3.3085,3.4502,3.6177,3.7334,3.8167,3.8597,3.8295,3.8232,3.835,3.8076,3.7793,3.7519,3.7656,3.7578,3.7305,3.7441,3.7666,3.7891,3.7471,3.7383,3.7402,3.6113,3.5078,3.4053,3.1914,3.0107,2.8574,0.0,2.6377,2.5468,2.4853,2.457,2.4521,2.4941,2.5078,2.5137,2.543,2.541,2.5401,2.6162,0.0,2.79,2.9053,2.9687,3.0166,3.0732,3.0752,3.0615,3.0459,2.998,2.9541,2.9404,2.9844,3.0322,3.0605,3.2207,3.333,3.3047,3.3242,3.2998,3.1865,3.1611,0.0,0.0,0.0,0.0,2.7867,2.7794,2.8015,2.8443,2.8345,2.8172,2.7867,2.7643,2.7272,2.6821,2.6529,2.6414,2.6459,2.8009,2.8928,2.9285,2.9835,2.9615,2.8772,2.9097,2.8606,2.7502,2.729,2.7349,2.7565,2.7565,2.767,2.7881,2.7881,2.6831,2.5245,0.0,0.0,0.0,0.0,0.0,0.0,0.0,0.0,0.0,0.0,0.0,0.0,0.0,0.0,0.0,0.0,0.0,2.8196,2.938,3.032,3.1348,3.2637,3.4209,3.5264,3.5684,3.583,3.6045,3.6309,3.6201,3.6064,3.5918,3.623,3.6201,3.5928,3.623,3.6523,3.6748,3.6328,3.6055,3.5801,3.4521,3.3301,3.2031,3.0205,2.8525,0.0,2.5547,2.4756,2.4297,2.374,2.3555,2.3633,2.4053,2.4404,2.4707,2.5028,2.5605,2.6395,2.7617,2.8633,2.9619,3.0644,3.1016,3.1182,3.1455,3.1064,3.0518,3.0068,2.9287,2.8564,2.8144,2.8398,2.876,2.9062,3.0508,3.1709,3.207,3.2207,3.2139,3.1797,3.1611,0.0,0.0,0.0,0.0,2.8984,2.9088,2.9397,2.9848,2.9866,2.9696,2.9377,2.9063,2.88,2.8474,2.8148,2.8007,2.7991,2.9116,3.004,3.0889,3.0889,3.0635,3.0185,3.0039,2.957,2.8906,2.876,2.8535,2.8291,2.8291,2.8037,2.7718,2.7718,2.7129,2.6316,0.0,0.0,0.0,0.0,0.0,0.0,0.0,0.0,0.0,0.0,0.0,0.0,0.0,0.0,0.0,0.0,0.0,0.0,2.6924,2.7764,2.8779,3.001,3.1328,3.2226,3.2656,3.3076,3.3301,3.332,3.3721,3.3701,3.331,3.4121,3.4072,3.333,3.4141,3.4512,3.4512,3.4092,3.3662,3.3144,3.1894,3.0371,2.8721,2.7432,2.6162,2.5008,2.4102,2.3516,2.3091,2.3091,2.312,2.3237,2.3721,2.4443,2.5194,2.5233,2.6143,2.7539,2.9219,3.001,3.0664,3.1943,3.1904,3.1543,3.1523,3.0801,3.001,2.956,2.876,2.7998,0.0,0.0,2.7256,2.8096,2.8359,2.9043,3.0723,3.0635,3.085,0.0,0.0,0.0,0.0,0.0,0.0,3.1553,0.0,3.2363,3.2803,3.2832,3.2803,3.2764,3.2373,3.2209,3.21,3.1689,3.1289,3.0889,3.0889,3.0889,3.0889,3.0869,3.0605,3.0137,2.9717,2.9287,2.8857,2.8457,2.8291,2.8291,2.8291,2.8027,2.7679,2.7679,2.709,2.6357,0.0,0.0,0.0,0.0,0.0,0.0,0.0,0.0,0.0,0.0,0.0,0.0,0.0,0.0,0.0,0.0,0.0,0.0,2.6514,2.7051,2.7627,2.8335,2.9541,3.043,3.085,3.1309,3.1689,3.2002,3.1797,3.165,3.1543,3.1758,3.1748,3.1543,3.1758,3.2041,3.2295,3.1885,3.1435,3.0937,2.9971,2.8945,2.7842,2.6553,2.5644,2.5008,2.4102,2.3516,2.3091,0.0,0.0,0.0,0.0,2.5352,2.6182,2.6867,2.8154,2.9592,3.0732,3.1787,3.2754,3.3418,3.2793,3.1924,3.1592,3.0342,2.9033,2.8301,2.6994,2.5762,0.0,0.0,0.0,2.7256,2.9228,0.0,3.1738,3.2559,0.0,3.3105,0.0,3.3213,3.2685,3.2539,0.0,0.0,3.21,3.249,3.3223,3.3262,3.2978,3.2353,3.2226,3.1865,3.1221,3.1103,3.0996,3.0889,3.0889,3.0889,3.0879,3.0537,3.0137,2.9707,2.9268,2.8848,2.8447,2.834,2.8291,2.8291,2.8291,2.7832,2.7178,2.7178,2.6641,2.5908,0.0,0.0,0.0,0.0,0.0,0.0,0.0,0.0,0.0,0.0,0.0,0.0,0.0,0.0,0.0,0.0,0.0,0.0,0.0,2.6318,2.6475,2.6573,2.7258,2.7617,2.7656,2.791,2.8359,2.892,2.875,2.8818,2.9189,2.9189,2.9189,2.9199,2.9394,2.9609,2.9814,2.958,2.9111,0.0,0.0,2.6894,2.5938,2.5156,2.4609,2.416,2.3672,2.3467,0.0,0.0,0.0,2.5391,2.6065,2.6934,2.7959,2.8828,0.0,3.1318,3.2353,3.3291,3.3994,3.4062,3.3115,3.1953,3.1123,2.9609,2.8076,2.7031,2.5732,0.0,0.0,0.0,0.0,0.0,0.0,0.0,3.166,3.25,3.3213,0.0,3.4043,0.0,3.3408,3.3184,3.2969,0.0,3.2549,3.2568,3.2861,3.2871,3.2568,3.1904,3.1699,3.1377,3.0898,3.0889,3.0889,3.0889,3.0889,3.0889,3.0869,3.041,2.9971,2.9541,0.0,2.8682,2.8291,2.8291,2.8291,2.8291,2.8291,2.7773,2.7012,2.7012,2.6475,2.5693,0.0,0.0,0.0,0.0,0.0,0.0,0.0,0.0,0.0,0.0,0.0,0.0,0.0,0.0,0.0,0.0,0.0,0.0,0.0,0.0,2.5478,2.5135,2.5057,2.4805,2.4424,2.4414,2.4748,2.5508,2.5508,2.5888,2.667,2.667,2.667,2.6689,2.706,2.7236,2.7236,2.7236,2.6878,2.6241,2.5818,2.4989,2.3959,0.0,2.3801,2.3343,2.3343,0.0,0.0,0.0,2.5918,2.6719,2.7679,2.8892,3.0078,3.0898,3.1787,3.2744,3.3857,3.4463,3.4687,3.4258,3.3154,3.1807,3.043,2.876,2.7129,2.5781,0.0,2.4131,2.3769,2.3799,2.4316,2.5635,0.0,2.8281,3.1191,3.1748,3.2568,3.4473,3.4434,3.4219,3.416,3.376,3.3486,3.3428,3.3037,3.2637,3.2275,3.2256,3.2021,3.1533,3.1103,3.0889,3.0889,3.0889,3.0889,3.0889,3.0889,3.0859,3.0781,3.0322,2.9883,2.9453,0.0,0.0,2.8291,2.8291,2.8291,2.8291,2.8291,2.7773,2.7012,2.7012,2.6475,2.5693,0.0,0.0,0.0,0.0,0.0,0.0,0.0,0.0,0.0,0.0,2.5439,2.5508,0.0,0.0,0.0,0.0,0.0,0.0,0.0,0.0,0.0,2.5116,2.4727,2.4492,2.4414,2.4414,2.4492,2.4648,2.4648,2.4717,2.4863,2.4863,2.4863,2.4873,2.4941,2.498,2.498,2.498,2.5179,2.5592,2.5465,2.5096,2.4742,2.5676,0.0,0.0,0.0,0.0,0.0,0.0,2.7021,2.7708,2.8912,3.0438,3.1816,3.2314,3.331,3.4307,3.4531,3.4922,3.5166,3.4707,3.3369,3.1788,3.0115,2.8086,0.0,0.0,2.3919,2.3296,2.3218,2.3828,0.0,2.6523,0.0,0.0,0.0,0.0,3.3896,0.0,0.0,0.0,0.0,0.0,0.0,0.0,0.0,3.2764,3.2695,3.2685,3.2324,3.1543,3.1103,3.0889,3.0889,3.0889,3.0889,3.0889,3.0889,3.0693,3.0303,2.9873,2.9443,2.9014,2.8584,0.0,2.8291,2.8291,2.8291,2.8291,2.8291,2.7773,2.7012,2.7012,2.6475,2.5693,0.0,0.0,0.0,0.0,0.0,0.0,0.0,2.3176,2.3709,2.5207,2.5801,2.5908,2.5469,2.54,2.5478,0.0,0.0,0.0,0.0,0.0,0.0,0.0,0.0,0.0,2.4092,2.4092,2.4092,2.4092,0.0,2.4092,2.4082,2.3857,2.3705,2.3705,2.3705,2.3705,2.3705,2.3705,2.389,2.421,2.421,2.4079,2.3963,0.0,0.0,0.0,0.0,0.0,0.0,0.0,2.6738,2.8061,2.9971,3.1318,3.2344,3.3203,3.4053,3.4805,3.5264,3.5713,3.584,3.4922,3.3418,3.1592,2.9404,0.0,0.0,0.0,2.3383,2.3091,2.3091,0.0,0.0,0.0,0.0,0.0,0.0,0.0,0.0,0.0,0.0,0.0,0.0,0.0,0.0,0.0,0.0,3.293,3.249,3.2051,3.1621,3.1201,3.0996,3.0889,3.0889,3.0889,3.0889,3.0889,3.0889,3.0644,3.0185,2.9766,2.9336,2.8896,2.8476,0.0,2.8291,2.8291,2.8291,2.8291,2.8291,2.791,2.7324,2.71,2.6621,2.6045,0.0,0.0,0.0,0.0,0.0,0.0,0.0,2.2117,2.2942,2.5013,2.5572,2.5846,2.5859,2.5478,2.5312,0.0,0.0,0.0,0.0,0.0,0.0,0.0,0.0,0.0,0.0,0.0,0.0,0.0,2.3652,0.0,0.0,0.0,0.0,0.0,0.0,2.3266,2.3464,2.3464,2.3757,0.0,0.0,0.0,0.0,0.0,0.0,0.0,0.0,0.0,0.0,0.0,2.6212,2.7562,2.9824,3.1299,3.2405,3.3262,3.4082,3.4873,3.5674,3.6201,3.623,3.501,3.335,3.1377,2.8867,2.6894,0.0,0.0,2.3091,2.3091,2.3091,0.0,2.3965,0.0,0.0,0.0,0.0,0.0,0.0,0.0,0.0,0.0,0.0,0.0,0.0,0.0,0.0,0.0,3.2258,3.1357,3.0889,3.0889,3.0889,3.0889,3.0889,3.0889,3.0889,3.0889,3.0889,3.0605,3.0049,2.9717,2.9287,2.876,2.8437,0.0,0.0,2.8291,2.8291,2.8291,2.8291,2.8037,2.7679,2.7285,2.6826,2.6338,0.0,0.0,0.0,0.0,0.0,0.0,0.0,2.0506,2.1514,2.3633,2.3926,2.4538,2.618,2.5937,2.5527,0.0,0.0,0.0,0.0,0.0,0.0,0.0,0.0,0.0,0.0,0.0,0.0,0.0,0.0,0.0,0.0,0.0,0.0,0.0,0.0,0.0,0.0,2.4617,0.0,0.0,0.0,0.0,0.0,0.0,0.0,0.0,0.0,0.0,0.0,0.0,0.0,2.5605,2.6982,2.9609,3.2119,3.1836,0.0,0.0,3.5312,3.5762,3.585,3.4932,3.3125,3.0996,2.8799,0.0,0.0,2.3364,2.3091,2.3091,2.3091,2.313,2.3603,0.0,0.0,2.628,0.0,0.0,0.0,0.0,0.0,0.0,0.0,0.0,0.0,0.0,0.0,0.0,3.2148,3.1357,3.0889,3.0889,3.0889,3.0889,3.0889,3.0889,3.0889,3.0889,3.0889,3.0449,2.9629,2.9646,2.9121,2.835,2.831,0.0,0.0,2.8291,2.8291,2.8291,2.8291,2.8037,2.7708,2.7669,2.709,2.6387,0.0,0.0,0.0,0.0,0.0,0.0,1.8673,1.9122,2.0014,2.2305,2.3335,2.4236,2.5414,2.5628,2.5615,2.5488,0.0,0.0,0.0,0.0,0.0,0.0,0.0,0.0,0.0,0.0,0.0,2.3525,0.0,0.0,0.0,0.0,0.0,0.0,0.0,0.0,0.0,0.0,0.0,0.0,0.0,0.0,0.0,0.0,0.0,0.0,0.0,0.0,0.0,0.0,0.0,0.0,2.5521,2.7212,0.0,0.0,3.1699,3.3105,3.458,3.5303,3.5488,3.4853,3.29,3.0808,2.9554,0.0,2.492,2.428,2.4125,2.392,2.3222,2.3671,2.4048,2.3908,2.3906,0.0,0.0,0.0,0.0,0.0,0.0,0.0,0.0,0.0,0.0,0.0,0.0,0.0,3.1768,3.1211,3.0889,3.0889,3.0889,3.0889,3.0889,3.0889,3.0889,3.0889,3.0889,3.043,2.9626,2.9626,2.9101,2.8291,2.8291,0.0,0.0,2.8291,2.8291,2.8291,2.8291,2.8193,2.8018,2.7806,2.7285,2.6728,0.0,0.0,0.0,0.0,0.0,1.6205,1.7503,1.7698,1.8533,2.0835,2.1962,2.3055,2.45,2.4955,2.5274,2.5693,2.4884,0.0,0.0,0.0,0.0,0.0,0.0,0.0,0.0,0.0,2.415,2.3975,2.4707,2.4812,0.0,0.0,0.0,0.0,0.0,0.0,0.0,0.0,0.0,0.0,0.0,0.0,0.0,0.0,0.0,0.0,0.0,0.0,0.0,0.0,0.0,0.0,0.0,0.0,0.0,0.0,3.0214,3.1544,3.3532,3.4418,3.4707,3.4248,3.259,3.083,0.0,0.0,2.5822,2.5392,2.5294,2.5052,2.4264,2.4755,2.5052,2.4221,2.38,2.4212,0.0,0.0,0.0,0.0,0.0,0.0,0.0,0.0,0.0,0.0,0.0,0.0,0.0,3.1055,3.0889,3.0889,3.0889,3.0889,3.0889,3.0889,3.082,3.0684,3.0684,3.0225,2.9375,2.9375,2.8984,2.8291,0.0,0.0,0.0,2.8291,2.8291,2.8291,2.8291,2.8291,2.8262,2.7959,2.75,2.6973,0.0,0.0,0.0,0.0,0.0,0.0,1.6274,1.6321,1.7064,1.916,1.93,2.0422,2.3556,2.3791,2.4254,2.5586,2.4884,0.0,0.0,0.0,0.0,0.0,0.0,0.0,0.0,0.0,2.4004,2.4414,2.4853,2.5106,2.5106,2.5106,0.0,0.0,0.0,0.0,0.0,0.0,0.0,0.0,0.0,0.0,0.0,0.0,0.0,0.0,0.0,0.0,0.0,0.0,0.0,0.0,0.0,0.0,0.0,0.0,2.8731,3.0522,3.2095,3.2945,3.334,3.292,3.2069,3.1013,0.0,2.8589,2.7616,2.6685,2.6472,2.6472,2.6483,2.6483,2.6472,2.6483,2.5504,0.0,0.0,0.0,0.0,0.0,0.0,0.0,0.0,0.0,0.0,0.0,0.0,0.0,0.0,3.0889,3.0889,3.0889,3.0889,3.0889,3.0889,3.0889,3.0664,3.0205,3.0205,2.9756,2.8926,2.8926,2.8691,0.0,0.0,0.0,0.0,2.8291,2.8291,2.8291,2.8291,2.8291,2.8291,2.8291,2.7744,2.7012,0.0,0.0,0.0,0.0,0.0,0.0,0.0,1.5972,1.6299,1.7169,1.8045,1.9605,2.2239,2.3054,2.4168,2.6024,2.5371,0.0,0.0,0.0,0.0,0.0,0.0,0.0,0.0,0.0,2.4424,2.4863,2.5605,2.5967,2.5967,2.5967,2.5498,2.4705,0.0,0.0,0.0,0.0,0.0,0.0,0.0,0.0,0.0,0.0,0.0,0.0,0.0,0.0,0.0,0.0,0.0,0.0,0.0,0.0,0.0,2.7981,2.8604,0.0,3.142,3.204,3.2285,3.2892,3.1912,3.0777,3.0774,2.9307,2.7863,2.765,2.7602,2.7371,2.6648,2.7087,2.7476,2.7087,2.6765,0.0,0.0,0.0,0.0,0.0,0.0,0.0,0.0,0.0,0.0,0.0,0.0,0.0,0.0,3.0889,3.0889,3.0889,3.0889,3.0742,3.042,3.042,3.0195,2.9766,2.9766,2.9473,2.8916,2.8916,0.0,0.0,0.0,0.0,0.0,2.966,3.0224,3.0916,3.0016,2.966,2.9525,2.8328,2.75,2.6973,0.0,0.0,0.0,0.0,0.0,0.0,0.0,1.5784,1.5844,1.6079,1.6959,1.8491,2.0933,2.1982,2.345,2.5693,2.5537,0.0,0.0,0.0,0.0,0.0,0.0,0.0,2.3379,2.4062,2.4795,2.5566,2.6445,2.6875,2.6875,2.7031,2.6465,2.5322,2.5322,0.0,0.0,0.0,0.0,0.0,0.0,0.0,3.0281,0.0,0.0,0.0,0.0,0.0,0.0,0.0,0.0,0.0,0.0,0.0,0.0,0.0,2.9023,2.9565,0.0,3.1378,3.1834,3.2251,3.1806,0.0,0.0,3.0214,2.9147,2.8826,2.8727,2.853,2.7879,2.8279,2.8638,2.8315,2.7888,0.0,0.0,0.0,0.0,0.0,0.0,0.0,0.0,0.0,0.0,0.0,0.0,0.0,0.0,3.171,3.1988,3.254,3.1329,3.0488,3.0195,3.0039,2.9746,2.9326,2.9326,2.9101,2.8682,2.9202,0.0,0.0,0.0,0.0,0.0,3.1071,3.1531,3.223,3.1378,3.0912,3.0627,2.9547,2.8694,2.8118,0.0,0.0,0.0,0.0,0.0,0.0,0.0,1.5784,1.5784,1.5784,1.6072,1.7236,1.9837,2.0716,2.2174,2.4869,0.0,0.0,0.0,0.0,0.0,0.0,0.0,0.0,2.3828,2.4277,2.5137,2.6435,2.7346,2.7796,2.7865,2.8203,2.749,2.582,2.582,2.5174,0.0,0.0,0.0,0.0,3.1721,3.1248,0.0,0.0,0.0,0.0,0.0,0.0,0.0,0.0,0.0,0.0,0.0,0.0,0.0,0.0,0.0,0.0,0.0,3.0881,0.0,0.0,0.0,0.0,3.1128,3.1126,0.0,3.0005,2.9792,2.9804,2.9842,2.9817,2.9817,2.9892,2.9047,0.0,0.0,0.0,0.0,0.0,0.0,0.0,0.0,0.0,0.0,0.0,0.0,0.0,0.0,3.3237,3.3834,3.5189,3.2137,3.0478,3.0478,3.0063,2.9618,2.913,2.913,2.8923,2.8644,2.9859,0.0,0.0,0.0,0.0,0.0,3.2431,3.2493,3.2582,3.2448,3.2106,3.1641,3.1464,3.0812,3.0019,0.0,0.0,0.0,0.0,0.0,0.0,0.0,0.0,0.0,0.0,1.5885,1.6994,1.9805,2.0268,2.1648,0.0,0.0,0.0,0.0,0.0,0.0,0.0,0.0,0.0,2.4268,2.4982,2.5898,2.6865,2.7725,2.8476,2.9186,2.9219,2.8535,2.7207,2.7207,2.6774,0.0,0.0,0.0,0.0,3.1265,3.1348,0.0,0.0,0.0,0.0,3.0419,3.0696,0.0,0.0,0.0,0.0,0.0,0.0,0.0,0.0,3.0093,3.0328,2.9948,0.0,3.0401,3.0639,3.0879,3.098,0.0,3.073,3.0608,2.993,0.0,2.993,3.0344,3.008,3.0068,3.0884,3.0795,0.0,0.0,0.0,0.0,0.0,0.0,0.0,0.0,0.0,0.0,0.0,0.0,0.0,0.0,3.4792,3.4725,3.4609,3.3539,3.2965,3.2965,3.2444,3.1967,3.1489,3.1489,3.1435,3.1378,3.1684,0.0,0.0,0.0,0.0,3.392,3.392,3.452,3.5306,3.3801,3.3131,3.2788,3.099,3.022,2.9974,0.0,0.0,0.0,0.0,0.0,0.0,0.0,0.0,0.0,0.0,0.0,0.0,0.0,0.0,0.0,0.0,0.0,0.0,0.0,0.0,0.0,0.0,0.0,2.4512,2.4717,2.5381,2.621,2.7314,2.8164,2.8926,2.957,2.9766,2.918,2.792,2.7129,2.7195,0.0,0.0,0.0,3.1254,3.1626,0.0,0.0,0.0,0.0,0.0,3.0131,3.0407,0.0,3.0947,3.1386,3.1738,0.0,0.0,0.0,0.0,3.0206,3.0168,2.988,3.0331,3.0909,3.0959,3.116,3.1286,3.1022,0.0,0.0,0.0,0.0,0.0,0.0,0.0,0.0,0.0,0.0,0.0,0.0,0.0,0.0,0.0,0.0,0.0,0.0,0.0,0.0,0.0,0.0,0.0,0.0,3.6106,3.6119,3.6431,3.5738,3.4725,3.3421,3.294,3.2549,3.228,3.228,3.228,3.2331,3.2944,3.3128,0.0,0.0,0.0,3.4564,3.4808,3.5345,3.5862,3.4824,3.4261,3.3851,3.2351,3.1626,3.1378,0.0,0.0,0.0,0.0,0.0,0.0,0.0,0.0,0.0,0.0,0.0,0.0,0.0,0.0,0.0,0.0,0.0,0.0,0.0,0.0,0.0,0.0,2.4814,2.4824,2.5311,2.5644,2.6465,2.7816,2.8603,2.9277,2.9785,3.0205,2.9648,2.8223,2.6822,2.7208,0.0,0.0,3.0543,3.1813,3.1905,0.0,0.0,0.0,0.0,0.0,0.0,0.0,0.0,3.0495,3.0834,3.1248,3.1173,0.0,0.0,0.0,0.0,0.0,2.9792,3.0972,3.2039,3.1323,3.1562,3.1851,3.1373,0.0,0.0,0.0,0.0,0.0,0.0,0.0,0.0,0.0,0.0,0.0,0.0,0.0,0.0,0.0,0.0,0.0,0.0,0.0,0.0,0.0,0.0,0.0,0.0,3.7172,3.7439,3.8605,3.7676,3.6015,3.3532,3.3099,3.2944,3.2944,3.2944,3.2898,3.2818,3.3999,3.4258,0.0,0.0,0.0,3.4763,3.5182,3.537,3.537,3.5282,3.4969,3.4525,3.3972,3.3483,3.3124,0.0,0.0,0.0,0.0,0.0,0.0,0.0,0.0,0.0,0.0,0.0,0.0,0.0,0.0,0.0,0.0,0.0,0.0,0.0,0.0,0.0,2.5586,2.5528,2.5742,2.6172,2.625,2.6914,2.8193,2.9053,2.9893,3.0693,3.1113,3.0234,2.8295,2.832,2.7879,2.7246,2.9404,3.0174,3.0044,3.0604,0.0,0.0,0.0,0.0,0.0,0.0,0.0,0.0,2.9917,3.0281,3.0658,3.0181,0.0,0.0,0.0,0.0,0.0,2.9792,3.0972,3.1863,3.0407,3.0457,3.0834,3.0758,0.0,0.0,0.0,0.0,0.0,0.0,0.0,0.0,0.0,0.0,0.0,0.0,0.0,0.0,0.0,0.0,0.0,0.0,0.0,0.0,0.0,0.0,0.0,0.0,3.8128,3.7704,3.7462,3.7274,3.6755,3.5886,3.58,3.575,3.575,3.575,3.5515,3.5036,3.5223,3.503,3.4508,0.0,3.4756,3.4726,3.4768,3.4806,3.4756,3.4336,3.4098,3.396,3.3407,3.3156,3.3124,0.0,0.0,0.0,0.0,0.0,0.0,0.0,0.0,0.0,0.0,0.0,0.0,0.0,0.0,0.0,0.0,0.0,0.0,0.0,0.0,2.5488,2.5674,2.5967,2.6182,2.6387,2.6846,2.7588,2.8633,2.9746,3.0498,3.0889,3.0596,3.0059,2.9262,2.8949,2.8908,2.9173,3.0021,3.0831,3.1473,0.0,0.0,0.0,0.0,0.0,0.0,0.0,0.0,0.0,0.0,3.0168,3.057,3.0319,0.0,0.0,0.0,0.0,0.0,2.9792,3.0557,3.1173,3.0419,3.0859,3.1323,3.0746,3.0193,0.0,0.0,0.0,0.0,0.0,0.0,0.0,0.0,0.0,0.0,0.0,0.0,0.0,0.0,0.0,0.0,0.0,0.0,0.0,0.0,0.0,0.0,0.0,0.0,3.745,3.7199,3.6945,3.6669,3.6405,3.6069,3.5918,3.5918,3.5617,3.5341,3.5056,3.5056,3.4801,3.4274,0.0,3.411,3.3859,3.4161,3.4274,3.4248,3.3997,3.3897,3.3834,3.3282,3.3124,3.3124,0.0,0.0,0.0,0.0,0.0,0.0,0.0,0.0,0.0,0.0,0.0,0.0,0.0,0.0,0.0,0.0,0.0,0.0,0.0,2.4766,2.5273,2.5664,2.6162,2.6435,2.6533,2.7275,2.8076,2.8916,3.0127,3.083,3.1016,3.0557,3.0302,3.0109,2.9949,3.0301,3.1009,3.0877,3.1547,3.2646,0.0,0.0,0.0,0.0,0.0,0.0,0.0,0.0,0.0,0.0,0.0,0.0,0.0,0.0,0.0,3.0419,3.0118,2.9792,2.9792,3.0281,3.0733,3.0482,0.0,3.1725,3.1286,3.0758,0.0,0.0,0.0,0.0,0.0,0.0,0.0,0.0,0.0,0.0,0.0,0.0,0.0,0.0,0.0,0.0,0.0,0.0,0.0,0.0,0.0,0.0,0.0,0.0,3.6998,3.6998,3.6458,3.6169,3.6169,3.5504,3.5245,3.5495,3.4944,3.4605,3.4525,3.4525,3.4223,3.3709,3.3709,3.347,3.3106,3.3533,3.3709,3.3709,3.3709,3.3709,3.3658,3.3232,3.3156,3.3257,0.0,0.0,0.0,0.0,0.0,0.0,0.0,0.0,0.0,0.0,0.0,0.0,0.0,0.0,0.0,0.0,0.0,0.0,0.0,2.4609,2.5273,2.5664,2.6162,2.6572,2.6963,2.7432,2.8076,2.8916,2.9814,3.0664,3.1455,3.2252,3.1743,3.0172,3.2116,3.2053,3.0541,3.1612,3.1855,3.1512,3.1424,0.0,0.0,0.0,0.0,0.0,0.0,0.0,0.0,0.0,0.0,0.0,0.0,0.0,2.9854,2.9854,2.9829,2.9792,2.9792,3.0545,3.1097,3.0105,3.0294,3.111,3.2566,3.2453,0.0,3.3395,0.0,0.0,0.0,0.0,0.0,0.0,0.0,0.0,0.0,0.0,0.0,0.0,0.0,0.0,0.0,0.0,0.0,0.0,0.0,0.0,0.0,0.0,0.0,3.6468,3.5893,3.5558,3.5558,3.455,3.4525,3.5495,3.4944,3.4449,3.396,3.396,3.3658,3.3174,3.3174,3.3162,3.3124,3.3162,3.3174,3.3174,3.3174,3.3174,3.3131,3.3093,3.3395,3.3771,0.0,0.0,0.0,0.0,0.0,0.0,0.0,0.0,0.0,0.0,0.0,0.0,0.0,0.0,0.0,0.0,0.0,0.0,0.0,2.4336,2.4863,2.5303,2.6006,2.6465,2.6621,2.7568,2.8747,3.023,3.1978,3.3285,3.4246,3.3679,3.3157,3.2648,3.2825,3.2613,3.2093,3.2184,3.2303,3.2403,3.2051,3.1587,0.0,0.0,0.0,0.0,0.0,0.0,0.0,0.0,2.9792,2.9792,2.9792,2.9792,2.9792,2.9792,2.9792,2.9792,2.9792,3.0344,3.0809,3.0407,3.0457,0.0,0.0,3.2365,3.2441,3.3232,3.4211,0.0,0.0,0.0,0.0,0.0,0.0,0.0,0.0,0.0,0.0,0.0,0.0,0.0,0.0,0.0,0.0,0.0,0.0,0.0,0.0,0.0,0.0,3.5855,3.5316,3.4994,3.4994,3.4274,3.411,3.4512,3.396,3.3583,3.3382,3.3382,3.3269,3.3124,3.3124,3.3124,3.3124,3.3124,3.3124,3.3124,3.3124,3.3124,3.3162,3.3458,3.3721,3.3922,0.0,0.0,0.0,0.0,0.0,0.0,0.0,0.0,0.0,0.0,0.0,0.0,0.0,0.0,0.0,0.0,0.0,0.0,2.3564,2.3984,2.4414,2.4844,2.5576,2.6291,2.6943,2.7821,2.9081,3.08,3.3026,3.4488,3.5178,3.4494,3.4254,3.4416,3.385,3.36,3.3558,3.2993,3.2867,3.3043,3.2641,3.2152,0.0,0.0,0.0,0.0,0.0,0.0,0.0,0.0,2.9792,2.9792,2.9792,2.9792,2.9792,2.9792,2.9792,2.9792,2.9792,3.0068,3.0423,3.0711,0.0,0.0,3.3106,3.3194,3.3269,3.4186,3.5002,0.0,0.0,0.0,0.0,0.0,0.0,0.0,0.0,0.0,0.0,0.0,0.0,0.0,0.0,0.0,0.0,0.0,0.0,0.0,0.0,0.0,0.0,0.0,3.4751,3.4462,3.4462,3.3922,3.3633,3.3633,3.3068,3.2905,3.3124,3.3124,3.3124,3.3124,3.3124,3.3124,3.3124,3.3124,3.3124,3.3124,3.3124,3.3181,3.3382,3.3759,3.4123,3.4449,0.0,0.0,0.0,0.0,0.0,0.0,0.0,0.0,0.0,0.0,0.0,0.0,0.0,0.0,0.0,0.0,0.0,0.0,2.3091,2.3545,2.3975,2.4394,2.4834,2.6072,2.8132,2.8212,2.8932,3.0317,3.2523,3.3618,3.3671,3.4602,3.5035,3.5037,3.5347,3.5194,3.4675,3.4123,3.3583,3.3124,3.3124,3.2729,3.2152,0.0,0.0,0.0,0.0,0.0,0.0,0.0,2.9792,2.9792,2.9792,2.9792,2.9792,2.9792,2.9792,2.9792,2.9792,2.983,3.0049,0.0,0.0,0.0,3.565,3.5378,3.519,3.6895,0.0,0.0,0.0,0.0,0.0,0.0,0.0,0.0,0.0,0.0,0.0,0.0,0.0,0.0,0.0,0.0,0.0,0.0,0.0,0.0,0.0,0.0,0.0,0.0,3.4173,3.3884,3.3884,3.3357,3.3124,3.3056,3.2491,3.2516,3.3124,3.3111,3.3111,3.3124,3.3124,3.3124,3.3124,3.3124,3.3124,3.3124,3.3124,3.3407,3.3884,3.3897,3.46,3.542,0.0,0.0,0.0,0.0,0.0,0.0,0.0,0.0,0.0,0.0,0.0,0.0,0.0,0.0,0.0,0.0,0.0,0.0,2.3091,2.3545,2.3848,2.3975,2.4678,2.5782,2.7238,2.9695,3.1687,3.3166,3.4351,3.5539,3.668,3.6616,3.6122,3.5394,3.5893,3.5165,3.3583,3.3809,3.3583,3.3124,3.3124,3.2729,3.219,0.0,0.0,0.0,0.0,0.0,0.0,0.0,0.0,0.0,2.9792,2.9792,2.9792,2.9792,2.9792,2.9934,3.0595,3.1057,0.0,3.262,0.0,0.0,0.0,3.6388,0.0,0.0,0.0,0.0,0.0,0.0,0.0,0.0,0.0,0.0,0.0,0.0,0.0,0.0,0.0,0.0,0.0,0.0,0.0,0.0,0.0,0.0,0.0,0.0,0.0,0.0,3.3608,3.3319,3.3319,3.3156,3.2867,3.2466,3.2303,3.2516,3.3111,3.2654,3.2692,3.3124,3.3124,3.3124,3.3124,3.3124,3.3124,3.3124,3.3124,3.3224,3.337,3.3759,3.4349,3.4893,0.0,0.0,0.0,0.0,0.0,0.0,0.0,0.0,0.0,0.0,0.0,0.0,0.0,0.0,0.0,0.0,0.0,0.0,0.0,2.3344,2.3603,2.3779,2.476,2.627,2.8309,3.1059,3.2937,3.3863,3.4739,3.5683,3.6697,3.681,3.6508,3.5893,3.6445,3.5705,3.4048,3.3935,3.3583,3.3124,3.3124,3.2867,3.2554,0.0,0.0,0.0,0.0,0.0,0.0,0.0,0.0,0.0,2.9792,2.9792,2.9792,2.9792,3.0075,3.0381,3.0595,3.1406,0.0,3.3716,3.5218,3.6827,3.8267,0.0,0.0,0.0,0.0,0.0,0.0,0.0,0.0,0.0,0.0,0.0,0.0,0.0,0.0,0.0,0.0,0.0,0.0,0.0,0.0,0.0,0.0,0.0,0.0,0.0,0.0,0.0,3.2579,3.2403,3.2403,3.2403,3.2227,3.1888,3.1675,3.1863,3.239,3.2051,3.2077,3.2416,3.2641,3.2729,3.2754,3.298,3.3124,3.3154,3.3556,3.3854,3.4127,3.4877,3.5517,3.597,0.0,0.0,0.0,0.0,0.0,0.0,0.0,0.0,0.0,0.0,0.0,0.0,0.0,0.0,0.0,0.0,0.0,0.0,0.0,0.0,2.3276,2.3711,2.5114,2.7446,3.0739,3.2377,3.3174,3.3124,3.4022,3.455,3.4675,3.5717,3.6267,3.6279,3.6847,3.6445,3.5207,3.4248,3.3483,3.2973,3.2973,3.2973,3.2973,3.2973,0.0,0.0,0.0,0.0,0.0,0.0,0.0,0.0,2.9792,2.9792,2.9792,2.9792,3.0444,3.1044,3.0241,0.0,0.0,3.4594,3.6678,0.0,0.0,0.0,0.0,0.0,0.0,0.0,0.0,0.0,0.0,0.0,0.0,0.0,0.0,0.0,0.0,0.0,0.0,0.0,0.0,0.0,0.0,0.0,0.0,0.0,0.0,0.0,0.0,3.1411,3.1468,3.1508,3.1386,3.1468,3.1442,3.1311,3.0834,3.0874,3.1398,3.1326,3.1348,3.1411,3.1996,3.2252,3.2302,3.2997,3.328,3.3407,3.4444,3.5146,3.5694,3.6661,3.7359,3.7841,0.0,0.0,0.0,0.0,0.0,0.0,0.0,0.0,0.0,0.0,0.0,0.0,0.0,0.0,0.0,0.0,0.0,0.0,0.0,0.0,2.314,2.3227,2.6405,2.9509,3.2315,3.3271,3.3508,3.3124,3.2855,3.3206,3.4085,3.4763,3.5077,3.5115,3.6094,3.5487,3.3596,3.3357,3.2667,3.175,3.175,3.175,3.175,3.175,3.1348,0.0,0.0,0.0,0.0,0.0,0.0,0.0,2.9792,2.9792,2.9792,2.9792,3.0444,3.1328,3.1865,3.3203,0.0,0.0,3.9528,0.0,0.0,0.0,0.0,0.0,0.0,0.0,0.0,0.0,0.0,0.0,0.0,0.0,0.0,0.0,0.0,0.0,0.0,0.0,0.0,0.0,0.0,0.0,0.0,0.0,0.0,0.0,0.0,3.1386,3.2103,3.2143,3.1427,3.2143,3.1937,0.0,3.067,3.0839,3.1236,3.0901,3.0997,3.1439,3.2312,3.2671,3.2789,3.4245,3.4844,3.4884,3.5597,3.5936,3.6086,3.6325,3.6765,3.7194,0.0,0.0,0.0,0.0,0.0,0.0,0.0,0.0,0.0,0.0,0.0,0.0,0.0,0.0,0.0,0.0,0.0,0.0,0.0,0.0,2.3827,2.5405,2.7646,3.0012,3.2535,3.2916,3.2704,3.1901,3.1599,3.2014,3.3119,3.4211,3.4575,3.4374,3.5479,3.4889,3.3056,3.278,3.2164,3.1386,3.1386,3.1386,3.1424,3.1687,3.1298,3.062,3.062,0.0,0.0,0.0,0.0,0.0,0.0,0.0,3.0482,3.0482,3.1439,3.2558,3.2593,0.0,0.0,3.8286,0.0,0.0,0.0,0.0,0.0,0.0,0.0,0.0,0.0,0.0,0.0,0.0,0.0,0.0,0.0,0.0,0.0,0.0,0.0,0.0,0.0,0.0,0.0,0.0,0.0,0.0,0.0,3.28,3.2252,3.1976,3.2444,3.2482,3.1963,3.2444,3.2335,3.158,3.158,3.167,3.1865,3.1646,3.17,3.2014,3.2776,3.3087,3.3165,3.4347,3.5016,3.5383,3.6161,3.6479,3.6584,3.7406,3.7738,3.7729,0.0,0.0,0.0,0.0,0.0,0.0,0.0,0.0,0.0,0.0,0.0,0.0,0.0,0.0,0.0,0.0,0.0,0.0,0.0,0.0,0.0,2.7938,2.8651,3.0012,3.2311,3.2265,3.1738,3.0758,3.0758,3.1248,3.224,3.3633,3.4148,3.3935,3.4705,3.4299,3.288,3.2215,3.1625,3.111,3.111,3.111,3.116,3.1625,3.1248,3.047,3.047,3.0181,2.9792,2.9792,0.0,0.0,0.0,0.0,3.1217,3.1217,3.2522,3.3842,3.3066,0.0,3.6552,3.882,0.0,0.0,0.0,0.0,0.0,0.0,0.0,0.0,0.0,0.0,0.0,0.0,0.0,0.0,0.0,0.0,0.0,0.0,0.0,0.0,0.0,0.0,0.0,0.0,0.0,0.0,3.3715,3.3394,3.3046,3.2621,3.2749,3.2749,3.2593,3.2749,3.2749,3.2593,3.2749,3.2855,3.2855,3.3031,3.2925,3.2621,3.324,3.3484,3.3576,3.4362,3.5008,3.562,3.6538,3.691,3.7092,3.8504,3.8781,3.8467,0.0,0.0,0.0,0.0,0.0,0.0,0.0,0.0,0.0,0.0,0.0,0.0,0.0,0.0,0.0,0.0,0.0,0.0,0.0,0.0,0.0,2.7993,2.9098,3.0694,3.2943,3.2466,3.1901,3.1286,3.1286,3.1599,3.2215,3.2441,3.3031,3.3884,3.3558,3.3006,3.2265,3.126,3.0507,3.0005,3.0005,3.0005,3.0018,3.008,3.003,2.9905,2.9905,2.9854,2.9792,2.9792,2.9792,0.0,0.0,0.0,3.1217,3.1217,3.2522,3.3993,0.0,0.0,3.8242,0.0,0.0,0.0,0.0,0.0,0.0,0.0,0.0,0.0,0.0,0.0,0.0,0.0,0.0,0.0,0.0,0.0,0.0,0.0,0.0,0.0,0.0,0.0,0.0,0.0,0.0,0.0,3.4759,3.3472,3.2676,3.2593,3.338,3.3415,3.2593,3.3415,3.338,3.2593,3.3415,3.3808,3.3842,3.4739,3.4192,3.2642,3.3534,3.3937,3.4063,3.5561,3.627,3.6388,3.706,3.7317,3.7367,3.7575,3.7973,3.8407,0.0,0.0,0.0,0.0,0.0,0.0,0.0,0.0,0.0,0.0,0.0,0.0,0.0,0.0,0.0,2.3091,0.0,0.0,0.0,0.0,0.0,2.7588,2.8724,3.0058,3.1646,3.1449,3.1047,3.0495,3.0495,3.0922,3.1763,3.2064,3.298,3.4336,3.3784,3.3219,3.2616,3.1524,3.0746,3.0231,2.9917,2.9792,2.9792,2.9792,2.9792,2.9792,2.9792,2.9792,2.9792,2.9792,2.9792,2.9792,2.9792,0.0,0.0,0.0,3.3071,0.0,3.4265,3.5492,3.7015,0.0,0.0,0.0,0.0,0.0,0.0,0.0,0.0,0.0,0.0,0.0,0.0,0.0,0.0,0.0,0.0,0.0,0.0,0.0,0.0,0.0,0.0,0.0,0.0,0.0,0.0,3.4957,3.527,3.4602,3.4225,3.4225,3.4624,3.4658,3.424,3.4624,3.4624,3.424,3.4658,3.4839,3.4872,3.5294,3.5034,3.424,3.4658,3.4839,3.4902,3.5624,3.6148,3.6507,3.6791,3.6896,3.6941,3.7285,3.7599,3.7883,0.0,0.0,0.0,0.0,0.0,0.0,0.0,0.0,0.0,0.0,0.0,0.0,0.0,0.0,0.0,0.0,2.3091,0.0,0.0,0.0,0.0,2.7052,2.8404,2.9536,3.0367,3.0407,3.0206,2.9792,2.9792,3.0419,3.1612,3.2026,3.3106,3.4655,3.4299,3.3646,3.2805,3.1951,3.1298,3.0758,3.0068,2.9792,2.9792,2.9792,2.9792,2.9792,2.9792,2.9792,0.0,0.0,0.0,0.0,0.0,0.0,0.0,0.0,0.0,0.0,0.0,0.0,0.0,0.0,0.0,0.0,0.0,0.0,0.0,0.0,0.0,0.0,0.0,0.0,0.0,0.0,0.0,0.0,0.0,0.0,0.0,0.0,0.0,0.0,0.0,0.0,0.0,0.0,0.0,3.5504,3.5504,3.5504,3.5504,3.5504,3.5504,3.5504,3.5504,3.5504,3.5504,3.5504,3.5504,3.5504,3.5504,3.5504,3.5504,3.5504,3.5504,3.5504,3.5504,3.5504,3.5789,3.6237,3.6237,3.6237,3.6297,3.6761,3.7135,3.7479,0.0,0.0,0.0,0.0,0.0,0.0,0.0,0.0,0.0,0.0,0.0,0.0,2.3091,2.3091,2.3091,2.3091,2.3091,2.3091,2.3091,2.5189,0.0,2.6558,2.859,0.0,2.9829,2.9829,2.9817,2.9792,2.9792,3.0608,3.2177,3.2202,3.3106,3.468,3.4688,3.3784,3.2252,3.219,3.1851,3.126,3.0218,2.9792,2.9792,2.9792,2.9792,2.9792,2.9792,0.0,0.0,0.0,0.0,0.0,0.0,0.0,0.0,0.0,0.0,0.0,0.0,0.0,0.0,0.0,0.0,0.0,0.0,0.0,0.0,0.0,0.0,0.0,0.0,0.0,0.0,0.0,0.0,0.0,0.0,0.0,0.0,0.0,0.0,0.0,0.0,0.0,0.0,0.0,0.0,3.5504,3.5504,3.5504,3.5504,3.5504,3.5504,3.5504,3.5504,3.5504,3.5504,3.5504,3.5504,3.5504,3.5504,3.5504,3.5504,3.5504,3.5504,3.5504,3.5504,3.5504,3.5534,3.5549,3.5549,3.5549,3.5564,3.5594,3.6372,3.7404,0.0,0.0,0.0,0.0,0.0,0.0,0.0,0.0,0.0,0.0,0.0,0.0,0.0,2.3091,2.3091,2.3091,2.3091,2.343,2.4125,2.5641,0.0,2.7481,2.9,2.9792,2.9792,2.9792,2.9792,2.9792,2.9792,3.0269,3.1198,3.1537,3.1825,3.2152,3.3558,3.3658,3.2717,3.1989,3.1386,0.0,3.0093,2.9792,2.9792,2.9792,0.0,0.0,0.0,0.0,0.0,0.0,0.0,0.0,0.0,0.0,0.0,0.0,0.0,0.0,0.0,0.0,0.0,0.0,0.0,0.0,0.0,0.0,0.0,0.0,0.0,0.0,0.0,0.0,0.0,0.0,0.0,0.0,0.0,0.0,0.0,0.0,0.0,0.0,0.0,0.0,0.0,0.0,0.0,0.0,3.5504,3.5504,3.5504,3.5504,3.5504,3.5504,3.5504,3.5504,3.5504,3.5504,3.5504,3.5504,3.5504,3.5504,3.5504,3.5504,3.5504,3.5504,3.5504,3.5504,3.5504,3.5504,3.5504,3.5504,3.5504,3.5504,3.6058,3.6821,0.0,0.0,0.0,0.0,0.0,0.0,0.0,0.0,0.0,2.3091,0.0,0.0,0.0,0.0,2.3091,2.3091,2.3464,2.4006,2.4745,2.6213,2.7371,2.8084,2.9197,2.9792,2.9792,2.9792,2.9792,2.9792,2.9792,3.0068,3.062,3.0972,3.1035,3.0934,3.2403,3.2855,3.2478,0.0,0.0,3.1072,0.0,0.0,3.0319,0.0,0.0,0.0,0.0,0.0,0.0,0.0,0.0,0.0,0.0,0.0,0.0,0.0,0.0,0.0,3.329,0.0,0.0,0.0,0.0,0.0,0.0,0.0,0.0,0.0,0.0,0.0,0.0,0.0,0.0,0.0,0.0,0.0,0.0,0.0,0.0,0.0,0.0,0.0,0.0,0.0,0.0,0.0,0.0,0.0,3.5504,3.5504,3.5504,3.5504,3.5504,3.5504,3.5504,3.5504,3.5504,3.5504,3.5504,3.5504,3.5504,3.5504,3.5504,3.5504,3.5504,3.5504,3.5504,3.5504,3.5504,3.5504,3.5504,3.5504,3.5504,3.5504,3.5923,3.6522,0.0,0.0,0.0,0.0,0.0,0.0,0.0,0.0,2.3091,2.3091,0.0,0.0,0.0,0.0,0.0,2.3135,2.4221,2.4882,2.4914,2.6889,2.8136,2.8136,0.0,0.0,2.9792,2.9792,2.9792,2.9792,2.9792,3.0068,3.0595,3.0595,3.0859,3.1336,3.1361,3.1361,3.1411,0.0,3.2679,3.2026,0.0,3.0419,3.1311,0.0,0.0,0.0,3.0811,3.0595,0.0,3.0006,0.0,0.0,0.0,0.0,0.0,0.0,0.0,0.0,0.0,0.0,0.0,0.0,0.0,0.0,0.0,0.0,0.0,0.0,0.0,0.0,0.0,0.0,0.0,0.0,0.0,0.0,0.0,0.0,0.0,0.0,0.0,0.0,0.0,0.0,0.0,0.0,0.0,3.5504,3.5504,3.5504,3.5504,3.5504,3.5504,3.5504,3.5504,3.5504,3.5504,3.5504,3.5504,3.5504,3.5504,3.5504,3.5504,3.5504,3.5504,3.5504,3.5537,3.5504,3.5504,3.5504,3.5504,3.5504,3.5537,3.5537,3.5974,3.6637,0.0,0.0,0.0,0.0,0.0,0.0,2.3091,2.3091,2.3091,0.0,0.0,0.0,2.3091,2.4169,2.4732,2.436,2.5732,2.6747,2.7168,2.7763,2.8466,2.9275,2.9624,2.9792,2.9792,2.9792,2.9792,2.9792,2.9792,2.9867,3.0018,3.0018,3.0093,3.0256,3.0645,3.0608,3.0281,3.0997,0.0,3.0984,3.0131,3.0206,0.0,0.0,0.0,0.0,0.0,3.0612,3.0097,0.0,3.079,3.1074,0.0,0.0,0.0,0.0,0.0,0.0,3.3484,0.0,0.0,0.0,0.0,0.0,0.0,0.0,0.0,0.0,0.0,0.0,0.0,0.0,0.0,0.0,0.0,0.0,0.0,0.0,0.0,0.0,0.0,0.0,0.0,0.0,0.0,0.0,3.5504,3.5504,3.5504,3.5504,3.5504,3.5504,3.5504,3.5504,3.5504,3.5504,3.5504,3.5504,3.5504,3.5504,3.5504,3.5504,3.5504,3.5504,3.5504,3.5814,3.6244,3.5733,3.5504,3.5504,3.5504,3.5846,3.6306,3.6306,3.6785,3.746,0.0,0.0,0.0,0.0,0.0,2.3891,2.3208,2.37,2.3881,0.0,0.0,0.0,2.3994,2.5588,2.6444,2.5881,2.7158,2.8121,2.8388,2.8678,2.9106,2.9753,2.9792,2.9792,2.9792,2.9792,2.9792,2.9792,2.9792,2.9792,2.9792,2.9792,2.9792,2.9804,0.0,0.0,0.0,0.0,0.0,0.0,3.0432,0.0,0.0,3.1343,3.1202,0.0,0.0,0.0,3.0605,3.1487,3.2072,0.0,0.0,0.0,0.0,0.0,0.0,0.0,0.0,0.0,0.0,0.0,0.0,0.0,3.3589,3.3499,0.0,0.0,0.0,0.0,0.0,0.0,0.0,0.0,0.0,0.0,0.0,0.0,0.0,0.0,0.0,0.0,0.0,0.0,0.0,3.5504,3.5504,3.5504,3.5504,3.5504,3.5504,3.5504,3.5504,3.5504,3.5504,3.5504,3.5504,3.5504,3.5504,3.5504,3.5504,3.5504,3.5668,3.5943,3.5943,3.6399,3.707,3.6631,3.6461,3.6461,3.6461,3.6707,3.7084,3.7084,3.7397,3.7825,0.0,0.0,2.3309,2.3309,2.4666,2.5279,2.3707,2.4807,2.5225,0.0,2.3904,2.4583,2.5574,2.7293,2.8173,2.7632,2.8538,2.9145,2.9085,2.9544,2.9792,2.9792,2.9792,2.9792,2.9792,2.9792,2.9792,2.9792,2.9792,2.9856,2.9934,2.9869,2.9895,3.0113,0.0,0.0,0.0,0.0,0.0,3.0838,3.1104,3.1789,0.0,0.0,3.307,3.2825,3.3293,3.2644,3.1662,3.243,3.3663,0.0,0.0,0.0,0.0,0.0,3.4113,0.0,0.0,0.0,0.0,0.0,0.0,0.0,3.3742,3.3683,3.3487,0.0,0.0,0.0,0.0,0.0,0.0,0.0,0.0,0.0,0.0,0.0,0.0,0.0,0.0,0.0,0.0,3.5554,3.5619,3.5619,3.5701,3.5765,3.5765,3.5683,3.5619,3.5619,3.5522,3.5504,3.5504,3.5587,3.5619,3.5619,3.5701,3.5765,3.5765,3.5765,3.6117,3.6722,3.6722,3.7174,3.7921,3.7921,3.7863,3.7793,3.7793,3.7835,3.7921,3.7921,3.7978,3.8132,0.0,0.0,2.4457,2.4457,2.5861,2.6694,2.5968,2.6466,2.6694,2.5957,2.6265,2.6843,2.75,2.9072,2.9879,2.9359,3.0284,3.0751,3.0301,2.9963,2.9792,2.9792,2.9792,2.9792,2.9792,2.9792,2.9792,2.9792,2.9792,3.0177,3.0895,3.0139,3.0608,3.201,3.0457,0.0,0.0,0.0,0.0,3.2173,3.1479,0.0,3.222,3.2609,3.2712,3.2758,3.3571,3.3247,3.2449,0.0,3.3663,3.4257,0.0,0.0,0.0,0.0,0.0,0.0,0.0,0.0,0.0,0.0,0.0,0.0,3.5198,3.4797,3.4596,0.0,0.0,0.0,0.0,0.0,0.0,0.0,0.0,0.0,0.0,0.0,0.0,0.0,0.0,0.0,0.0,3.6023,3.6384,3.6384,3.6995,3.7354,3.7354,3.6753,3.6384,3.6384,3.5814,3.5504,3.5504,3.6086,3.6384,3.6384,3.7055,3.7354,3.7354,3.7354,3.7442,3.7573,3.7573,3.7991,3.869,3.869,3.833,3.7793,3.7793,3.8161,3.869,3.869,3.9102,3.967,0.0,2.5263,2.563,2.563,2.6989,2.7743,2.6674,2.7428,2.7824,2.7001,2.8076,2.9036,2.9248,3.0805,3.1516,3.0653,3.1336,3.1461,3.067,3.0357,3.008,2.9804,2.9792,2.9792,2.9792,2.9792,2.9792,2.9792,3.0279,3.072,3.1217,3.1193,3.1696,3.2558,3.1623,0.0,0.0,0.0,3.2177,3.2593,3.2593,0.0,3.3057,3.3764,3.3719,3.3429,3.4394,3.4442,3.4074,3.4129,3.4636,0.0,0.0,3.5555,3.5863,0.0,3.5235,3.5429,0.0,0.0,0.0,3.5504,0.0,0.0,0.0,3.5417,3.5342,0.0,0.0,0.0,0.0,0.0,0.0,0.0,0.0,0.0,0.0,0.0,0.0,0.0,0.0,0.0,0.0,3.6449,3.6796,3.7188,3.7573,3.7793,3.7793,3.7427,3.7203,3.7203,3.6829,3.6662,3.6662,3.7025,3.7203,3.7203,3.7602,3.7793,3.7793,3.7793,3.8007,3.8358,3.8358,3.8789,3.9489,3.9489,3.9279,3.8941,3.8941,3.9156,3.9489,3.9489,3.9756,4.0096,2.6595,0.0,2.6801,2.6801,2.8169,2.8743,2.7342,2.8344,2.8957,2.818,2.974,3.0934,3.104,3.237,3.2955,3.2252,3.2102,3.1825,3.1286,3.0758,3.0306,2.9967,2.9854,2.9792,2.9792,2.9792,2.9908,3.0075,3.0833,3.1389,3.1742,3.2321,3.2784,3.315,3.2784,0.0,0.0,0.0,0.0,3.3424,0.0,3.4177,3.4095,3.5133,3.4986,3.4394,3.5213,3.5504,3.5448,3.5137,0.0,3.6207,3.5669,3.5863,0.0,0.0,0.0,0.0,0.0,0.0,0.0,0.0,0.0,3.6017,0.0,0.0,0.0,3.6604,0.0,0.0,0.0,0.0,0.0,0.0,0.0,0.0,0.0,0.0,0.0,0.0,0.0,0.0,0.0,3.6834,3.7207,3.7958,3.8149,3.8234,3.8234,3.8092,3.8007,3.8007,3.7863,3.7793,3.7793,3.795,3.8007,3.8007,3.8177,3.8234,3.8234,3.8234,3.8569,3.9139,3.9139,3.9489,4.0096,4.0096,4.0096,4.0096,4.0096,4.0096,4.0096,4.0096,4.0096,4.0096,2.6894,2.729,0.0,2.7936,2.9297,3.0169,2.9543,2.9967,3.0518,3.0897,3.1577,3.2421,0.0,0.0,0.0,0.0,0.0,0.0,3.3445,0.0,3.008,3.0507,3.0055,2.9792,2.9792,2.9792,3.0216,3.1044,3.1143,3.2069,3.3671,3.2961,3.3498,3.51,3.3359,0.0,0.0,0.0,3.468,0.0,3.5517,3.4806,0.0,3.5133,3.5439,3.5359,3.5472,3.5504,3.5487,0.0,3.5511,3.5609,0.0,3.5549,0.0,0.0,0.0,0.0,0.0,0.0,0.0,0.0,3.6538,0.0,0.0,0.0,3.8824,3.9489,0.0,0.0,0.0,0.0,0.0,0.0,0.0,0.0,0.0,0.0,0.0,0.0,0.0,0.0,0.0,0.0,3.7974,3.8723,3.9437,3.985,3.985,3.9166,3.8772,3.8772,3.8133,3.7793,3.7793,3.8442,3.8772,3.8772,3.9506,3.985,3.985,3.985,3.9876,3.9952,3.9952,4.002,4.0096,4.0096,4.0096,4.0096,4.0096,4.0096,4.0096,4.0096,4.0096,4.0096,2.8593,2.8779,0.0,0.0,2.9681,3.0055,2.9829,3.0783,3.1499,3.1399,3.2441,0.0,0.0,0.0,0.0,0.0,0.0,3.3206,0.0,0.0,0.0,0.0,0.0,0.0,3.0269,3.0484,3.0796,3.1217,3.2285,3.3241,3.3993,3.4192,3.4706,3.5472,3.4673,0.0,3.586,0.0,3.5296,0.0,0.0,0.0,0.0,3.5359,3.5504,3.5504,3.5504,3.5504,3.5504,0.0,3.5504,0.0,0.0,0.0,0.0,0.0,0.0,0.0,0.0,0.0,0.0,0.0,0.0,0.0,0.0,0.0,3.974,0.0,0.0,0.0,0.0,0.0,0.0,0.0,0.0,0.0,0.0,0.0,0.0,0.0,0.0,0.0,0.0,0.0,0.0,0.0,0.0,3.991,3.9486,3.9564,3.961,3.961,3.9305,3.9146,3.9146,3.9437,3.961,3.961,3.9927,4.0096,4.0096,4.0096,4.0096,4.0096,4.0096,4.0096,4.0096,4.0096,4.0096,4.0096,4.0096,4.0096,4.0096,4.0096,4.0096,4.0096,2.9792,0.0,0.0,0.0,0.0,2.9842,2.9993,3.1022,3.1738,3.1625,0.0,0.0,3.465,3.4806,0.0,0.0,3.5064,3.4274,0.0,0.0,3.2012,0.0,0.0,0.0,0.0,0.0,3.1904,3.196,3.3345,3.423,3.469,3.5255,3.5609,3.5774,0.0,3.5609,3.5759,0.0,0.0,3.5759,3.5579,3.5504,3.5504,3.5504,3.5504,3.5504,3.5504,3.5504,3.5504,3.5504,3.5504,0.0,3.5504,0.0,0.0,0.0,0.0,0.0,3.5504,0.0,0.0,0.0,0.0,0.0,0.0,0.0,0.0,0.0,0.0,0.0,0.0,0.0,0.0,0.0,0.0,0.0,0.0,0.0,0.0,0.0,0.0,0.0,0.0,0.0,0.0,3.8244,3.9191,3.9571,3.9022,3.952,3.9893,4.0096,4.0096,4.0096,4.0096,4.0096,4.0096,4.0096,4.0096,4.0096,4.0096,4.0096,4.0096,4.0096,4.0096,4.0096,4.0096,4.0096,4.0096,4.0096,4.0096,4.0096,4.0096,4.0096,4.0096,4.0096,2.9792,2.9792,0.0,0.0,0.0,2.998,3.0507,3.0633,3.1035,0.0,0.0,0.0,0.0,0.0,0.0,0.0,0.0,3.4881,3.5357,0.0,3.2151,0.0,0.0,3.2789,0.0,0.0,0.0,3.391,3.3993,3.4816,3.6399,3.5804,3.5848,3.6432,3.5789,3.5863,3.6417,3.5774,3.5863,3.6402,3.5759,3.5504,3.5504,0.0,3.5504,3.5504,3.5504,0.0,0.0,3.5504,3.5504,0.0,0.0,0.0,0.0,0.0,0.0,0.0,0.0,0.0,0.0,3.6415,0.0,0.0,0.0,0.0,4.0096,0.0,0.0,0.0,0.0,0.0,0.0,0.0,0.0,0.0,0.0,0.0,0.0,0.0,0.0,0.0,0.0,0.0,0.0,3.8954,3.9005,3.9005,3.8988,3.9005,3.9343,4.0079,4.0096,4.0096,4.0096,4.0096,4.0096,4.0096,4.0096,4.0096,4.0096,4.0096,4.0096,4.0096,4.0096,4.0096,4.0096,4.0096,4.0096,4.0096,4.0096,4.0096,4.0096,4.0096,4.0096,4.0096,0.0,0.0,0.0,0.0,0.0,2.998,3.0532,3.1537,0.0,0.0,0.0,0.0,0.0,3.8178,3.8517,0.0,0.0,3.7384,3.7228,3.6176,0.0,0.0,0.0,3.5425,0.0,0.0,0.0,0.0,0.0,3.5715,3.5833,3.5609,3.5624,3.5833,0.0,3.5624,0.0,0.0,0.0,0.0,0.0,3.5504,3.5504,0.0,0.0,3.5504,3.5504,3.5504,0.0,3.5504,3.5504,3.5504,3.5504,3.5504,3.5504,3.5504,3.5504,0.0,0.0,0.0,3.6538,3.7787,0.0,0.0,0.0,0.0,0.0,0.0,0.0,0.0,0.0,0.0,0.0,0.0,0.0,0.0,0.0,0.0,0.0,0.0,0.0,0.0,0.0,0.0,0.0,3.7591,3.799,3.8058,3.7574,3.8464,3.9106,3.9343,3.9859,4.0096,4.0096,4.0096,4.0096,4.0096,4.0096,4.0096,4.0096,4.0096,4.0096,4.0096,4.0096,4.0096,4.0096,4.0096,4.0096,4.0096,4.0096,4.0096,4.0096,4.0096,4.0096,4.0096,2.9792,0.0,0.0,0.0,0.0,0.0,0.0,0.0,0.0,0.0,3.6157,0.0,3.8931,0.0,3.9588,0.0,3.9788,3.9349,3.8787,3.8451,0.0,3.7515,3.776,0.0,0.0,0.0,0.0,0.0,0.0,3.6492,3.5848,3.5609,3.5624,3.5848,0.0,3.5504,3.5504,0.0,3.5504,0.0,0.0,3.5504,0.0,0.0,3.5504,3.5504,0.0,3.5504,3.5504,3.5504,3.5504,3.5504,3.5504,3.5504,3.5504,3.5504,3.5504,3.5668,3.6384,3.6615,0.0,3.8509,3.8908,0.0,3.9927,0.0,0.0,0.0,0.0,0.0,0.0,0.0,0.0,0.0,0.0,0.0,0.0,3.8988,0.0,0.0,0.0,0.0,0.0,0.0,3.7872,3.688,3.7229,3.7297,0.0,0.0,3.8717,3.8988,3.9723,4.0096,4.0096,4.0096,4.0096,4.0096,4.0096,4.0096,4.0096,4.0096,4.0096,4.0096,4.0096,4.0096,4.0096,4.0096,4.0096,4.0096,4.0096,4.0096,4.0096,4.0096,4.0096,4.0096,0.0,0.0,0.0,0.0,3.0269,0.0,0.0,0.0,3.4992,0.0,3.7167,3.8263,3.8351,3.8843,3.9685,4.0874,4.0958,0.0,4.0196,4.0158,0.0,0.0,3.8688,3.8514,3.746,0.0,0.0,0.0,0.0,0.0,3.6477,3.5804,3.5833,3.6417,3.5789,0.0,3.5459,3.5489,3.5504,3.5504,3.5504,3.5504,3.5504,3.5504,3.5504,3.5504,3.5504,3.5504,3.5504,3.5504,3.5504,3.5504,3.5504,3.5537,3.5554,3.5554,3.5587,3.575,3.6508,3.6722,3.7068,3.8591,0.0,0.0,0.0,0.0,4.0096,0.0,0.0,0.0,0.0,0.0,0.0,0.0,0.0,0.0,0.0,0.0,0.0,0.0,0.0,0.0,0.0,3.8988,3.8345,3.6965,3.6829,0.0,0.0,0.0,3.8261,3.892,3.9706,4.0096,4.0096,4.0096,4.0096,4.0096,4.0096,4.0096,4.0096,4.0096,4.0096,4.0096,4.0096,4.0096,4.0096,4.0096,4.0121,4.0146,4.0146,4.0171,4.0196,4.0146,4.0171,4.0179,2.9792,3.0118,3.0407,0.0,3.052,3.0934,0.0,0.0,0.0,0.0,4.0087,4.1936,4.3161,4.3444,4.3499,4.3407,4.3401,0.0,0.0,0.0,0.0,4.0573,4.113,4.0442,3.8197,3.8975,0.0,3.6926,0.0,0.0,3.6477,3.5804,3.5594,3.5744,0.0,0.0,3.4771,3.5295,3.5504,3.5504,3.5504,3.5504,0.0,0.0,3.5504,3.5504,3.5504,3.5504,3.5504,3.5504,3.5504,3.5504,3.5504,3.5863,3.6306,3.6306,3.6722,3.7368,3.8117,3.8314,3.8536,3.9542,3.9782,3.985,0.0,0.0,0.0,0.0,0.0,0.0,0.0,0.0,0.0,0.0,0.0,0.0,0.0,0.0,0.0,3.9825,0.0,0.0,0.0,3.8819,3.8024,3.7652,3.7094,0.0,0.0,0.0,0.0,3.8193,3.9436,4.0096,4.0096,4.0096,4.0096,4.0096,4.0096,4.0096,4.0096,4.0096,4.0096,4.0096,4.0096,4.0096,4.0096,4.0096,4.0319,4.0703,4.0703,4.0967,4.1308,4.085,4.099,4.1375,3.0714,0.0,0.0,3.2188,0.0,0.0,3.3614,0.0,0.0,3.9582,4.1606,0.0,4.3822,4.4386,4.465,4.4359,4.4322,0.0,0.0,0.0,0.0,4.1893,4.1931,4.0853,3.8437,3.9065,0.0,3.6582,0.0,0.0,3.6043,3.5684,3.5504,0.0,0.0,3.5295,0.0,3.534,3.5504,3.5504,3.5504,0.0,0.0,3.5504,3.5701,3.5975,3.5975,3.5782,3.5554,3.5863,3.5975,3.6023,3.6399,3.6799,3.7114,3.7114,3.7456,3.795,3.869,3.8908,3.9086,3.9901,4.0096,4.0096,4.0096,4.0096,4.0096,0.0,0.0,0.0,0.0,0.0,0.0,0.0,0.0,0.0,0.0,0.0,0.0,0.0,0.0,0.0,0.0,0.0,3.755,0.0,0.0,0.0,0.0,0.0,0.0,3.7922,3.9326,4.0096,4.0096,4.0096,4.0096,4.0096,4.0096,4.0096,4.0096,4.0096,4.0096,4.0096,4.0096,4.0229,4.0449,4.0449,4.0774,4.1273,4.1273,4.1664,4.2142,4.181,4.1729,4.181,0.0,0.0,0.0,0.0,0.0,0.0,0.0,3.7974,0.0,4.0935,0.0,4.349,4.2898,4.3848,4.4575,4.4527,0.0,4.4456,4.431,4.4227,4.3599,4.2321,4.1647,4.0322,3.8302,3.8766,0.0,0.0,0.0,0.0,3.5624,3.5549,0.0,0.0,0.0,0.0,0.0,3.537,3.537,0.0,3.5589,3.5636,3.5651,3.5765,3.6212,3.6768,3.6768,3.6352,3.591,3.6538,3.6768,3.6873,3.7573,3.7879,3.795,3.795,3.8007,3.8234,3.8897,3.9059,3.9236,3.9927,4.0096,4.0096,4.0096,4.0096,4.0096,4.0096,4.0096,4.0096,0.0,0.0,0.0,0.0,0.0,0.0,0.0,0.0,0.0,0.0,0.0,0.0,0.0,0.0,0.0,0.0,0.0,0.0,0.0,0.0,0.0,3.7939,3.9326,4.0146,4.0248,0.0,4.0255,4.0357,4.0355,4.0311,4.0311,4.0311,4.0311,4.0311,4.0311,4.0594,4.1018,4.1018,4.138,4.1916,4.2,4.2344,4.2789,4.2789,4.2462,4.2021,0.0,0.0,0.0,0.0,0.0,3.8421,3.9715,4.0734,4.1791,4.2998,4.5186,4.6343,4.5679,4.5827,4.5736,4.5179,4.5146,0.0,0.0,0.0,0.0,4.1647,4.092,3.9634,3.7629,3.7195,3.6776,0.0,0.0,0.0,3.6297,0.0,0.0,0.0,0.0,0.0,3.4698,3.4698,0.0,3.4791,3.5936,3.6415,3.6477,3.713,3.7501,3.7602,3.7602,3.7531,3.7413,3.7544,3.7602,3.7602,3.7764,3.8218,3.8718,3.8718,3.9183,3.9731,3.9833,3.9901,3.9927,4.007,4.0096,4.0096,4.0096,4.0096,4.0096,4.0096,4.0096,4.0096,4.0096,0.0,0.0,0.0,0.0,0.0,0.0,0.0,0.0,0.0,0.0,0.0,0.0,0.0,0.0,0.0,0.0,0.0,0.0,0.0,0.0,0.0,3.9326,0.0,0.0,0.0,4.1101,4.175,4.1578,4.1508,4.1508,4.1508,4.1508,4.1508,4.1508,4.1573,4.1643,4.1643,4.2,4.2596,4.3032,4.3268,4.3375,4.3375,4.3286,4.3196,0.0,0.0,0.0,0.0,0.0,0.0,0.0,4.2497,0.0,4.3472,4.4481,4.5083,4.4769,4.5379,4.5514,4.484,4.4466,4.4003,4.3344,4.2686,4.1893,4.0905,4.0561,0.0,3.7449,3.712,3.6641,3.5983,0.0,0.0,3.5968,0.0,0.0,0.0,0.0,3.5307,0.0,0.0,0.0,3.5729,3.6787,3.7203,3.7263,3.7661,3.8035,3.8358,3.8358,3.8652,3.8941,3.8513,3.8358,3.8442,3.8859,3.9252,3.9516,3.9516,3.9808,4.0096,4.0096,4.0096,4.0096,4.0096,4.0096,4.0096,4.0096,4.0096,4.0096,4.0096,4.0096,4.0096,4.0096,4.0096,0.0,0.0,0.0,0.0,0.0,0.0,0.0,0.0,0.0,0.0,0.0,0.0,0.0,0.0,0.0,0.0,0.0,0.0,0.0,0.0,0.0,0.0,0.0,0.0,0.0,4.1936,4.1837,4.181,4.181,4.181,4.181,4.181,4.181,4.1979,4.2302,4.2562,4.2847,4.3142,4.3392,4.3515,4.3515,4.3515,4.3515,4.3515,0.0,3.7426,0.0,0.0,3.9599,0.0,4.2115,4.3359,4.4018,4.3738,4.3708,4.3663,4.3514,4.4466,4.4825,4.4167,4.3509,4.291,4.2425,4.1647,4.0935,4.0427,4.0127,3.917,3.7449,3.7135,3.6432,0.0,0.0,0.0,0.0,0.0,0.0,0.0,0.0,0.0,0.0,0.0,3.6722,3.6798,3.7689,3.8035,3.8064,3.8234,3.8652,3.9166,3.9166,3.9542,3.9995,3.9368,3.9166,3.9262,3.9901,4.0096,4.0096,4.0096,4.0096,4.0096,4.0096,4.0096,4.0096,4.0096,4.0096,4.0096,4.0096,4.0096,4.0096,4.0096,4.0096,4.0096,4.0096,4.0096,0.0,0.0,0.0,0.0,0.0,0.0,0.0,0.0,0.0,0.0,0.0,0.0,0.0,0.0,0.0,0.0,0.0,0.0,0.0,0.0,0.0,4.1881,4.2019,0.0,4.2068,4.2228,4.2175,4.2165,4.2165,4.2165,4.2165,4.2165,4.2165,4.2424,4.2902,4.3339,4.3515,4.3515,4.3515,4.3515,4.3515,4.3515,4.3515,4.3515,0.0,0.0,0.0,0.0,0.0,0.0,4.2381,4.297,4.3798,4.496,4.511,4.4885,4.4287,4.4332,4.4137,4.3439,4.2836,4.247,4.2396,4.119,4.0472,4.0397,3.923,3.8212,3.7419,3.6282,3.531,0.0,0.0,0.0,0.0,0.0,0.0,0.0,0.0,0.0,0.0,3.6422,3.675,3.6894,3.8259,3.8799,3.8897,3.961,3.9927,3.9995,3.9995,4.0045,4.007,4.002,3.9995,3.9995,4.007,4.0096,4.0096,4.0096,4.0096,4.0096,4.0096,4.0096,4.0096,4.0096,4.0096,4.0096,4.0096,4.0096,4.0096,4.0096,4.0096,4.0096,4.0096,4.0096,4.0262,0.0,0.0,0.0,0.0,0.0,0.0,0.0,0.0,0.0,0.0,0.0,0.0,0.0,0.0,0.0,0.0,0.0,0.0,3.9449,0.0,4.2108,4.2776,4.268,4.2938,4.3602,4.3415,4.3339,4.3339,4.3339,4.3339,4.3339,4.3339,4.3374,4.3427,4.3479,4.3515,4.3515,4.3515,4.3515,4.3515,4.3515,4.3515,4.3515,0.0,0.0,0.0,0.0,0.0,0.0,0.0,4.3125,4.3484,4.4047,4.4122,4.4018,4.3708,4.3678,4.3464,4.2806,4.2186,4.1647,4.1205,4.0322,3.9634,3.9215,3.8676,3.7913,3.6881,3.6357,3.5776,0.0,0.0,0.0,0.0,0.0,0.0,0.0,0.0,3.6787,3.7004,3.7765,3.8096,3.8197,3.9232,3.961,3.9662,3.9978,4.0096,4.0096,4.0096,4.0096,4.0096,4.0096,4.0096,4.0096,4.0096,4.0096,4.0096,4.0096,4.0096,4.0096,4.0096,4.0096,4.0096,4.0096,4.0096,4.0096,4.0096,4.0096,4.0096,4.0096,4.0343,4.0577,4.0635,4.0908,4.1196,0.0,0.0,0.0,0.0,0.0,0.0,0.0,0.0,0.0,0.0,0.0,0.0,0.0,0.0,0.0,0.0,0.0,0.0,4.0734,0.0,4.2955,4.3261,4.3214,4.3324,4.3616,4.3539,4.3515,4.3515,4.3515,4.3515,4.3515,4.3515,4.3515,4.3515,4.3515,4.3515,4.3515,4.3515,4.3515,4.357,4.4048,4.4213,4.4287,4.1542,0.0,4.1324,0.0,4.2267,4.2267,4.3155,4.329,4.329,4.329,4.329,4.329,4.329,4.3125,4.2865,4.244,4.1632,4.0891,4.0427,3.9783,3.911,3.8422,3.8441,0.0,3.6859,3.686,3.6537,3.5888,3.6606,0.0,0.0,0.0,0.0,0.0,3.7173,3.7676,3.8199,3.8756,3.9123,3.9385,3.9893,4.0096,4.0096,4.0096,4.0096,4.0096,4.0096,4.0096,4.0096,4.0096,4.0096,4.0096,4.0096,4.0096,4.0096,4.0096,4.0096,4.0096,4.0096,4.0096,4.0096,4.0096,4.0096,4.0096,4.0096,4.0096,4.0146,4.0311,4.0631,4.0967,4.119,4.153,4.1874,4.2038,0.0,0.0,0.0,0.0,0.0,0.0,0.0,4.2782,4.3112,0.0,0.0,0.0,0.0,0.0,0.0,0.0,0.0,0.0,0.0,0.0,0.0,4.3515,4.3515,4.3515,4.3515,4.3515,4.3515,4.3515,4.3643,4.3846,4.3846,4.3846,4.3846,4.3846,4.3699,4.3515,4.3515,4.3626,4.392,4.4488,4.4856,4.5131,4.2126,4.2381,4.259,4.317,4.3275,4.3275,4.329,4.329,4.329,4.329,4.329,4.329,4.329,4.2761,4.241,4.2396,4.1175,4.0412,4.0397,3.9783,3.911,0.0,0.0,3.8269,3.7606,3.7731,3.747,3.6774,0.0,0.0,3.4739,0.0,3.7569,3.8946,3.8971,3.8988,3.8988,3.9005,3.9436,4.0096,4.0096,4.0096,4.0096,4.0096,4.0096,4.0096,4.0096,4.0096,4.0096,4.0096,4.0096,4.0096,4.0096,4.0096,4.0096,4.0096,4.0096,4.0096,4.0096,4.0096,4.0096,4.0096,4.0096,4.0096,4.0096,4.0096,4.0237,4.078,4.0903,4.1087,4.1686,4.181,4.2018,4.2596,0.0,0.0,0.0,0.0,0.0,0.0,4.3496,4.3167,4.2396,0.0,0.0,0.0,0.0,0.0,0.0,0.0,0.0,4.2288,4.3075,0.0,4.3515,4.3515,4.3515,4.3515,4.3515,4.3515,4.3515,4.3515,4.392,4.469,4.469,4.469,4.469,4.469,4.4213,4.3515,4.3515,4.3993,4.469,4.4691,4.5204,4.5883,4.2761,4.3015,4.309,4.326,4.329,4.329,4.329,4.329,4.329,4.329,4.329,4.3125,4.2716,4.253,4.2036,0.0,4.118,4.1102,0.0,4.095,4.0882,4.0208,3.974,3.9153,3.8486,3.8041,3.7697,3.7492,0.0,0.0,0.0,3.8095,3.8546,3.8988,3.8988,3.9276,3.9757,3.9757,3.9893,4.0096,4.0096,4.0096,4.0096,4.0096,4.0096,4.0096,4.0096,4.0096,4.0096,4.0096,4.0096,4.0096,4.0096,4.0096,4.0096,4.0096,4.0096,4.0096,4.0096,4.0096,4.0096,4.0096,4.0096,4.0096,4.0096,4.0392,4.0703,4.0856,4.1556,4.2183,4.2382,4.2696,4.3032,4.3214,4.325,0.0,0.0,0.0,0.0,0.0,4.3515,4.3387,0.0,4.3349,0.0,0.0,0.0,0.0,0.0,0.0,0.0,0.0,4.3369,0.0,4.3515,4.3515,4.3515,4.3515,4.4066,4.4323,4.4323,4.4323,4.447,4.4691,4.4691,4.5021,4.5516,4.5516,4.5369,4.5131,4.5131,4.5296,4.559,4.6122,4.6489,4.6801,4.2806,4.3125,4.329,4.329,4.329,4.329,4.329,4.329,4.329,4.329,4.312,4.2872,4.2561,4.2296,0.0,4.094,4.1461,4.1617,4.1211,4.1707,4.1597,4.0621,4.043,3.9884,3.8926,0.0,0.0,3.865,3.8859,3.9108,3.9419,3.9123,3.914,3.9394,3.9394,3.9673,4.0096,4.0096,4.0096,4.0096,4.0096,4.0096,4.0096,4.0096,4.0096,4.0096,4.0096,4.0096,4.0096,4.0096,4.0096,4.0096,4.0096,4.0096,4.0096,4.0096,4.0096,4.0096,4.0096,4.0096,4.0096,4.0096,4.0096,4.0146,4.0343,4.0655,4.1041,4.149,4.2183,4.2769,4.2958,4.3268,4.3515,4.3515,4.3515,4.3515,4.3515,0.0,0.0,0.0,0.0,0.0,0.0,4.3515,0.0,0.0,0.0,0.0,0.0,0.0,0.0,4.3515,4.3515,0.0,4.3515,4.3791,4.3956,4.3956,4.4764,4.5149,4.5149,4.5149,4.5333,4.559,4.559,4.5902,4.6361,4.6361,4.6177,4.5902,4.5902,4.6085,4.6416,4.6911,4.7278,4.7608,4.2396,4.2895,0.0,0.0,4.329,0.0,4.329,4.3369,4.3409,4.3409,4.2941,4.2629,4.2757,4.2252,4.1852,4.1821,0.0,0.0,0.0,4.2077,4.1514,4.0196,4.0704,4.0402,3.9104,3.9747,4.0096,4.0096,3.9394,3.9436,4.0096,3.9394,3.9453,4.0096,4.0096,4.0096,4.0096,4.0096,4.0096,4.0096,4.0096,4.0096,4.0096,4.0096,4.0096,4.0096,4.0096,4.0096,4.0096,4.0096,4.0096,4.0096,4.0096,4.0096,4.0096,4.0096,4.0096,4.0096,4.0096,4.0096,4.0096,4.0146,4.0196,4.036,4.085,4.0995,4.1375,4.2552,4.2767,4.2938,4.3556,4.3588,4.3533,4.357,4.3551,4.3515,4.3515,0.0,0.0,0.0,0.0,0.0,0.0,4.3515,4.3515,0.0,0.0,0.0,0.0,0.0,4.357,4.3515,4.3551,4.3588,4.3588,4.4378,4.4801,4.4874,4.5626,4.5975,4.5975,4.5975,4.6397,4.7094,4.7094,4.7131,4.7186,4.7186,4.6746,4.6067,4.6067,4.6544,4.7224,4.7224,4.772,4.8383,0.0,0.0,4.329,4.329,4.329,4.329,4.329,4.3966,4.4434,4.4434,4.4434,4.4267,4.3815,4.3717,4.3474,4.297,4.2945,4.2986,4.2986,4.3044,4.2941,4.259,4.164,4.1009,4.0666,4.0282,4.0096,4.0096,3.9926,3.9943,4.0096,3.9926,3.9943,4.0096,4.0096,4.0096,4.0096,4.0096,4.0096,4.0096,4.0096,4.0096,4.0096,4.0096,4.0096,4.0096,4.0096,4.0096,4.0096,4.0096,4.0096,4.0096,4.0096,4.0096,4.0096,4.0096,4.0096,4.0096,4.0096,4.0096,4.0204,4.0625,4.1059,4.1442,4.1556,4.1937,4.2542,4.343,4.345,4.3723,4.5076,4.4323,4.3699,4.4323,4.3901,4.3515,4.3515,4.3515,0.0,0.0,4.3515,4.3515,4.3515,4.3515,4.3515,0.0,0.0,0.0,0.0,4.4085,4.4121,4.3533,4.4103,4.4415,4.4415,4.5204,4.592,4.6526,4.6709,4.6819,4.6819,4.6819,4.6911,4.7094,4.7094,4.7443,4.8012,4.8012,4.7902,4.7737,4.7737,4.8034,4.8483,4.8483,4.8779,4.9221,4.1946,4.2686,4.329,4.329,4.3669,4.4004,4.4004,4.4818,4.5321,4.497,4.4786,4.4515,4.4204,4.4,4.3856,4.3877,4.3902,4.3902,4.3902,4.3575,4.3267,4.2912,4.1813,4.1035,4.0696,4.0316,4.0096,4.0096,4.0096,4.0096,4.0096,4.0096,4.0096,4.0096,4.0096,4.0096,4.0096,4.0096,4.0096,4.0096,4.0096,4.0096,4.0096,4.0096,4.0096,4.0096,4.0096,4.0096,4.0096,4.0096,4.0096,4.0096,4.0096,4.0096,4.0146,4.0392,4.0286,4.0146,4.0392,4.0473,4.0601,4.1155,4.1842,4.2409,4.2697,4.3308,4.4001,4.4668,4.4711,4.4856,4.5736,4.4892,4.4195,4.4635,4.4011,4.3515,4.3515,4.3515,0.0,4.3515,4.3515,4.3515,4.3515,4.3515,4.3515,4.3515,0.0,0.0,4.403,4.447,4.4507,4.4066,4.4837,4.5259,4.5259,4.6049,4.6856,4.7645,4.7645,4.7645,4.7645,4.7645,4.7645,4.7645,4.7645,4.7901,4.8325,4.8495,4.8568,4.8586,4.878,4.898,4.9171,4.9171,4.9311,4.9489,4.1512,4.2357,4.3249,4.3497,4.422,4.4849,4.4983,4.5718,4.6014,4.5401,4.4765,4.4399,4.449,4.3902,4.3785,4.4542,4.4615,4.4615,4.4615,4.3741,4.3014,4.2489,4.1542,4.0781,4.0282,4.0163,4.0096,4.0096,4.0096,4.0096,4.0096,4.0096,4.0096,4.0096,4.0096,4.0096,4.0096,4.0096,4.0096,4.0096,4.0096,4.0096,4.0096,4.0096,4.0096,4.0096,4.0096,4.0096,4.0096,4.0096,4.0146,4.0229,4.0229,4.0286,4.0441,4.0897,4.0703,4.0466,4.092,4.111,4.1308,4.1973,4.2679,4.3424,4.405,4.4729,4.5393,4.5975,4.5975,4.5975,4.6214,4.5406,4.4745,4.4874,4.4103,4.3515,4.3515,0.0,4.3551,4.3663,4.3681,4.3718,4.3863,4.3846,4.3846,4.3846,4.3846,4.4158,4.4838,4.4984,4.5058,4.5058,4.5718,4.614,4.6269,4.6929,4.7608,4.8306,4.8306,4.8326,4.8402,4.8402,4.8421,4.8495,4.8495,4.8495,4.8513,4.8864,4.8978,4.9011,4.9371,4.9532,4.9575,4.9575,4.9636,4.9692,4.1294,4.2036,4.2982,4.4342,4.4699,4.5095,4.5869,4.6245,4.6422,4.6307,4.5789,4.5467,4.5483,4.4838,4.4457,4.4587,4.4615,4.4615,4.4615,4.325,4.2692,4.3189,4.1322,4.0493,4.1018,4.0434,4.0096,4.0096,4.0096,4.0096,4.0096,4.0096,4.0096,4.0096,4.0096,4.0096,4.0096,4.0096,4.0096,4.0096,4.0096,4.0096,4.0096,4.0096,4.0096,4.0096,4.0096,4.0096,4.0096,4.0096,4.0417,4.078,4.078,4.1127,4.1534,4.1643,4.1599,4.1534,4.1643,4.2021,4.2622,4.3386,4.401,4.4638,4.5407,4.5681,4.5993,4.6764,4.6379,4.6324,4.7682,4.6159,4.4929,4.5608,4.447,4.3515,4.3515,0.0,4.3754,4.4433,4.4525,4.4782,4.5461,4.5535,4.5535,4.5535,4.5535,4.5571,4.5718,4.636,4.6727,4.6727,4.6856,4.7241,4.7921,4.8049,4.8196,4.8306,4.8306,4.8495,4.8813,4.8813,4.8996,4.9311,4.9311,4.9311,4.9311,4.9386,4.9401,4.9416,4.9475,4.9706,5.0019,5.0019,5.0206,5.0504,4.1287,4.2357,4.3485,4.4613,4.5649,4.6435,4.6884,4.7126,4.7118,4.6717,4.6111,4.5551,4.5145,4.4818,4.4615,4.4615,4.4615,4.4615,4.4615,4.3521,4.2878,4.2811,4.1441,4.0663,4.0595,4.0282,4.0096,4.0096,4.0096,4.0096,4.0096,4.0096,4.0096,4.0096,4.0096,4.0096,4.0096,4.0096,4.0096,4.0096,4.0096,4.0096,4.0096,4.0096,4.0096,4.0096,4.0096,4.0286,4.0528,4.0528,4.0897,4.138,4.138,4.1578,4.1874,4.2183,4.2282,4.2391,4.2803,4.3364,4.398,4.4781,4.5479,4.6085,4.6452,4.6893,4.7297,4.7663,4.7462,4.7425,4.8159,4.6691,4.5608,4.6434,4.4819,0.0,0.0,4.4158,4.4287,4.4672,4.5094,4.5498,4.5865,4.5902,4.5902,4.5902,4.5902,4.6194,4.6827,4.7233,4.7726,4.8371,4.8188,4.8338,4.893,4.8965,4.8965,4.8965,4.8965,4.9046,4.9218,4.9218,4.9326,4.9489,4.9489,4.9489,4.9504,4.9733,4.9813,4.984,5.0068,5.026,5.0421,5.0421,5.0544,5.0712,4.1564,4.2879,4.421,4.529,4.6643,4.7605,4.7653,4.7642,4.7394,4.6633,4.5906,4.5229,4.4666,4.4615,4.4615,4.4615,4.4615,4.4615,4.4615,4.4012,4.3436,4.2844,4.1948,4.1018,4.013,4.0096,4.0096,4.0096,4.0096,4.0096,4.0096,4.0096,4.0096,4.0096,4.0096,4.0096,4.0096,4.0096,4.0096,4.0096,4.0096,4.0096,4.0121,4.0254,4.0286,4.0311,4.0441,4.0767,4.111,4.111,4.1512,4.2,4.2,4.2228,4.2573,4.3022,4.33,4.359,4.4189,4.4528,4.4947,4.5938,4.6636,4.7149,4.7333,4.7846,4.8306,4.8306,4.8306,4.8361,4.8563,4.7278,4.6452,4.7241,0.0,0.0,0.0,4.5131,4.526,4.526,4.5975,4.6452,4.6452,4.6636,4.6709,4.6598,4.6781,4.7234,4.8058,4.8127,4.8596,4.9617,4.9249,4.9187,4.9489,4.9489,4.9489,4.9489,4.9489,4.9547,4.965,4.965,4.9692,4.9773,4.9773,4.9773,4.98,5.0104,5.0249,5.0272,5.0575,5.0712,5.0712,5.0712,5.0712,5.0712,4.2437,4.3422,4.4775,4.701,4.7523,4.7653,4.7858,4.7314,4.6616,4.5889,4.5128,4.4666,4.4615,4.4615,4.4615,4.4615,4.4615,4.4615,4.4615,4.4547,4.4496,4.4445,4.3024,4.1542,4.013,4.0096,4.0096,4.0096,4.0096,4.0096,4.0096,4.0096,4.0096,4.0096,4.0096,4.0096,4.0096,4.0096,4.0096,4.0096,4.0096,4.0096,4.0146,4.0655,4.0833,4.0903,4.1468,4.1703,4.1729,4.1729,4.2142,4.2635,4.2635,4.3485,4.4491,4.4546,4.5077,4.5682,4.5737,4.5242,4.5058,4.6617,4.7058,4.7296,4.8049,4.8269,4.8306,4.8306,4.8306,4.8545,4.9372,4.8141,4.7259,4.8067,0.0,0.0,4.5792,4.6434,4.6911,4.6911,4.7626,4.8122,4.8122,4.8838,4.9159,4.8717,4.9368,4.9666,4.9374,4.9385,4.9575,5.0043,4.9678,4.9475,4.9489,4.9489,4.9489,4.9489,4.9489,4.9706,5.0056,5.0056,5.026,5.0614,5.0614,5.0614,5.0614,5.0634,5.0663,5.0663,5.0683,5.0712,5.0712,5.0712,5.0712,5.0712,4.276,4.4022,4.5228,4.6092,4.7083,4.767,4.7267,4.6583,4.6024,4.5737,4.5043,4.4615,4.4615,4.4615,4.4615,4.4615,4.4615,4.4615,4.4615,4.4615,4.4175,4.3227,4.2168,4.1136,4.013,4.0096,4.0096,4.0096,4.0096,4.0096,4.0096,4.0096,4.0096,4.0096,4.0096,4.0096,4.0096,4.0096,4.0286,4.0601,4.0601,4.0821,4.119,4.138,4.1468,4.149,4.1707,4.2041,4.2362,4.2362,4.2733,4.3287,4.378,4.4291,4.4893,4.5902,4.6049,4.6122,4.7131,4.6801,4.6452,4.7571,4.8251,4.8728,4.9022,4.9481,4.9848,4.9848,4.9848,4.9958,5.027,4.937,4.8875,4.9719,0.0,4.7572,4.8123,4.8453,4.8453,4.7901,4.8581,4.9095,4.9095,4.9621,5.0117,5.0441,5.0954,5.1322,5.1424,5.1153,5.1059,5.1209,5.0573,5.0249,5.0249,5.0249,5.0249,5.0249,5.0249,5.0593,5.1201,5.0702,5.0842,5.1414,5.0914,5.0712,5.0712,5.0712,5.0712,5.0712,5.0712,5.0991,5.1433,5.1433,5.1433,5.1433,4.3299,4.4583,4.5635,4.5806,4.6784,4.731,4.6566,4.6024,4.5618,4.5382,4.4891,4.4615,4.4615,4.4615,4.4615,4.4615,4.4615,4.4615,4.4615,4.4615,4.3921,4.2354,4.2049,4.1322,4.013,4.0333,4.0333,4.0096,4.0096,4.0096,4.0096,4.0096,4.0096,4.0096,4.0286,4.0343,4.0368,4.0546,4.0844,4.1161,4.1161,4.1424,4.1832,4.2,4.2062,4.2103,4.2266,4.2761,4.332,4.332,4.3743,4.4342,4.4911,4.5241,4.5718,4.7076,4.7095,4.6893,4.8012,4.8104,4.8031,4.8563,4.9334,4.9996,4.9996,5.0398,5.0802,5.0802,5.0802,5.0875,5.1132,5.0472,5.0196,5.1041,4.9994,4.9297,4.9884,5.0198,5.0092,4.9362,5.0027,5.049,5.0361,5.0829,5.1326,5.1753,5.2277,5.2615,5.2788,5.2483,5.2308,5.2308,5.151,5.1202,5.1471,5.1202,5.0952,5.0712,5.1221,5.1625,5.1885,5.1337,5.1529,5.225,5.1433,5.1221,5.1491,5.1491,5.1491,5.1491,5.1491,5.1818,5.2308,5.2308,5.2135,5.1942,4.4243,4.5093,4.5923,4.665,4.6786,4.6532,4.5805,4.5703,4.5432,4.4699,4.4615,4.4615,4.4615,4.4615,4.4615,4.4615,4.4615,4.4615,4.4615,4.4598,4.3921,4.2371,4.3014,4.2371,4.018,4.0832,4.0832,4.0113,4.0096,4.0096,4.0096,4.0096,4.0113,4.0121,4.0679,4.0903,4.0949,4.1556,4.181,4.181,4.181,4.181,4.1892,4.2498,4.2729,4.2806,4.334,4.403,4.4727,4.4727,4.5241,4.5902,4.5902,4.6471,4.7278,4.8086,4.8306,4.8324,4.8324,4.8948,4.9629,4.961,5.0196,5.082,5.082,5.082,5.082,5.082,5.082,5.1059,5.1848,5.1353,5.1077,5.1867,5.1334,5.082,5.082,5.1499,5.1868,5.145,5.2117,5.2459,5.2047,5.2723,5.3024,5.266,5.3353,5.3644,5.324,5.3222,5.3222,5.3222,5.2365,5.2327,5.3203,5.2327,5.151,5.075,5.2414,5.275,5.1923,5.1904,5.2385,5.3164,5.2288,5.2404,5.3203,5.3203,5.3203,5.3203,5.3203,5.3203,5.3222,5.3222,5.2654,5.2038,4.451,4.5171,4.5602,4.5326,4.5669,4.5788,4.5026,4.4925,4.4869,4.4632,4.4615,4.4615,4.4615,4.4615,4.4615,4.4615,4.4615,4.4615,4.4615,4.4062,4.3555,4.3098,4.3274,4.2861,4.166,4.1356,4.1085,4.0865,4.0367,4.0096,4.0096,4.0497,4.0655,4.0679,4.1268,4.1534,4.1534,4.1707,4.2362,4.3268,4.3268,4.385,4.4705,4.4893,4.4967,4.4986,4.5114,4.5333,4.5535,4.5535,4.57,4.5993,4.6544,4.7278,4.7975,4.8233,4.8728,4.9225,4.9225,5.0235,5.1024,4.9886,5.0639,5.1628,5.1628,5.2087,5.2491,5.2491,5.2491,5.2564,5.2803,5.2656,5.2564,5.2803,5.2637,5.2491,5.2491,5.2927,5.3014,5.2324,5.2713,5.2962,5.2858,5.3352,5.387,5.4306,5.4839,5.5078,5.4972,5.4414,5.4107,5.4107,5.328,5.2953,5.3203,5.2327,5.2077,5.2452,5.2972,5.3376,5.3703,5.3087,5.3299,5.4068,5.3203,5.2972,5.3203,5.3203,5.3203,5.3203,5.3203,5.3568,5.4107,5.4107,5.3953,5.376,4.4615,4.4942,4.5111,4.4682,4.4987,4.5111,4.4682,4.4615,4.4615,4.4615,4.4615,4.4615,4.4615,4.4615,4.4615,4.4615,4.4615,4.4615,4.4615,4.413,4.3876,4.3876,4.3876,4.3386,4.2303,4.2151,4.1931,4.1644,4.1196,4.0951,4.0895,4.1216,4.1331,4.1291,4.1895,4.2162,4.218,4.2707,4.3454,4.4231,4.4559,4.5167,4.5902,4.5902,4.5902,4.5902,4.5902,4.6104,4.6379,4.6379,4.6599,4.6929,4.7406,4.7901,4.8379,4.871,4.9206,4.9665,4.9996,5.1004,5.1777,5.0804,5.1518,5.2472,5.2472,5.2858,5.3185,5.3185,5.3185,5.3185,5.3185,5.3185,5.3185,5.3185,5.3185,5.3251,5.3422,5.3644,5.3755,5.3607,5.38,5.4007,5.418,5.4448,5.4807,5.5293,5.5566,5.5703,5.5703,5.5241,5.4972,5.4972,5.4145,5.3876,5.4184,5.3356,5.3029,5.3222,5.3876,5.4299,5.4472,5.3953,5.4184,5.4934,5.4087,5.3895,5.4184,5.4184,5.4184,5.4184,5.4184,5.4511,5.4972,5.4972,5.4761,5.4549,4.4615,4.4615,4.4615,4.4615,4.4615,4.4615,4.4615,4.4615,4.4615,4.4615,4.4615,4.4615,4.4615,4.4615,4.4615,4.4615,4.4615,4.4615,4.4615,4.4547,4.453,4.4615,4.4547,4.3898,4.2613,4.3125,4.3108,4.2477,4.2409,4.2356,4.2291,4.2339,4.2228,4.2005,4.2627,4.2877,4.2952,4.4181,4.4764,4.4966,4.5718,4.6049,4.6104,4.6104,4.6104,4.6104,4.6104,4.6599,4.7204,4.7204,4.7681,4.8306,4.8306,4.8306,4.8471,4.9353,4.9647,4.9886,5.0692,5.1481,5.2105,5.2105,5.2656,5.3185,5.3185,5.3185,5.3185,5.3185,5.3185,5.3185,5.3185,5.3227,5.3251,5.3251,5.3293,5.3442,5.3814,5.3887,5.42,5.5007,5.5134,5.5294,5.5662,5.5703,5.5703,5.5703,5.5703,5.5703,5.5703,5.5703,5.5703,5.5703,5.4991,5.4953,5.5684,5.4972,5.4203,5.3433,5.4972,5.5318,5.4607,5.4607,5.5011,5.5665,5.4934,5.5011,5.5703,5.5703,5.5703,5.5703,5.5703,5.5703,5.5703,5.5703,5.5241,5.4703,4.4615,4.4615,4.4615,4.4615,4.4615,4.4615,4.4615,4.4615,4.4615,4.4615,4.4615,4.4615,4.4615,4.4615,4.4615,4.4615,4.4615,4.4615,4.4615,4.4012,4.3944,4.4581,4.3995,4.4031,4.4794,4.3861,4.3571,4.3931,4.3362,4.3308,4.3747,4.4228,4.4091,4.3476,4.4034,4.4272,4.4291,4.4582,4.5425,4.6581,4.6764,4.7204,4.7792,4.7792,4.7792,4.7792,4.7792,4.7902,4.8049,4.8049,4.8159,4.8306,4.8306,4.8306,4.8471,4.9353,5.005,5.071,5.1518,5.2325,5.2949,5.2949,5.3057,5.3185,5.3185,5.3185,5.3185,5.3185,5.3185,5.3185,5.3185,5.3464,5.3682,5.3682,5.3978,5.4257,5.434,5.4606,5.489,5.5075,5.5387,5.5599,5.5684,5.5703,5.5703,5.5703,5.5703,5.5703,5.5703,5.5703,5.5703,5.5703,5.553,5.5511,5.5703,5.553,5.5338,5.5164,5.553,5.5607,5.5434,5.5434,5.553,5.5684,5.5511,5.553,5.5703,5.5703,5.5703,5.5703,5.5703,5.5703,5.5703,5.5703,5.5588,5.5453,4.4615,4.4615,4.4615,4.4615,4.4615,4.4615,4.4615,4.4615,4.4615,4.4615,4.4615,4.4615,4.4615,4.4615,4.4615,4.4615,4.4615,4.4615,4.4615,4.4477,4.4597,4.5008,4.4897,4.518,4.5915,4.5205,4.4997,4.5352,4.4966,4.4911,4.5161,4.5495,4.5345,4.4872,4.5151,4.5278,4.5296,4.5682,4.6324,4.7131,4.7516,4.7921,4.8306,4.8306,4.8306,4.8306,4.8306,4.8306,4.8361,4.8783,4.8912,4.8985,4.937,4.9224,4.915,5.04,5.0765,5.1059,5.2252,5.2894,5.3185,5.3185,5.3185,5.3185,5.3185,5.3185,5.3185,5.3185,5.3359,5.3484,5.3484,5.3851,5.4135,5.4135,5.4338,5.4582,5.4745,5.4966,5.5173,5.5356,5.5577,5.5703,5.5703,5.5703,5.5703,5.5703,5.5703,5.5703,5.5703,5.5703,5.5703,5.5703,5.5703,5.5703,5.5703,5.5703,5.5703,5.5703,5.5703,5.5703,5.5703,5.5703,5.5703,5.5703,5.5703,5.5703,5.5703,5.5703,5.5703,5.5703,5.5703,5.5703,5.5703,5.5703,5.5703,5.5703,4.4615,4.4615,4.4615,4.4615,4.4615,4.4615,4.4615,4.4615,4.4615,4.4615,4.4615,4.4615,4.4615,4.4615,4.4615,4.4615,4.4615,4.4654,4.4748,4.5232,4.5563,4.5648,4.6119,4.6454,4.6571,4.6571,4.6571,4.6571,4.6571,4.657,4.6553,4.6553,4.6397,4.6104,4.6104,4.6104,4.6159,4.6819,4.7186,4.7351,4.8031,4.8306,4.8306,4.8306,4.8306,4.8324,4.8471,4.8618,4.8838,4.9554,4.9812,4.9922,5.0582,5.0343,5.0088,5.1555,5.1518,5.1334,5.2803,5.3185,5.3185,5.3185,5.3185,5.3264,5.3479,5.3426,5.3332,5.35,5.3829,5.4166,5.4316,5.4719,5.4972,5.484,5.4882,5.499,5.5179,5.5199,5.5319,5.5662,5.5703,5.5703,5.5703,5.5703,5.5703,5.5703,5.5703,5.5703,5.5703,5.5703,5.5703,5.5703,5.5703,5.5703,5.5703,5.5703,5.5703,5.5703,5.5703,5.5703,5.5703,5.5703,5.5703,5.5703,5.5703,5.5703,5.5703,5.5703,5.5703,5.5703,5.5703,5.5703,5.5703,5.5703,5.5703,5.5703,4.4615,4.4615,4.4615,4.4615,4.4615,4.4615,4.4615,4.4615,4.4615,4.4615,4.4615,4.4615,4.4615,4.4615,4.4615,4.4615,4.4615,4.4814,4.5346,4.5459,4.5732,4.6264,4.6359,4.6664,4.7237,4.7259,4.7259,4.7259,4.7259,4.7518,4.8007,4.8007,4.7624,4.6929,4.6929,4.6929,4.6947,4.7058,4.7498,4.8159,4.8269,4.8306,4.8306,4.8306,4.8306,4.8398,4.9132,4.9866,5.049,5.06,5.0637,5.0655,5.0765,5.0729,5.082,5.172,5.1903,5.2032,5.2968,5.3185,5.3185,5.3185,5.3185,5.3497,5.4592,5.426,5.3944,5.4707,5.5168,5.568,5.6432,5.6899,5.6958,5.6254,5.6429,5.641,5.5714,5.561,5.564,5.5684,5.5703,5.5703,5.5703,5.5703,5.5703,5.5703,5.5703,5.5703,5.5703,5.5703,5.5703,5.5703,5.5703,5.5703,5.5703,5.5703,5.5703,5.5703,5.5703,5.5703,5.5703,5.5703,5.5703,5.5703,5.5703,5.5703,5.5703,5.5703,5.5703,5.5703,5.5703,5.5703,5.5703,5.5703,5.5703,5.5703,4.4615,4.4615,4.4615,4.4615,4.4615,4.4615,4.4615,4.4615,4.4615,4.4615,4.4615,4.4615,4.4615,4.4615,4.4615,4.4615,4.4906,4.5205,4.5485,4.6161,4.6682,4.6955,4.7281,4.7596,4.7897,4.7897,4.7897,4.7897,4.7897,4.8035,4.8306,4.8306,4.8122,4.7755,4.7755,4.7755,4.7755,4.7755,4.7994,4.8306,4.8306,4.8306,4.8306,4.8306,4.8306,4.8416,4.9298,5.0105,5.0875,5.1316,5.1463,5.1555,5.2013,5.183,5.1628,5.2435,5.2344,5.2224,5.3262,5.338,5.3334,5.3796,5.372,5.3866,5.513,5.5327,5.5422,5.6054,5.6468,5.688,5.7256,5.7687,5.7716,5.6872,5.6875,5.6695,5.5818,5.6107,5.6607,5.7088,5.7146,5.7146,5.7146,5.6703,5.6626,5.7126,5.6242,5.5915,5.6406,5.5953,5.5703,5.5703,5.5703,5.5703,5.5703,5.5703,5.5703,5.5703,5.5703,5.5703,5.5703,5.5703,5.5703,5.5703,5.5703,5.5703,5.5703,5.5703,5.5703,5.5703,5.5703,5.5703,5.5703,5.5703,5.5703,5.5703]}]]